GEFSCGP_500_meanwind_000.txt.gz
Wind_Speed
43 47 48 46 47 49 50 50 49 49 49 48 48 48 48 45 42 44 43 38 37 33 30 28 26 26 29 28 26 23 19 23 25 23 22 22 25 27 29 31 31 30 29 32
47 48 46 48 51 52 52 52 51 51 52 51 52 52 51 50 45 47 46 39 35 33 30 28 27 26 28 28 25 24 21 23 26 25 24 25 27 28 30 29 28 28 30 34
47 47 48 51 53 54 54 54 53 53 52 54 54 54 52 50 48 49 49 42 36 32 30 27 27 28 27 28 27 26 24 24 26 27 27 28 29 29 27 26 27 31 35 38
50 47 49 51 53 52 52 49 49 49 50 51 51 56 55 49 47 51 50 45 36 31 28 27 27 29 28 28 28 28 27 26 27 29 30 30 29 28 28 29 32 37 39 39
46 44 47 51 48 47 47 44 46 48 50 53 52 58 57 54 50 52 50 44 36 31 28 27 27 28 27 27 28 29 29 29 30 31 31 30 28 28 30 33 37 39 40 41
42 45 46 46 46 47 46 43 46 48 50 55 53 58 59 51 50 49 47 44 35 31 27 27 26 26 26 27 27 28 29 30 30 32 31 29 29 31 33 36 39 39 40 41
36 36 36 37 39 42 43 44 43 46 53 58 55 60 58 45 45 44 46 44 35 31 27 26 27 27 27 27 28 28 29 29 30 30 30 30 32 34 36 38 38 38 39 39
29 29 31 32 31 34 38 43 47 42 50 51 51 57 54 43 40 44 45 42 37 32 29 28 28 28 29 29 28 28 28 29 30 29 31 33 35 37 37 38 38 38 38 39
19 27 30 31 29 31 34 39 40 39 36 42 49 52 51 42 38 39 40 39 37 29 27 27 29 29 29 29 28 28 28 28 29 30 33 35 37 36 37 38 39 38 39 40
21 23 25 29 29 33 35 34 42 45 39 39 47 53 49 36 37 37 36 32 31 28 26 26 27 30 30 30 29 28 27 29 30 32 35 36 35 35 36 38 38 39 41 42
14 19 23 29 27 24 33 39 40 45 44 39 36 40 39 33 37 35 31 28 26 25 26 28 29 28 29 29 29 29 29 30 31 33 34 33 34 35 36 36 39 41 43 45
11 17 22 23 24 22 28 35 38 48 45 29 23 23 29 31 30 27 25 27 27 25 25 26 26 25 25 26 28 28 29 31 32 32 32 33 34 34 35 38 41 43 45 48
8 10 11 15 18 21 30 38 41 45 44 31 20 23 30 29 29 25 22 23 22 23 22 22 22 22 23 25 26 27 28 29 30 31 32 33 33 35 37 41 43 45 49 51
10 10 9 11 11 17 27 39 43 45 43 28 17 29 28 26 22 20 19 18 18 19 19 19 20 22 23 24 24 25 27 29 30 30 31 32 34 37 40 43 46 49 50 53
2 4 4 4 2 17 28 32 35 37 33 19 23 28 24 22 18 15 13 12 12 13 15 17 20 22 22 23 24 25 27 28 28 30 31 34 36 40 43 45 48 50 52 55
13 15 10 11 12 17 24 31 35 25 14 19 31 34 26 20 16 12 9 9 9 10 11 14 17 19 20 21 23 25 26 27 28 31 33 36 39 42 44 46 48 51 54 59
23 22 20 13 9 17 16 19 20 10 19 32 28 17 15 17 15 14 13 11 10 9 10 13 15 16 18 21 23 25 25 27 30 33 36 39 42 44 46 47 49 53 58 63
21 24 22 20 17 20 19 18 20 23 23 20 14 15 18 18 15 14 15 15 14 14 15 17 17 18 20 22 23 24 26 29 32 35 39 42 44 46 46 48 52 57 62 66
9 14 15 16 17 18 17 18 21 22 20 21 21 21 19 16 15 14 16 16 15 14 14 16 18 19 21 22 23 25 28 31 35 38 41 43 43 44 47 51 56 60 64 63
5 7 7 8 12 14 13 14 17 18 18 16 15 16 15 16 17 18 18 14 12 14 16 18 19 20 21 23 25 28 31 33 36 37 38 40 43 46 50 55 59 61 59 58
7 5 5 4 5 7 10 11 13 16 15 16 17 17 17 18 19 19 17 15 16 18 18 18 18 20 22 25 27 30 32 34 36 38 40 43 46 50 53 56 58 56 56 59
12 10 8 5 4 6 7 9 11 12 13 15 17 18 19 18 17 17 17 17 17 17 16 17 19 21 24 27 30 32 34 36 38 41 43 46 49 52 54 53 53 55 58 62
11 12 12 11 11 9 8 9 12 14 13 14 16 17 18 18 18 17 16 15 16 16 18 20 23 26 27 29 31 33 36 38 41 43 45 47 50 51 50 51 53 57 60 64
11 13 16 15 13 10 10 8 9 11 13 13 15 16 18 17 16 14 13 14 16 19 21 22 24 26 28 31 33 36 38 39 41 43 46 48 47 48 50 52 55 59 63 69
10 13 16 16 14 13 12 10 11 9 10 14 13 14 16 16 14 13 13 14 15 17 19 22 25 28 30 32 34 35 36 38 42 44 45 45 46 48 50 54 57 63 69 75
16 16 17 19 18 16 12 13 14 13 13 14 13 11 11 11 12 11 12 14 16 18 21 24 27 29 31 32 33 35 38 40 41 42 44 46 47 49 52 56 63 70 76 82

GEFSCGP_500_meanwind_006.txt.gz
Wind_Speed
28 32 33 35 38 41 44 46 46 46 47 48 50 51 50 49 47 46 44 41 39 38 38 38 35 36 37 36 33 31 31 30 30 29 28 29 30 27 24 24 23 24 26 28
33 34 35 39 41 43 45 47 48 49 49 50 50 52 52 51 49 47 47 45 42 40 39 38 35 35 36 36 35 32 32 31 30 30 29 28 27 27 26 25 26 26 28 31
36 37 39 42 44 46 47 49 51 52 53 52 53 52 52 52 52 50 48 46 44 42 40 39 36 35 36 36 36 34 34 34 33 31 29 27 28 29 28 28 29 30 32 34
40 41 44 47 49 51 52 53 54 55 56 55 55 55 50 52 54 52 49 47 45 43 41 39 37 37 37 37 37 37 36 35 35 32 30 29 29 30 31 31 33 34 35 37
44 47 51 53 54 56 56 56 57 58 58 58 56 59 53 50 51 51 50 49 48 45 44 41 38 38 38 38 37 38 37 36 34 33 32 32 31 31 32 33 35 37 38 39
48 52 56 56 55 56 56 56 57 58 59 60 58 61 56 51 47 48 49 49 49 47 45 41 40 41 40 39 38 38 38 37 34 33 34 34 33 33 34 35 37 38 40 41
49 50 52 52 51 51 52 52 53 55 58 60 59 61 58 55 49 47 48 50 50 49 46 42 41 41 41 39 38 37 37 37 35 34 34 34 33 34 35 36 37 39 41 42
46 47 44 42 42 44 46 47 49 51 54 57 58 60 58 58 54 49 46 47 50 50 47 42 41 42 40 39 38 37 36 36 35 34 34 33 33 34 35 36 38 40 42 43
44 42 36 31 32 36 38 40 41 43 45 49 55 58 58 57 56 52 46 45 47 48 47 42 42 42 40 38 37 36 36 36 34 33 32 32 32 33 35 37 40 41 42 42
38 36 29 25 26 27 30 32 34 37 40 43 47 49 51 49 49 50 46 46 48 48 46 41 41 42 40 38 37 35 35 35 34 32 32 32 32 34 36 37 39 39 40 41
32 32 28 24 23 25 29 31 33 37 40 41 41 37 31 30 34 36 39 46 47 47 43 39 39 41 40 38 36 35 34 34 34 33 34 34 34 35 35 36 38 39 39 41
28 29 28 24 22 26 28 29 31 34 35 35 36 24 21 22 25 31 38 42 42 41 39 39 41 41 40 38 36 35 35 35 35 35 36 36 35 35 35 36 37 39 40 41
26 27 28 25 22 22 23 22 25 28 30 30 28 15 21 21 23 29 35 36 36 37 38 39 42 41 39 37 35 34 35 36 37 37 37 36 35 34 35 36 37 39 40 42
23 24 25 25 23 23 21 19 19 22 23 20 18 12 20 21 23 29 35 34 35 38 39 40 40 38 36 35 35 35 36 36 36 36 35 33 32 33 34 36 37 38 41 44
19 22 24 23 20 19 17 15 13 14 13 13 11 13 20 21 26 31 33 33 34 37 38 38 37 35 34 34 35 35 35 35 34 32 30 29 30 32 34 35 37 40 44 47
13 17 18 16 14 10 7 4 3 6 8 9 10 18 23 27 30 31 31 31 32 33 33 32 32 31 32 33 33 33 33 32 30 27 26 27 30 31 32 35 39 43 47 50
12 14 16 15 13 11 8 5 6 8 9 12 19 26 28 30 29 29 28 28 28 29 29 29 28 28 28 28 28 28 27 25 24 23 25 27 28 30 34 38 42 46 49 51
12 13 14 15 15 13 8 7 9 11 16 21 26 29 29 26 25 24 23 22 24 24 24 23 22 21 21 21 20 20 20 20 21 23 24 26 30 34 38 41 45 48 50 53
10 12 13 15 16 16 16 15 15 19 23 26 27 27 27 24 23 20 18 17 17 17 16 16 15 14 14 14 15 16 17 18 20 23 26 29 33 37 41 44 47 49 52 54
6 9 11 12 14 16 19 21 22 24 26 23 21 20 21 20 19 17 15 13 12 11 11 11 11 10 11 12 13 15 17 19 22 25 29 32 36 39 42 45 48 50 52 55
4 6 8 9 9 10 12 14 16 17 18 16 15 14 15 15 14 13 12 11 10 9 9 9 9 10 11 13 15 17 19 21 25 28 31 34 37 40 43 46 48 51 54 56
7 6 6 7 8 7 7 7 9 9 10 10 10 11 11 12 12 12 13 13 12 11 11 10 11 12 13 15 17 19 21 24 27 30 33 36 39 41 44 46 49 52 53 54
12 10 8 6 6 7 7 7 6 6 7 8 9 10 11 12 13 13 13 13 12 11 11 11 12 14 15 17 19 21 24 27 29 32 34 37 39 42 45 48 50 51 51 53
15 14 13 11 10 9 8 7 5 4 5 7 8 10 11 12 13 13 13 12 12 12 12 13 13 14 16 18 20 22 25 28 31 34 36 38 40 43 45 47 48 49 51 53
16 16 15 15 14 12 10 7 5 5 4 5 7 8 10 12 13 14 14 14 14 14 13 13 13 14 15 18 21 25 28 31 33 34 36 39 41 43 44 46 47 49 53 57
17 16 16 16 16 14 11 7 6 6 5 5 6 6 6 8 11 13 15 15 14 14 13 13 13 15 18 22 26 28 30 31 33 35 38 39 41 43 44 46 49 52 56 62

GEFSCGP_500_meanwind_012.txt.gz
Wind_Speed
31 30 28 28 29 29 29 30 31 32 34 36 37 39 38 35 35 35 38 42 46 47 46 45 43 41 41 42 41 40 42 42 42 40 39 39 39 38 37 35 34 34 34 35
28 27 26 26 25 27 29 32 34 38 40 42 43 44 43 42 39 39 40 43 46 48 49 49 47 45 44 45 44 41 41 44 44 43 42 41 40 38 36 35 35 34 34 36
26 25 25 25 27 29 32 36 39 43 46 48 50 51 48 48 46 45 44 44 46 48 49 50 50 47 46 46 45 43 41 44 46 45 44 43 41 38 35 35 35 35 35 36
25 25 26 28 31 34 37 41 44 48 51 53 54 59 56 55 52 50 48 48 47 48 49 51 51 49 46 46 45 43 42 44 45 45 44 43 41 37 36 36 36 35 35 35
26 27 29 32 35 38 42 45 48 51 55 58 59 65 64 62 60 56 53 52 51 50 50 51 51 50 47 46 45 43 43 44 45 45 43 42 40 37 36 36 36 36 36 36
28 30 32 34 37 40 44 48 51 55 58 63 61 67 69 63 64 61 58 56 54 54 52 51 52 52 49 47 44 43 43 44 45 43 42 41 39 37 37 37 37 38 38 38
30 31 33 34 37 41 46 49 53 57 60 63 61 65 66 62 64 65 63 61 58 55 53 51 52 52 51 47 43 42 42 42 43 42 41 41 39 38 38 37 38 40 40 40
31 30 32 35 39 42 45 47 48 52 55 55 55 56 52 52 57 61 63 63 60 56 54 52 51 52 51 48 44 42 41 41 42 41 40 40 40 39 38 38 38 39 40 41
29 29 30 34 37 39 42 44 45 49 50 51 50 46 39 36 43 48 53 57 57 55 53 52 51 50 50 48 45 43 41 41 41 41 40 40 40 39 38 38 38 39 40 40
27 28 29 30 32 35 40 42 44 45 48 49 47 42 34 28 32 34 39 46 50 51 51 51 50 49 48 48 46 44 42 41 41 41 41 40 39 38 37 37 37 38 39 39
26 26 24 26 29 34 36 37 38 41 43 44 44 37 31 27 28 28 29 35 42 46 47 49 49 48 47 47 46 44 42 42 42 41 40 39 39 38 36 36 37 37 38 39
23 23 21 23 26 30 31 32 34 37 39 40 41 30 26 24 25 28 29 31 37 42 45 48 48 46 45 45 45 43 42 42 42 41 40 39 38 37 37 37 37 38 39 40
19 19 19 18 21 24 26 27 30 33 36 36 36 25 18 16 20 24 28 31 35 40 44 47 46 45 43 43 43 42 42 42 42 40 39 38 37 37 37 37 37 38 38 40
15 14 14 15 17 22 24 24 25 27 29 28 23 16 12 15 20 22 24 28 32 38 43 45 44 43 41 41 41 41 41 42 41 39 37 37 36 36 37 38 38 38 38 39
9 7 8 11 14 18 20 21 21 21 21 19 13 11 9 13 14 15 17 22 29 35 40 42 42 40 39 39 39 40 41 40 38 37 36 35 35 36 37 38 38 38 38 38
4 3 5 9 12 15 17 18 17 16 15 12 8 5 4 5 5 9 13 16 23 31 36 38 38 37 37 37 38 38 37 36 35 34 34 34 35 37 37 37 37 37 37 40
1 3 4 6 9 12 15 14 13 12 11 9 7 6 4 4 6 9 13 15 21 27 31 34 35 35 35 35 34 34 33 32 32 32 32 34 35 35 35 34 34 36 38 40
2 5 7 9 10 14 13 12 12 11 9 8 8 8 10 11 11 13 16 20 24 26 28 29 30 30 30 30 30 29 28 28 28 30 31 32 32 31 31 32 34 36 39 42
3 6 9 11 12 11 11 12 12 11 10 10 10 10 11 14 15 17 19 21 22 23 25 25 26 25 25 25 25 25 25 26 27 28 28 28 28 28 30 32 34 37 41 44
3 4 6 8 9 10 9 10 11 12 13 14 14 13 12 12 14 16 18 19 20 20 21 23 23 23 24 24 23 23 23 23 23 24 24 24 26 28 30 33 36 40 43 45
4 2 3 4 5 6 6 6 8 11 12 13 13 13 13 12 13 14 14 14 15 16 17 18 19 19 18 18 18 18 19 19 19 20 22 23 25 28 32 35 39 41 44 46
8 6 4 4 3 2 2 2 4 6 6 8 9 9 10 10 11 12 12 12 11 12 13 13 14 14 14 14 14 14 15 16 18 19 21 24 27 31 34 37 39 41 44 47
12 10 8 8 7 5 5 4 3 2 2 2 2 3 3 4 4 4 5 6 6 8 9 9 10 11 11 12 13 13 14 15 17 19 23 26 29 32 35 37 39 42 45 47
17 15 13 11 10 9 8 7 7 6 6 5 4 3 3 2 2 2 3 4 5 6 7 8 9 9 10 10 11 12 13 15 18 21 25 28 31 33 35 37 40 43 45 47
20 19 18 16 13 12 11 9 8 8 7 5 4 4 4 4 5 5 6 7 7 7 8 8 8 8 9 10 11 12 14 17 21 25 28 30 31 33 36 39 41 43 45 46
23 22 20 18 16 14 13 11 10 8 6 5 4 4 5 5 5 5 6 7 7 7 7 7 8 10 11 12 13 15 19 23 25 28 29 30 32 35 37 39 41 42 45 48

GEFSCGP_500_meanwind_018.txt.gz
Wind_Speed
35 37 36 36 39 40 41 41 40 39 41 41 41 41 40 39 39 38 38 38 38 38 37 37 36 36 38 40 43 43 41 37 37 35 35 37 39 40 39 37 37 37 36 36
31 32 32 35 36 36 37 36 36 37 38 40 40 40 40 40 40 40 40 41 41 42 42 41 40 39 39 40 44 46 45 42 40 38 38 40 40 39 38 38 39 38 37 37
28 28 30 31 31 31 32 33 32 33 34 36 38 39 39 40 41 41 43 44 45 45 46 46 46 44 43 42 44 46 47 46 45 43 42 42 40 39 39 40 40 40 39 39
26 25 26 26 26 27 27 28 27 28 30 32 36 41 39 40 43 46 48 49 50 51 51 52 51 50 49 47 46 46 47 49 48 47 45 43 41 41 41 42 42 41 40 39
22 21 22 22 23 23 23 23 25 27 31 34 37 43 43 45 48 52 55 57 58 58 58 58 57 56 54 52 51 49 49 50 50 48 47 46 44 43 43 43 41 40 40 38
20 19 20 20 20 21 22 23 27 31 34 38 41 47 46 49 54 57 60 62 64 65 65 64 63 63 60 57 55 53 52 51 49 49 48 47 46 44 44 43 42 41 40 39
19 19 19 19 20 21 24 26 31 35 39 42 46 51 48 49 53 56 60 62 64 66 68 68 67 66 64 62 60 57 55 52 49 49 48 47 47 45 44 43 43 41 40 39
19 19 19 19 21 23 26 29 33 38 42 44 47 50 47 47 51 54 57 59 61 62 64 66 67 67 66 64 62 60 57 53 50 49 48 48 47 45 44 43 42 40 40 39
19 19 19 21 23 25 28 31 35 39 42 44 45 46 45 46 49 52 54 56 56 55 56 58 60 61 62 63 62 60 58 55 52 50 49 48 46 45 44 43 41 40 40 40
20 20 20 21 24 27 30 32 34 38 41 44 43 44 45 46 48 50 52 54 53 50 49 50 51 53 55 59 60 59 58 55 52 50 49 47 45 45 44 41 40 39 40 40
20 20 20 22 25 28 29 31 33 36 38 41 43 43 43 45 48 50 50 49 48 46 45 44 43 44 48 53 56 57 56 54 52 49 47 45 44 44 42 40 39 39 39 39
19 19 20 23 26 27 27 28 31 34 36 39 42 42 39 44 47 47 46 44 43 43 42 41 39 39 43 48 52 54 54 52 49 46 44 43 43 43 40 39 38 38 38 38
18 18 20 23 24 23 23 25 28 31 33 35 38 40 38 43 46 44 42 40 39 39 39 39 36 36 39 43 48 50 51 48 45 42 42 42 42 40 38 37 36 36 37 37
17 17 19 20 21 19 18 20 23 26 29 32 33 37 37 40 42 41 38 36 35 35 35 34 31 31 35 40 43 45 45 42 40 40 40 41 40 37 36 35 35 35 36 36
15 15 16 17 17 15 14 15 17 22 26 30 31 34 37 38 37 34 32 30 29 27 26 24 24 25 31 36 39 40 39 38 38 38 37 37 35 34 33 33 33 34 35 36
13 13 14 14 13 12 11 11 14 18 22 26 30 31 34 35 32 28 24 21 18 15 13 14 17 22 28 32 34 35 35 35 34 33 32 31 31 31 30 31 32 32 34 36
11 11 12 13 11 8 6 8 12 16 20 24 27 29 31 30 29 26 20 13 8 3 4 10 16 21 25 28 31 31 31 30 29 28 27 27 27 28 28 30 30 33 35 37
9 10 10 10 8 6 4 7 11 15 18 22 25 28 29 29 28 24 21 15 10 8 10 14 18 21 23 26 27 27 26 25 24 23 23 25 28 30 30 31 32 34 36 39
9 9 8 7 6 5 3 6 10 13 16 20 23 26 28 28 27 24 22 19 15 15 16 18 20 21 22 23 23 22 22 22 22 22 23 26 28 28 29 31 33 35 37 39
10 9 8 7 6 5 4 6 9 12 15 18 21 23 25 25 25 24 22 21 19 18 18 19 19 19 19 19 19 19 19 20 21 23 25 27 29 30 31 30 32 34 35 37
12 9 8 8 7 6 5 6 8 10 14 16 18 20 21 22 22 22 21 19 17 15 15 17 17 17 17 16 16 17 18 21 24 25 26 26 25 25 25 27 30 32 34 37
14 11 10 9 9 9 8 8 9 11 14 15 17 18 18 18 18 18 17 16 13 12 11 11 12 14 16 16 17 17 18 18 19 19 18 18 19 21 23 26 29 33 36 39
15 14 12 11 11 11 11 11 12 13 14 14 15 15 14 14 15 14 14 13 12 10 9 7 7 8 10 10 11 11 12 12 12 13 15 16 19 21 24 28 32 35 37 39
17 16 15 14 13 13 12 13 13 13 13 14 13 13 12 12 12 11 10 9 9 8 8 7 6 6 5 5 4 4 5 6 9 12 14 17 20 24 28 31 34 36 38 39
19 19 17 17 16 16 15 14 14 14 13 12 12 10 11 11 11 10 7 6 5 4 4 4 4 4 3 2 0 2 5 8 10 13 16 20 24 28 30 32 34 36 38 40
21 21 20 19 18 17 16 16 15 14 13 12 10 9 9 10 10 9 7 5 3 1 1 2 1 1 0 2 4 6 8 10 13 17 20 24 27 29 31 33 35 37 38 40

GEFSCGP_500_meanwind_024.txt.gz
Wind_Speed
33 35 38 39 40 42 45 46 46 46 46 46 45 43 40 40 42 42 43 43 42 41 40 41 40 40 40 41 42 41 40 38 37 37 36 36 35 35 35 34 32 32 33 33
30 31 32 32 33 36 38 40 40 42 44 44 44 42 40 40 41 42 43 43 43 43 43 43 43 43 43 43 44 44 43 42 41 41 40 40 40 40 39 36 34 33 33 34
28 29 30 32 32 32 33 34 35 37 38 40 41 40 38 37 39 40 41 42 43 43 44 45 45 46 46 46 46 46 46 47 46 45 45 44 44 43 41 38 36 36 37 37
29 29 30 30 30 31 31 31 30 30 32 34 37 37 31 32 34 35 37 39 40 42 43 44 45 47 48 48 49 49 49 50 50 49 48 47 46 45 44 43 42 42 41 40
27 27 27 28 28 28 27 26 25 26 27 29 29 34 27 26 29 32 34 37 39 41 43 45 46 48 50 51 52 53 53 53 53 54 52 51 48 47 47 48 47 45 44 43
25 25 25 25 25 25 23 22 22 22 23 24 22 29 26 24 29 33 36 39 42 44 47 49 51 53 54 55 56 57 58 58 58 58 57 55 53 50 49 49 49 48 47 46
22 23 23 24 23 22 21 21 20 20 20 20 21 24 25 28 30 34 37 41 44 47 50 53 55 57 58 59 60 61 62 62 63 62 62 60 58 55 52 51 51 50 50 48
21 23 23 23 22 21 20 19 18 18 19 19 21 24 24 28 32 35 38 41 43 46 49 51 53 55 57 59 60 61 62 63 65 66 66 65 63 59 56 54 53 52 50 49
22 22 21 21 20 19 18 17 16 18 19 20 21 23 23 27 31 35 37 40 43 45 48 51 53 55 56 58 59 60 61 62 63 65 67 68 66 63 59 56 54 53 51 50
21 20 20 19 18 16 15 14 15 17 20 21 20 19 22 25 28 32 35 38 42 45 48 52 54 56 57 57 58 58 59 59 61 62 64 67 67 65 61 58 56 54 52 50
19 18 17 16 15 13 13 14 15 17 19 20 19 16 20 23 27 30 34 38 42 46 50 53 55 56 56 55 54 53 54 55 56 58 60 63 64 64 62 59 56 54 52 49
16 16 15 14 13 12 13 14 15 16 17 17 17 15 19 23 27 31 34 38 42 46 49 51 52 53 51 49 47 46 46 48 50 53 55 58 61 61 60 57 55 52 50 47
15 14 13 13 12 12 13 14 14 14 13 13 12 13 20 23 27 30 34 38 42 44 46 47 48 46 44 42 40 40 41 42 45 47 49 52 56 58 57 54 52 49 47 44
13 12 12 12 11 11 12 13 12 10 8 8 11 13 18 23 26 29 33 36 39 40 40 40 38 35 32 32 33 33 34 36 38 41 43 46 50 52 52 50 48 45 43 40
12 12 12 12 11 11 11 11 10 7 5 6 11 16 20 23 25 28 31 33 34 35 34 31 27 22 19 20 23 25 27 29 31 33 34 38 43 45 45 45 43 40 38 37
12 12 12 12 11 10 10 9 7 5 4 7 11 16 20 23 25 28 29 29 30 30 28 24 19 13 9 10 13 17 20 22 24 25 28 32 35 38 39 38 36 35 34 34
13 12 12 11 10 10 8 7 5 2 4 8 13 16 19 21 25 26 27 27 28 27 24 21 17 12 6 1 5 9 14 18 20 23 26 28 30 32 32 31 31 31 32 31
12 12 12 10 9 8 8 6 4 2 4 8 13 17 19 21 23 25 26 26 25 23 21 18 15 13 11 10 9 11 14 17 19 21 23 26 27 28 27 28 27 28 28 30
12 12 11 9 9 8 8 6 5 4 5 8 12 15 18 20 22 23 24 24 22 20 18 16 14 12 12 13 14 15 17 18 19 20 22 23 23 23 24 25 26 27 28 31
12 12 11 9 9 9 8 7 6 4 5 8 11 14 16 18 20 21 21 21 20 18 16 14 12 12 12 13 15 16 18 18 19 19 18 18 20 21 22 22 25 27 29 31
12 13 12 11 10 10 9 8 7 6 6 8 10 12 14 17 18 19 19 19 18 17 14 13 12 11 11 11 12 14 14 15 15 14 13 14 16 17 19 21 23 24 25 26
13 13 13 12 12 11 10 9 8 7 7 8 9 11 12 14 16 16 16 16 15 15 13 12 11 10 9 9 9 10 9 9 9 8 8 10 12 14 16 16 18 19 21 23
14 14 15 14 13 12 11 10 9 8 8 8 8 9 11 13 14 14 14 13 12 11 12 11 10 9 9 8 6 6 5 5 5 6 6 6 7 9 10 12 15 18 22 26
15 16 16 16 16 14 13 11 10 10 9 9 8 9 10 11 12 13 12 11 10 8 8 8 9 9 8 8 7 6 5 3 2 1 1 3 6 8 11 14 18 22 26 29
17 17 18 18 18 17 15 14 12 12 11 10 9 9 9 9 10 11 11 10 9 7 5 4 5 6 6 6 5 4 3 3 2 3 5 7 10 13 16 19 22 25 28 31
19 18 18 18 20 19 17 16 14 13 12 12 11 10 9 8 9 10 10 9 8 7 5 4 3 3 3 3 3 4 4 5 6 8 10 13 16 18 21 23 26 29 31 33

GEFSCGP_500_meanwind_030.txt.gz
Wind_Speed
37 41 44 45 46 46 46 45 44 43 43 43 44 44 41 42 44 44 43 44 44 43 43 43 44 43 43 42 42 42 42 42 43 43 44 43 42 41 41 40 39 39 37 36
32 35 38 41 44 45 45 44 43 43 43 43 43 43 41 41 44 45 45 45 45 45 45 45 46 46 46 45 45 44 45 45 46 46 46 46 46 45 45 45 44 41 39 38
27 29 32 36 38 41 42 41 41 41 42 42 43 42 40 40 42 44 45 45 45 46 46 46 47 48 48 48 47 48 48 49 49 50 50 49 49 49 48 47 45 43 42 42
26 26 28 29 31 33 35 37 37 38 39 40 41 40 35 37 39 41 42 43 43 44 44 45 46 47 48 48 49 49 50 51 52 53 53 52 51 50 49 47 47 46 46 46
26 25 26 26 27 29 29 30 31 33 35 36 35 36 28 31 33 35 35 37 39 40 42 43 44 45 47 48 48 49 50 51 53 55 56 56 55 54 52 51 50 50 49 49
25 25 25 26 26 27 26 26 27 27 29 29 27 29 25 25 28 30 32 34 36 38 40 41 42 44 45 47 48 50 51 52 54 55 57 58 58 57 56 54 53 52 52 51
24 23 24 24 25 25 24 24 25 25 25 24 22 24 23 22 24 28 30 32 34 36 38 40 42 43 45 47 50 52 53 55 57 59 60 60 61 61 60 58 57 56 55 53
23 23 23 23 23 23 23 24 24 23 22 20 19 20 21 21 23 25 29 31 33 35 37 40 42 45 47 49 52 54 56 59 61 63 64 65 65 65 65 64 63 61 58 56
23 23 23 22 22 22 22 22 22 21 20 19 18 18 20 21 22 24 26 29 31 34 37 39 42 45 47 50 53 55 58 60 63 65 67 68 69 69 69 69 68 66 63 61
21 21 21 21 21 21 21 21 21 20 18 17 15 16 19 21 23 24 25 27 29 32 35 38 41 44 47 49 52 55 58 60 63 65 67 69 70 71 72 72 71 70 68 65
18 19 19 19 19 19 19 19 18 17 16 14 14 16 18 20 21 22 24 26 28 31 34 37 39 42 45 48 50 53 56 59 61 63 65 67 68 70 71 71 71 71 70 68
16 16 17 16 16 16 16 16 16 16 14 13 14 16 17 18 18 19 21 24 28 30 33 35 37 39 42 45 47 50 53 56 58 61 62 63 63 65 67 68 68 69 69 68
14 14 14 15 14 14 14 15 15 14 13 13 14 16 15 14 15 18 21 24 26 28 31 32 34 36 39 41 44 47 49 51 52 53 54 55 57 58 60 62 63 64 64 64
12 13 13 13 12 12 13 13 13 13 13 13 13 14 12 12 14 17 20 23 25 27 28 29 31 33 36 39 41 42 42 41 40 40 41 42 45 48 51 54 56 58 58 59
12 12 11 11 12 12 12 13 13 13 12 12 11 11 11 12 14 16 19 21 24 25 25 27 28 30 33 35 36 36 34 31 28 27 28 31 34 39 42 45 47 49 51 51
12 12 11 11 11 12 13 13 12 12 12 11 11 10 10 11 13 16 19 21 22 23 24 25 25 27 29 32 33 32 28 24 21 18 18 20 23 27 30 33 35 37 39 41
12 12 12 12 12 13 13 13 12 12 12 12 11 10 9 10 12 15 18 20 21 22 22 23 23 23 25 27 29 28 24 20 16 13 11 12 15 19 20 22 24 27 29 31
13 13 13 13 13 14 13 13 13 13 13 13 12 10 9 10 12 14 17 19 21 20 21 21 21 21 23 24 24 24 22 18 14 10 6 5 7 10 14 17 18 20 22 24
15 15 15 15 15 14 14 14 14 15 15 14 12 10 9 10 12 15 17 19 20 19 19 19 19 19 20 20 20 20 19 17 16 11 6 3 3 7 9 12 15 17 19 21
17 17 16 16 15 16 15 15 16 16 15 14 12 10 9 10 13 15 17 18 18 19 18 18 18 16 17 17 18 17 17 17 17 15 12 9 9 7 7 8 10 13 15 16
18 18 17 17 16 16 16 16 17 17 15 14 12 11 11 11 13 15 16 17 17 18 18 17 16 15 14 14 15 15 14 15 15 15 13 11 8 6 6 6 6 7 10 12
20 19 19 18 18 17 17 17 17 17 16 14 13 12 12 13 14 14 15 16 16 16 16 15 14 14 13 12 12 12 13 14 14 14 12 9 7 5 4 2 1 2 5 8
21 20 20 19 19 18 18 18 18 17 16 16 15 14 14 14 14 14 15 15 15 14 14 13 13 12 12 11 11 11 11 12 12 12 13 12 10 8 6 5 4 4 6 9
22 22 21 20 20 20 20 19 19 18 17 17 16 16 15 15 14 14 14 14 13 13 13 12 12 11 10 10 10 11 11 11 11 11 11 10 10 9 8 8 8 9 11 14
23 23 22 21 21 21 21 21 20 20 19 19 18 18 17 17 16 15 15 14 13 13 12 12 11 10 9 9 9 9 10 10 10 11 11 11 11 11 11 11 12 14 15 17
23 22 22 21 22 22 22 24 23 23 22 21 20 19 19 18 17 17 16 15 14 14 13 12 11 10 9 9 9 9 10 11 11 12 12 13 13 13 14 15 16 17 18 20

GEFSCGP_500_meanwind_036.txt.gz
Wind_Speed
41 42 44 45 45 45 45 44 43 43 42 42 42 42 39 40 40 40 41 42 42 42 41 40 40 39 39 39 39 39 39 39 41 42 42 43 44 45 45 45 46 46 46 46
38 38 40 44 45 45 45 44 43 41 41 41 41 40 38 38 40 40 41 42 42 43 43 43 42 42 41 41 41 41 41 42 43 43 44 45 46 47 48 49 49 49 49 49
35 35 39 42 44 44 44 43 41 40 39 40 39 39 38 38 39 40 40 41 42 43 44 44 44 44 43 43 43 43 43 44 44 45 46 47 48 49 50 50 50 50 51 52
33 34 37 40 42 42 42 42 41 40 39 39 39 38 38 37 38 38 39 40 42 43 44 45 45 45 45 44 44 44 44 44 45 46 46 47 48 49 50 51 52 53 54 55
30 31 34 37 40 41 41 41 40 40 40 39 37 36 36 36 36 37 37 39 40 42 43 43 44 44 44 44 44 44 44 44 45 46 47 48 49 49 50 52 53 54 55 56
25 27 30 34 36 38 38 38 38 39 39 38 36 35 35 34 34 34 35 36 37 39 40 40 41 41 42 42 42 42 43 43 44 45 46 47 49 50 51 52 54 55 56 57
23 25 26 29 32 34 35 36 36 36 37 36 34 33 33 32 32 32 32 33 33 34 35 35 36 37 38 39 39 40 41 42 44 45 47 48 50 51 53 54 56 57 58 59
22 24 25 27 28 29 31 32 33 33 33 32 31 31 30 29 29 29 29 29 29 30 31 32 33 34 35 36 38 39 41 42 44 46 48 51 53 54 56 58 59 61 61 62
22 23 24 25 26 26 28 29 30 30 29 28 29 29 28 27 27 27 26 26 27 28 28 29 30 32 33 35 37 38 40 43 45 47 50 52 55 57 59 61 63 64 65 66
21 22 23 23 24 25 26 27 28 28 26 25 26 25 25 25 25 24 24 24 25 25 26 27 28 30 32 34 36 38 40 42 44 47 49 52 54 56 59 62 64 66 68 69
19 21 22 22 21 21 23 24 26 26 25 24 24 24 24 24 23 23 22 22 23 24 24 26 28 30 31 33 35 36 38 40 42 44 46 49 52 55 59 62 64 67 68 69
18 19 20 21 21 21 21 22 24 24 23 23 23 24 23 22 21 21 21 21 22 22 23 25 27 28 30 31 33 34 35 37 39 41 43 47 51 54 56 58 60 62 63 64
17 18 18 19 20 20 20 21 21 21 21 22 23 23 22 20 20 20 20 20 20 21 22 24 25 26 28 29 30 31 32 33 35 37 42 44 46 48 50 51 52 52 53 54
16 16 17 17 17 18 19 19 20 20 21 22 22 21 19 18 19 19 19 19 19 19 21 23 24 25 25 26 27 28 28 29 31 35 38 39 41 42 42 41 40 40 40 42
15 15 16 16 16 17 18 19 19 20 20 21 20 19 17 17 17 17 16 16 17 18 19 21 22 23 23 23 24 24 24 26 29 31 32 33 34 34 34 32 30 29 29 31
15 15 16 16 17 17 17 17 18 18 19 19 19 18 17 16 16 15 14 14 15 17 18 20 21 21 21 21 21 21 22 24 25 27 28 28 28 28 28 26 23 21 21 22
14 15 16 16 16 16 16 16 17 17 18 19 18 17 17 16 15 14 13 13 14 16 17 18 19 19 19 19 19 20 20 21 22 23 24 24 24 24 23 20 18 16 15 16
15 15 15 15 16 16 15 16 16 17 17 17 17 17 17 16 15 13 13 13 14 15 16 16 16 17 17 17 18 18 18 18 19 20 21 21 21 21 19 17 15 12 10 8
16 16 16 16 16 15 15 16 16 16 17 17 17 17 17 16 15 14 14 14 14 15 15 15 15 16 16 16 16 16 15 16 17 17 18 18 18 18 16 15 13 11 8 6
18 18 17 17 17 17 16 17 17 17 17 17 18 18 18 17 16 15 14 14 13 14 14 15 15 15 15 15 15 14 14 14 15 15 16 16 16 16 15 14 13 11 10 8
20 19 19 19 18 18 17 18 18 18 17 18 18 19 18 18 17 16 15 14 14 13 14 14 14 14 14 14 13 13 13 13 13 14 14 14 15 15 14 14 13 11 10 8
21 21 20 20 20 19 18 18 19 18 18 18 19 19 19 19 18 16 15 15 14 13 13 13 13 13 13 13 13 12 12 12 12 13 13 14 14 14 14 14 13 12 11 9
22 21 21 20 20 20 20 20 19 20 20 20 20 20 20 20 19 17 16 16 15 14 14 14 14 14 13 13 13 12 12 12 12 13 13 14 14 14 14 13 13 12 11 11
23 23 21 20 20 21 21 20 21 21 21 22 22 22 21 20 20 19 18 17 16 15 15 15 14 14 14 13 13 13 12 12 12 13 13 14 14 14 14 13 13 13 13 13
24 23 22 21 21 21 21 21 22 22 23 23 23 23 22 21 21 20 19 18 17 17 16 16 16 15 14 14 14 14 14 13 13 13 14 15 15 15 14 14 14 14 15 15
26 24 22 21 21 21 21 22 22 23 23 24 24 24 24 23 22 21 20 19 19 18 17 17 17 16 15 15 15 15 15 15 15 15 15 16 16 16 16 16 16 17 17 18

GEFSCGP_500_meanwind_042.txt.gz
Wind_Speed
42 42 42 41 39 40 41 43 44 44 45 44 45 46 46 48 45 42 41 41 41 40 39 38 37 37 36 36 36 36 36 35 35 35 36 36 36 37 38 39 40 41 42 42
40 39 38 39 39 41 43 43 43 43 44 43 44 45 46 47 45 42 41 40 40 40 38 37 37 37 37 36 36 37 37 37 37 37 38 39 39 39 40 41 42 43 45 46
35 36 37 38 39 40 41 42 42 44 42 40 42 45 45 46 45 43 40 40 40 39 38 37 36 36 36 36 36 37 37 38 39 39 39 40 41 42 42 43 44 45 47 48
32 33 34 35 36 38 39 41 41 41 39 38 39 42 44 44 44 43 41 40 39 37 37 36 35 35 35 36 36 37 38 39 39 40 41 42 43 43 44 45 46 46 48 49
31 32 32 33 34 35 38 39 40 39 37 39 39 40 41 42 41 41 40 40 38 37 36 35 35 36 36 36 37 38 39 39 40 41 42 43 43 44 44 45 46 47 48 49
28 30 31 32 33 35 37 38 38 38 38 38 37 37 38 38 37 37 38 38 38 37 37 37 36 37 37 38 39 39 39 40 40 41 42 42 43 44 44 45 46 47 48 49
27 28 30 31 32 33 35 38 38 38 39 38 36 36 37 36 35 35 35 36 37 37 37 37 37 37 38 38 38 39 39 40 40 40 41 41 42 43 44 45 46 47 48 49
25 27 28 29 31 31 33 35 36 37 37 37 36 36 37 35 33 33 34 34 35 35 36 36 36 37 37 37 37 38 38 38 38 39 40 41 42 42 43 43 44 45 46 48
22 23 24 27 29 30 31 33 35 35 35 36 37 36 36 34 32 33 33 33 33 34 34 34 35 35 36 36 36 36 36 37 37 38 39 40 40 41 41 42 42 43 45 47
19 20 22 23 25 28 30 30 31 33 33 34 35 35 36 34 33 33 33 33 33 33 33 34 34 34 34 34 34 35 35 36 36 37 37 38 38 39 39 40 41 42 44 46
18 19 20 21 22 23 25 28 30 32 34 33 33 35 35 33 33 33 33 33 33 33 33 33 33 33 32 33 33 33 33 33 34 35 35 36 37 37 38 39 40 41 44 46
16 17 18 19 19 20 22 24 27 29 31 31 32 34 31 30 31 31 32 32 32 32 32 32 31 31 31 31 31 31 31 32 32 33 34 34 35 35 36 37 38 40 43 45
15 16 18 19 20 20 21 21 24 26 27 28 30 32 27 26 28 29 30 30 30 30 30 29 28 28 28 28 28 29 30 30 31 32 32 32 32 33 34 34 36 39 40 41
16 16 17 18 18 19 19 20 21 23 25 26 28 28 25 24 25 26 27 28 28 27 26 26 25 25 25 26 27 28 29 29 29 29 30 30 31 31 32 32 34 36 37 38
16 16 17 18 19 20 21 21 21 21 21 24 26 27 24 24 24 24 25 26 25 24 24 23 23 23 24 24 25 26 27 27 27 27 28 28 29 30 31 32 33 34 35 35
15 16 17 17 18 19 20 21 21 21 21 22 24 24 23 23 23 24 24 24 23 22 22 21 21 21 22 22 22 23 24 25 25 26 27 28 28 29 30 31 31 31 32 32
15 15 16 16 17 18 18 18 19 19 20 22 22 22 22 21 22 23 22 22 22 21 20 20 19 19 19 20 20 21 22 23 24 25 26 26 27 28 29 29 29 29 29 30
14 15 15 16 16 16 15 16 17 18 20 20 20 21 21 20 21 22 22 21 20 19 19 17 17 17 17 18 19 19 20 21 22 23 24 25 26 26 26 26 26 26 26 26
15 15 15 15 15 14 14 15 16 16 17 18 19 20 20 20 21 21 21 20 19 18 16 16 16 16 16 17 17 18 19 20 21 21 22 22 23 23 23 23 24 24 24 24
15 15 15 15 15 15 13 14 15 16 16 17 18 18 19 20 20 20 20 19 17 16 15 15 15 15 15 16 16 17 18 18 19 19 19 20 20 21 21 21 22 22 22 22
17 17 16 16 16 15 14 15 16 16 15 16 17 18 18 19 19 20 19 18 17 16 15 15 15 15 15 15 16 16 17 17 17 18 18 19 19 19 20 20 21 21 21 20
19 19 19 18 18 16 17 17 17 16 16 17 17 18 18 19 19 19 19 18 17 16 16 15 15 15 15 15 16 16 17 17 17 17 18 18 19 19 19 20 20 20 20 20
21 21 21 21 20 19 19 19 18 18 18 18 18 19 19 19 20 20 20 19 19 18 17 17 17 16 16 16 16 17 17 18 18 18 18 19 19 19 20 20 21 21 21 21
24 24 23 22 21 21 20 20 20 20 20 20 20 20 21 21 21 22 21 21 20 20 19 18 18 18 18 18 18 18 18 19 19 19 19 20 20 20 21 21 21 22 21 21
27 27 26 25 24 23 22 21 21 21 21 21 21 22 22 22 23 23 23 22 22 21 21 20 20 20 19 19 19 19 20 20 20 20 21 21 22 22 22 22 22 23 23 23
29 28 28 27 27 26 24 24 23 22 22 22 22 22 23 23 24 24 24 24 24 23 22 22 22 21 21 21 21 21 21 21 22 22 22 23 23 23 23 24 24 24 24 24

GEFSCGP_500_meanwind_048.txt.gz
Wind_Speed
44 43 43 40 40 39 38 38 39 40 41 42 42 43 42 42 42 41 41 42 43 44 45 44 44 43 42 41 41 40 39 39 38 37 36 35 35 35 35 35 36 36 37 37
41 40 39 38 38 38 37 37 37 38 39 40 41 42 42 43 42 41 40 41 42 43 44 44 44 43 42 42 41 41 41 40 39 38 38 37 37 37 37 37 37 38 39 40
38 38 38 38 38 37 36 35 35 37 38 39 41 42 43 42 43 42 41 41 42 43 44 45 44 43 42 42 42 42 42 41 41 40 39 39 38 38 38 38 39 40 41 42
37 37 37 37 36 35 34 34 34 35 37 38 39 40 40 41 42 42 41 41 42 43 44 44 43 43 42 42 43 43 43 42 42 41 40 40 39 39 40 40 40 41 42 43
34 35 35 34 34 33 33 33 33 33 34 36 38 39 39 41 41 40 41 41 42 43 43 43 43 42 42 42 42 43 42 42 42 41 40 39 39 40 40 41 42 43 44 45
29 31 31 31 32 32 31 32 32 32 34 36 36 38 38 39 38 39 40 41 41 43 43 44 43 42 42 42 42 42 42 41 41 40 40 40 40 41 42 43 44 45 45 46
27 28 28 29 30 31 31 31 32 33 35 35 34 37 35 35 37 39 39 40 41 42 43 44 43 42 42 42 42 42 41 40 40 40 41 41 42 43 44 45 45 45 46 46
25 25 27 27 28 27 29 30 30 31 31 31 33 35 33 34 36 38 39 40 41 42 43 43 43 43 42 41 41 41 41 41 41 42 42 43 44 44 44 45 45 45 45 46
23 24 26 26 26 26 28 28 27 28 29 30 32 32 33 33 34 35 37 37 38 39 41 42 42 41 41 41 41 41 42 42 42 43 43 43 43 43 43 43 43 44 44 44
22 23 25 26 26 26 26 26 27 28 28 29 29 29 30 30 31 33 35 36 37 38 39 39 40 40 41 41 41 42 42 42 42 42 42 42 42 41 42 42 42 42 42 42
21 22 24 26 27 26 26 27 28 28 29 29 28 27 27 28 30 32 33 35 36 37 38 38 38 38 39 39 40 40 41 41 41 40 40 40 40 40 40 41 40 40 40 40
18 20 21 22 23 25 26 27 27 28 29 28 28 28 26 27 28 30 31 33 34 36 37 37 37 38 38 38 38 38 38 38 38 38 38 38 38 38 38 38 38 38 38 37
18 18 19 21 22 23 24 25 26 27 28 28 28 27 26 26 26 27 28 30 32 34 35 36 36 37 37 37 36 36 35 35 35 35 35 36 36 36 36 36 35 35 35 35
18 18 18 19 20 20 21 21 23 25 26 25 24 23 24 25 25 25 26 28 30 32 33 34 34 34 34 34 33 32 32 32 32 32 32 33 33 33 33 33 33 32 32 33
17 17 18 19 19 20 20 21 22 22 22 23 22 23 23 24 24 25 25 26 28 30 30 31 31 30 30 30 29 29 28 28 28 29 29 29 29 30 30 30 30 30 31 31
17 17 18 19 19 19 19 20 20 21 21 21 22 22 21 22 23 23 24 25 26 26 27 27 27 26 26 26 26 26 26 26 26 25 25 25 26 26 27 27 28 28 29 30
14 15 17 18 19 19 17 17 19 19 19 21 21 19 22 21 21 23 25 25 24 24 23 23 23 23 23 23 23 23 23 23 22 22 22 23 23 24 24 25 25 26 27 28
14 15 15 15 17 17 15 16 17 17 19 19 19 21 21 20 20 22 24 24 23 22 21 21 21 21 21 21 21 21 20 20 20 20 20 21 21 21 22 22 23 24 25 26
14 15 15 15 15 14 14 15 15 15 16 18 18 19 20 19 20 21 22 22 21 21 20 20 20 20 20 20 20 20 19 18 18 18 18 18 18 19 20 20 21 22 23 24
15 15 15 15 15 14 14 15 14 14 15 15 16 17 17 17 18 19 21 20 20 20 20 20 20 20 20 19 19 19 18 17 17 16 16 17 17 18 18 19 21 22 23 24
16 16 16 15 15 14 14 14 14 14 13 14 14 15 16 17 18 19 19 19 20 20 21 21 20 20 20 19 18 18 18 17 16 16 16 16 17 18 19 20 21 22 23 24
17 17 17 17 16 15 15 15 15 14 14 14 14 15 16 17 17 18 18 19 20 21 21 21 20 20 19 19 18 17 17 16 16 16 16 17 17 18 19 21 22 23 24 24
19 18 18 18 18 17 17 17 16 16 16 16 16 16 16 17 17 18 19 19 20 21 21 21 21 21 20 19 19 18 17 17 17 17 18 18 19 20 21 22 23 24 24 25
21 21 20 20 20 20 20 19 18 17 17 17 17 16 17 17 17 18 19 20 20 21 22 22 22 22 21 21 20 20 19 19 19 19 19 20 20 21 22 23 24 24 25 26
22 22 23 23 23 23 22 22 21 20 19 19 18 18 18 19 19 20 20 21 21 22 23 23 23 23 23 23 22 22 21 21 21 21 21 21 22 23 24 25 25 25 26 27
23 25 25 25 25 26 24 24 24 23 22 21 21 20 20 21 21 22 23 23 24 24 25 25 25 25 25 25 24 24 24 24 24 24 23 24 24 25 25 26 26 27 27 28

GEFSCGP_500_meanwind_054.txt.gz
Wind_Speed
44 45 46 45 44 43 42 40 40 41 42 42 43 46 47 48 51 53 52 49 49 48 48 48 49 49 48 47 46 45 44 43 43 43 42 41 40 40 39 38 37 37 36 36
41 42 42 43 43 42 40 39 38 38 38 40 41 44 46 48 49 49 50 49 47 47 45 45 46 48 48 47 47 46 45 45 44 44 44 43 42 41 40 40 39 39 38 38
36 38 40 41 41 40 39 37 36 36 36 38 39 42 45 46 47 48 47 45 45 45 44 44 45 45 46 46 46 47 46 45 45 45 44 44 43 42 41 41 40 40 40 40
34 36 39 39 39 38 37 36 36 35 36 37 38 40 41 43 46 46 44 43 41 42 43 43 43 44 45 45 46 46 46 46 46 45 45 44 44 43 42 42 42 41 42 42
32 33 35 37 36 35 34 34 34 34 35 35 36 37 36 39 42 42 42 42 41 40 41 41 42 43 44 45 45 46 46 46 46 46 46 45 45 44 43 43 43 43 44 44
30 31 32 34 34 34 33 33 33 33 34 34 33 33 32 32 34 36 37 40 41 41 41 42 42 42 43 44 45 45 46 47 47 47 47 46 46 46 45 45 45 45 45 45
29 30 31 33 34 34 33 33 33 33 34 33 32 32 28 28 31 33 35 37 40 42 43 43 43 43 44 44 45 45 46 47 47 47 47 47 47 46 46 46 46 46 46 46
27 28 30 32 33 32 32 32 32 32 32 31 30 31 27 27 29 32 35 37 39 41 43 44 44 45 46 46 46 46 46 46 47 47 47 47 47 47 47 46 46 46 46 47
24 25 28 31 31 31 31 31 31 31 31 30 30 28 27 27 29 32 35 37 38 40 42 44 45 46 47 47 47 47 47 47 47 47 47 47 47 48 47 47 47 47 47 48
22 23 26 28 29 30 30 29 29 30 30 29 28 26 25 25 28 31 34 36 38 39 41 43 44 45 46 47 48 48 48 48 48 47 47 47 47 47 47 46 46 47 47 48
20 22 24 26 29 28 27 28 29 29 29 28 27 25 24 25 27 28 31 34 36 38 40 42 44 45 46 47 47 47 47 47 47 48 48 47 47 47 47 47 47 47 48 48
19 20 22 24 26 26 27 27 28 29 29 28 27 24 23 24 25 26 28 31 33 35 37 39 41 43 44 45 45 46 46 46 47 47 47 47 47 47 47 46 47 46 46 46
19 20 21 24 26 27 27 27 27 27 28 28 27 24 22 23 25 26 27 29 31 33 34 36 38 40 41 42 43 43 44 44 45 45 45 45 45 45 45 45 45 44 43 42
18 19 21 23 24 25 26 26 27 29 29 28 25 22 20 22 25 27 27 28 29 32 33 34 35 37 39 39 40 41 41 41 42 42 42 42 42 42 42 42 41 40 40 39
18 19 20 22 23 25 25 26 27 29 28 28 24 23 21 24 27 27 28 28 29 30 31 32 33 35 36 38 39 39 39 40 40 40 40 40 39 39 38 38 37 37 36 35
19 19 20 21 23 24 24 24 25 26 26 26 25 22 21 25 27 27 28 29 29 30 31 32 33 34 34 36 37 37 37 37 37 37 37 37 36 35 35 35 34 33 32 32
17 18 20 21 22 23 22 22 24 25 24 26 25 21 24 26 26 26 27 29 29 31 32 32 33 33 34 35 35 35 35 34 34 33 33 33 33 33 32 31 30 30 29 29
16 17 18 19 21 21 20 21 23 23 23 24 24 22 24 26 26 26 26 27 28 29 31 32 31 32 32 32 32 32 32 32 32 31 31 31 30 30 29 28 28 27 27 26
16 17 17 18 19 19 20 20 21 21 21 23 22 22 23 24 24 23 24 26 26 27 28 29 28 28 29 29 29 29 30 30 30 29 28 28 28 27 27 26 26 25 24 24
17 18 18 17 17 17 18 19 19 20 21 21 21 20 21 21 21 21 25 26 26 26 26 26 26 26 27 27 27 27 27 27 27 26 26 26 26 25 25 24 23 23 22 22
19 19 19 18 18 17 18 18 19 20 20 19 20 19 19 19 20 22 23 23 24 24 24 24 25 25 25 25 25 25 26 25 25 25 25 25 24 24 23 22 22 21 21 22
20 20 20 20 19 19 19 19 19 19 19 19 19 18 18 18 19 20 21 21 21 22 22 23 23 24 24 24 24 24 24 24 24 24 24 24 24 23 23 22 22 22 22 23
21 21 21 21 21 21 21 21 21 20 20 20 19 19 18 18 18 19 19 20 20 20 21 21 21 21 23 23 24 24 24 24 23 23 23 23 23 23 23 22 23 23 23 24
22 23 23 22 22 23 23 23 22 22 21 21 21 20 20 20 19 19 20 20 20 20 21 21 21 21 22 23 23 23 23 24 24 24 24 24 24 24 24 24 24 25 25 26
25 25 25 25 25 25 24 24 24 24 23 23 23 22 22 21 21 20 20 20 20 20 21 21 21 22 22 23 23 24 24 24 24 25 25 25 25 25 25 26 26 27 28 28
27 27 28 27 27 27 26 27 27 26 26 25 25 24 24 23 22 22 21 21 21 21 22 22 22 23 23 24 24 24 25 25 26 26 26 27 27 27 28 28 28 29 30 30

GEFSCGP_500_meanwind_060.txt.gz
Wind_Speed
41 43 42 42 44 45 46 48 47 45 44 45 45 46 47 49 51 53 54 52 51 49 49 49 49 50 49 47 46 46 45 44 45 44 44 43 42 41 40 39 39 38 37 37
38 39 39 40 42 43 44 45 45 43 42 43 44 44 45 46 48 50 52 53 51 50 49 48 48 50 51 50 49 48 48 47 47 47 47 46 45 44 43 42 42 41 40 40
34 36 36 38 40 42 42 42 41 40 40 41 41 42 43 43 45 46 48 51 54 52 51 50 49 49 49 50 50 50 49 48 48 48 48 47 47 47 46 45 45 44 43 43
32 32 32 35 36 38 39 39 38 37 37 37 38 39 40 41 43 44 44 46 50 54 53 52 51 50 49 50 50 50 50 50 50 50 49 48 48 48 48 47 47 46 45 45
28 28 30 33 34 36 37 36 36 36 35 35 35 36 36 38 39 41 42 43 46 50 52 53 53 52 51 50 50 50 50 50 51 51 51 50 49 49 49 48 48 47 47 46
25 26 29 31 33 34 34 34 33 34 34 34 33 33 32 33 34 35 39 42 43 46 48 50 52 52 51 50 50 49 49 49 50 50 50 49 49 49 49 49 49 49 48 47
23 26 28 30 30 32 33 33 32 33 34 34 32 32 30 29 31 33 35 38 42 43 45 46 48 50 50 50 49 49 49 49 49 48 48 48 48 48 48 49 49 48 48 47
21 24 27 28 28 29 31 32 32 32 33 32 30 31 29 27 29 31 32 35 38 40 42 44 45 47 47 47 48 49 49 48 48 48 48 48 48 48 48 48 48 48 48 48
20 23 24 26 27 27 28 30 31 31 30 29 29 29 27 26 27 29 30 32 34 36 38 40 42 44 45 46 47 48 48 48 48 47 47 48 48 48 48 48 48 48 48 48
19 21 23 25 25 26 26 27 29 30 29 28 28 27 26 26 27 28 29 30 32 33 34 36 38 40 42 43 45 46 47 48 48 48 48 48 48 48 49 49 48 48 48 48
17 19 21 23 25 25 25 26 27 28 28 27 27 25 25 26 27 28 29 30 31 33 33 34 36 37 39 41 43 44 45 47 48 48 49 49 50 50 50 50 50 50 50 49
15 16 18 19 21 23 24 24 25 27 26 26 25 24 23 23 24 25 27 29 31 33 34 35 36 37 38 40 41 43 45 46 47 48 48 49 49 50 50 51 51 51 50 50
15 16 17 19 21 22 23 24 24 25 25 25 25 23 21 21 22 25 27 29 31 32 33 34 35 36 38 39 40 42 43 44 45 46 47 48 48 49 49 49 49 48 48 48
15 16 18 19 20 21 22 23 25 26 26 26 24 22 20 22 25 27 28 29 30 31 32 33 34 36 37 38 39 40 41 42 43 44 45 46 46 46 47 46 46 46 46 45
16 17 18 20 21 22 23 23 24 25 25 26 24 23 22 24 27 28 28 28 29 29 31 32 33 33 34 36 37 38 39 40 41 42 42 43 44 44 44 44 44 43 43 42
17 18 19 20 21 23 23 24 24 25 25 25 25 24 25 26 28 28 28 28 28 29 30 31 32 32 33 34 35 36 37 38 39 40 40 41 41 41 41 41 41 41 41 40
17 18 19 20 21 23 23 23 24 25 25 26 26 25 26 26 27 28 29 28 28 28 30 31 32 32 33 33 34 35 36 37 37 38 38 38 39 39 39 38 37 37 37 37
17 19 20 20 21 23 23 23 24 25 26 27 26 25 26 26 27 28 29 28 28 29 30 30 31 32 33 33 34 35 35 36 36 36 36 37 37 37 36 36 35 35 35 34
18 18 19 20 21 22 23 23 24 26 27 27 26 25 25 25 25 27 28 28 28 29 30 30 31 31 32 32 33 33 34 34 35 35 34 34 34 34 34 34 33 33 32 32
18 19 19 19 20 21 22 22 24 25 26 26 25 25 24 24 24 25 27 27 27 27 28 28 29 29 30 31 31 32 32 32 32 32 32 32 32 32 31 31 31 31 30 30
19 19 20 20 21 22 21 21 22 23 24 24 24 24 24 24 24 24 25 25 25 25 26 26 27 28 28 28 28 29 29 30 29 28 28 29 29 29 29 29 29 29 28 28
19 19 20 20 21 22 21 21 22 22 22 22 22 22 22 23 23 23 23 23 23 24 24 24 25 25 26 27 27 27 27 27 27 27 27 27 27 28 28 28 27 27 27 27
20 20 20 21 21 22 21 21 22 22 23 23 23 23 23 23 23 23 22 22 22 23 23 23 24 24 24 25 26 26 25 25 25 26 26 26 26 26 26 26 26 26 26 26
22 22 22 22 22 22 22 22 22 22 22 23 23 23 23 23 23 23 23 22 22 22 23 23 23 23 23 24 24 24 24 24 24 24 25 25 25 25 25 25 25 25 25 25
23 23 23 23 23 24 24 24 24 24 24 24 24 24 24 24 23 23 23 23 23 23 22 23 23 23 23 23 24 23 23 23 23 23 23 24 24 25 25 25 26 26 26 26
22 23 24 24 25 25 25 26 26 26 26 27 26 26 26 25 25 25 24 24 24 24 23 23 23 23 22 22 23 23 23 23 23 23 23 24 24 24 25 25 25 26 27 27

GEFSCGP_500_meanwind_066.txt.gz
Wind_Speed
32 36 36 38 41 44 45 47 48 49 49 48 50 51 49 44 45 45 45 47 48 48 48 49 49 48 48 48 46 45 44 43 42 41 40 39 38 37 37 38 38 38 38 38
29 32 34 37 39 41 44 45 46 45 46 46 45 47 48 45 42 44 45 45 46 47 48 48 48 49 48 48 48 47 46 45 44 43 42 41 40 40 39 39 40 41 42 42
24 29 32 35 37 37 39 41 43 44 43 43 43 42 44 45 41 42 44 45 45 46 47 46 46 47 47 47 47 48 48 47 46 45 45 44 43 42 42 42 42 42 43 44
21 24 29 32 35 35 36 37 39 41 39 38 40 40 41 42 41 41 42 44 45 45 46 46 46 45 46 46 47 48 48 49 49 48 47 46 46 45 45 45 44 45 45 46
18 22 26 29 32 32 32 34 36 37 36 36 37 38 36 38 41 40 40 41 43 45 45 46 46 46 45 46 46 47 47 48 48 49 49 49 49 49 48 47 48 49 48 49
17 21 24 26 29 29 29 31 33 34 35 35 34 35 34 35 37 37 38 39 41 43 45 45 46 46 46 46 46 46 47 47 47 48 49 49 49 49 49 50 50 50 49 49
16 19 21 23 25 27 27 28 30 31 32 33 33 34 32 33 35 35 35 36 38 40 43 44 44 45 46 47 47 48 48 48 48 48 49 49 49 49 49 50 50 50 50 49
14 16 18 20 23 25 25 26 27 28 29 30 32 33 32 33 32 31 32 33 34 36 38 40 41 43 44 46 47 48 49 50 50 50 50 50 50 50 50 51 52 52 51 51
12 13 16 18 21 24 25 26 26 27 27 27 29 30 31 31 30 29 30 31 32 33 35 36 38 39 40 42 45 48 49 50 50 51 51 52 53 53 52 52 52 52 52 51
10 11 14 17 19 21 24 24 24 25 25 24 25 27 29 29 28 28 28 28 29 31 32 33 35 37 37 38 40 43 46 48 49 51 52 52 53 52 52 52 52 52 51 51
9 10 12 15 17 19 22 23 24 24 24 23 21 23 26 27 27 27 27 28 29 30 31 31 33 34 35 36 38 40 41 43 45 47 48 49 50 51 52 52 52 52 52 52
8 9 11 13 15 18 20 22 23 23 23 23 22 22 23 24 24 25 26 28 29 30 30 30 31 32 32 33 35 36 37 39 40 42 43 45 46 48 49 49 50 51 52 52
9 9 11 13 14 16 17 19 20 22 23 23 22 23 22 22 23 24 26 28 29 29 30 30 30 30 31 31 32 33 34 36 37 38 40 41 43 44 46 47 48 48 49 49
11 11 11 12 13 14 15 16 18 21 22 21 21 22 22 23 24 25 26 27 27 28 29 29 30 30 30 31 32 33 33 34 36 37 38 40 41 42 43 45 46 47 47 47
13 13 13 14 14 14 15 17 18 20 21 22 21 22 22 24 25 25 26 26 27 27 28 29 30 31 31 31 32 33 34 35 35 36 37 38 39 40 41 42 43 44 44 45
15 15 15 16 17 17 17 18 19 20 21 22 22 22 23 25 25 25 26 26 27 28 29 30 30 31 31 32 32 32 33 34 35 36 36 37 38 39 39 40 41 41 42 42
17 17 17 17 18 19 20 19 21 22 23 23 24 24 25 25 25 26 27 28 29 29 29 30 31 31 31 31 32 32 32 33 34 35 35 36 37 38 38 39 39 40 40 40
18 18 19 19 20 21 21 21 21 23 24 24 25 26 26 26 26 27 28 28 29 29 30 30 31 32 32 32 32 32 32 33 33 34 35 36 36 37 37 38 38 38 38 38
18 19 20 20 22 23 22 21 22 23 24 24 25 26 26 26 27 28 28 28 29 29 30 30 30 31 31 31 32 32 33 33 33 34 35 35 36 36 37 37 37 37 37 37
18 19 20 21 22 23 23 22 23 25 26 25 26 27 27 27 28 29 29 30 30 30 30 30 31 31 31 31 32 32 32 33 33 34 34 35 35 35 35 35 35 35 35 34
18 19 20 21 22 24 23 23 24 25 26 26 27 27 28 29 29 29 30 30 30 30 30 30 31 31 31 31 31 31 31 32 32 33 33 33 33 33 33 33 33 32 32 31
17 19 20 21 22 23 23 23 24 25 26 26 27 28 28 29 29 30 30 30 31 31 30 30 30 30 30 30 30 30 30 30 31 31 31 32 32 32 32 31 30 30 29 28
16 18 20 22 23 24 24 24 25 26 26 27 27 28 28 29 29 30 30 30 31 31 31 31 30 30 30 29 29 29 29 29 29 30 30 31 31 30 29 28 28 27 27 27
16 18 20 21 23 25 26 26 27 28 28 28 28 29 29 29 29 30 30 31 31 31 31 30 30 30 30 30 29 29 29 29 29 29 29 29 28 28 27 27 26 26 26 26
14 17 19 21 23 25 26 27 28 28 29 29 30 30 31 31 30 30 30 31 31 31 31 30 30 30 30 30 30 30 30 29 29 28 28 28 28 27 27 27 26 24 24 24
15 16 18 19 22 24 26 28 29 29 30 30 31 31 32 32 32 32 31 31 31 32 32 32 31 31 31 30 30 30 30 30 29 28 28 27 27 26 26 26 25 25 24 24

GEFSCGP_500_meanwind_072.txt.gz
Wind_Speed
14 19 23 28 32 37 41 46 48 48 47 48 49 51 50 49 48 47 46 46 45 44 44 44 44 44 41 41 43 43 43 42 40 38 37 36 35 34 34 34 33 33 33 32
12 17 21 26 30 34 39 43 44 45 45 45 47 49 50 48 46 46 44 45 43 42 43 43 43 43 43 41 40 41 42 43 43 43 40 39 38 37 36 36 36 35 35 35
11 16 20 22 26 31 36 39 41 43 43 42 44 48 48 45 45 44 43 42 41 40 39 39 41 41 42 42 42 41 42 43 42 43 44 44 42 41 39 38 38 38 38 38
8 13 18 21 23 27 29 34 37 39 40 41 42 44 47 44 43 42 39 38 38 38 37 37 38 39 40 41 42 43 43 43 44 43 43 43 44 43 42 42 42 41 40 41
8 11 15 18 21 24 25 29 32 34 35 36 40 41 43 44 41 40 36 35 35 35 36 36 37 38 40 40 41 42 43 43 43 44 44 45 44 45 45 44 43 43 43 43
8 9 12 15 17 22 24 25 27 29 31 31 33 38 38 40 39 37 35 34 35 34 35 35 35 36 37 39 40 41 41 42 42 43 44 45 45 45 46 46 46 45 45 46
8 9 11 14 17 20 22 23 23 24 26 27 28 30 32 33 34 34 32 32 33 33 33 34 34 35 35 37 39 41 41 42 42 42 43 44 45 46 46 46 46 47 47 47
7 9 12 14 17 19 21 22 23 25 26 24 25 26 26 28 30 31 31 31 32 32 33 33 33 34 35 37 38 40 41 42 43 43 44 44 45 46 46 46 46 47 47 47
7 9 10 12 14 18 20 20 19 20 23 22 23 24 24 26 26 28 29 31 32 32 33 34 34 34 34 36 37 38 40 41 42 43 44 45 46 47 47 48 48 49 49 50
7 8 8 10 13 16 17 17 18 18 20 21 21 23 23 25 26 26 27 28 31 33 33 34 34 34 35 36 37 38 39 41 42 43 44 45 46 48 49 49 49 50 50 50
6 6 8 9 12 13 15 16 17 18 19 20 20 22 23 24 25 26 28 29 30 31 32 33 34 35 35 36 38 39 40 41 42 43 44 45 46 47 48 49 50 51 51 52
5 7 8 9 10 13 13 13 15 15 16 18 20 21 22 23 25 26 28 29 30 31 32 33 34 35 36 36 37 38 39 40 41 41 42 43 44 45 46 47 48 49 49 50
5 7 8 9 10 12 13 13 14 15 16 17 18 20 21 23 25 26 27 28 30 31 32 32 33 34 35 36 36 37 37 38 39 40 41 42 43 44 45 46 47 47 47 47
6 7 8 9 9 11 13 14 16 17 17 17 17 18 19 21 23 24 26 27 28 29 30 32 33 34 34 35 35 36 36 37 38 38 39 40 41 42 42 43 44 45 45 45
7 8 9 10 11 12 13 14 16 18 18 19 18 19 20 22 23 24 25 26 27 29 31 32 33 34 35 36 36 36 37 37 37 37 37 38 39 39 40 41 41 42 43 43
8 8 10 11 12 13 13 14 16 18 19 20 20 21 22 24 25 26 27 27 29 30 31 32 33 34 35 36 37 37 37 38 38 38 38 38 38 39 40 40 41 41 42 42
9 10 11 12 13 15 15 16 18 18 19 20 21 22 23 25 26 27 28 29 30 31 31 32 33 34 35 36 37 37 37 38 38 38 39 39 39 40 40 40 41 41 42 42
10 11 12 13 15 16 16 18 19 20 21 22 23 24 26 27 28 29 30 30 31 32 33 33 34 35 36 37 37 38 38 38 39 39 39 40 40 40 40 40 40 41 41 41
9 11 12 13 15 17 18 18 20 21 22 23 25 26 27 29 30 31 32 32 33 33 34 34 35 36 36 37 38 38 38 39 39 39 39 40 40 40 40 40 40 40 40 40
8 10 12 13 14 16 18 20 21 23 23 24 25 27 28 29 30 31 33 34 34 35 35 36 36 36 37 37 37 37 38 38 38 39 39 39 39 39 39 39 39 39 39 40
6 8 10 12 14 15 17 19 21 22 23 25 26 28 29 30 31 32 34 35 36 36 37 37 37 37 38 38 37 37 37 38 38 39 39 39 39 39 39 39 39 39 39 38
6 7 9 11 13 14 17 18 20 22 24 25 26 28 29 31 32 33 34 35 36 37 37 38 38 38 39 39 38 38 38 38 38 38 38 39 39 39 38 38 37 37 37 37
6 7 9 10 12 14 16 18 20 22 24 25 27 28 29 30 32 33 34 35 36 37 38 38 39 39 39 39 39 39 39 39 38 38 38 37 37 38 37 37 36 36 36 35
8 8 9 10 11 14 16 18 20 22 25 27 28 29 30 31 32 33 34 35 35 36 37 38 38 38 39 39 39 39 39 39 38 38 38 37 37 37 37 36 35 35 35 34
10 10 10 11 12 14 16 19 21 23 26 28 29 31 32 32 33 33 34 35 35 35 36 36 36 37 37 37 38 38 38 38 38 38 38 37 37 36 36 36 35 35 34 33
12 12 13 13 15 16 18 20 23 25 27 28 30 31 33 33 33 34 35 35 36 35 35 36 36 36 36 37 37 37 38 38 38 38 38 37 37 36 36 35 35 34 33 32

GEFSCGP_500_meanwind_078.txt.gz
Wind_Speed
5 7 11 15 19 23 29 33 35 37 38 40 42 42 44 46 47 48 48 48 48 46 44 42 40 39 37 35 33 32 32 33 35 35 36 35 35 36 35 34 33 32 31 30
4 4 8 13 18 20 26 31 32 34 36 38 40 41 41 45 47 47 47 46 46 45 44 42 39 38 37 36 35 34 33 33 34 34 35 35 36 37 37 35 34 33 33 32
3 3 4 9 15 18 22 27 30 32 35 36 37 38 41 42 44 45 46 44 44 45 44 42 41 39 37 36 34 34 35 34 34 33 35 36 36 36 37 37 36 35 34 34
3 2 0 4 9 14 17 23 28 31 33 34 35 36 38 39 41 44 44 43 42 42 43 41 41 39 38 37 37 36 35 34 34 34 33 34 34 34 35 36 35 36 35 36
4 3 2 2 6 10 14 19 24 27 30 32 32 32 35 34 37 41 42 41 39 40 41 40 40 39 38 37 37 37 36 36 35 36 36 35 35 35 35 35 35 36 36 37
4 5 4 4 7 9 11 17 20 22 26 28 28 29 29 31 34 36 39 40 37 37 39 39 39 39 39 38 38 37 37 37 36 37 37 37 36 36 35 36 36 37 38 38
5 5 5 5 6 8 11 16 18 19 21 23 25 26 24 26 30 32 34 37 36 36 36 37 38 39 38 38 38 37 38 38 38 38 38 38 38 38 38 38 39 39 39 39
5 4 4 5 6 8 11 13 15 16 18 19 20 21 20 21 27 29 31 34 34 33 34 35 37 37 37 37 37 37 37 38 38 38 39 39 39 39 40 41 41 41 40 40
5 4 4 4 5 8 10 11 11 12 14 16 18 18 18 20 24 27 29 31 33 33 32 33 35 36 37 36 37 37 37 37 37 37 38 38 39 39 40 41 42 43 43 42
4 3 4 4 4 6 7 9 10 10 11 13 14 16 17 18 21 24 26 28 32 33 32 32 33 36 37 37 37 37 37 37 37 37 37 38 39 40 40 41 42 43 44 44
3 3 3 4 4 5 6 7 7 8 9 11 12 14 16 17 18 19 22 26 29 31 32 33 33 34 36 37 37 37 38 39 38 38 38 39 40 40 41 42 43 43 44 45
2 3 4 4 4 4 5 5 6 7 9 11 11 13 15 16 17 19 21 24 27 28 31 33 33 35 36 37 38 39 39 40 41 40 40 41 41 42 43 43 44 45 45 46
2 3 3 3 3 3 4 4 5 6 8 10 11 12 14 16 18 19 20 23 26 28 29 31 33 35 37 38 39 41 42 43 44 44 44 44 44 45 45 45 45 46 46 47
2 2 2 2 2 2 3 4 4 5 7 8 10 11 13 16 19 21 22 24 26 28 30 32 34 36 38 40 41 43 44 45 45 46 46 46 46 46 46 46 46 46 47 47
4 3 3 3 2 2 3 4 5 6 7 9 10 11 13 16 18 21 24 26 28 30 31 34 35 37 39 41 42 44 45 46 46 47 47 47 47 47 47 46 46 47 47 47
6 5 5 5 5 5 5 6 6 7 9 10 12 13 15 17 19 21 24 26 29 31 33 34 36 38 39 41 43 44 45 46 47 47 48 47 47 47 47 47 47 46 46 46
7 7 7 7 7 8 8 9 10 11 12 13 14 16 18 19 21 23 25 27 29 31 33 35 37 39 41 42 43 44 45 46 47 47 48 48 47 47 47 47 47 47 46 46
6 8 9 9 10 10 11 12 13 13 14 16 17 19 21 22 24 26 28 30 32 33 35 37 39 40 42 43 44 45 46 46 47 47 48 48 48 48 48 47 47 47 46 46
5 7 8 9 10 11 12 13 14 16 17 19 20 22 24 25 27 29 31 32 34 35 37 38 40 41 42 43 44 45 46 47 47 47 47 47 47 47 47 47 47 47 47 46
4 6 8 9 11 12 12 14 16 17 18 20 22 24 26 27 29 31 33 34 36 37 39 40 41 42 43 44 45 45 46 46 47 47 47 47 47 46 46 46 46 46 46 45
3 4 6 8 9 10 13 15 16 18 19 21 23 25 27 28 30 32 34 36 38 39 40 41 42 43 44 45 46 46 46 47 47 47 47 47 47 46 46 46 45 45 45 44
5 5 5 7 9 10 13 15 16 18 20 22 24 26 28 30 32 33 35 37 38 40 41 42 43 44 45 45 46 46 46 46 46 46 46 46 46 46 46 45 45 44 44 44
6 7 7 8 9 11 13 15 17 20 22 24 26 28 30 32 34 36 38 39 41 42 42 43 44 44 45 46 46 46 46 46 46 46 46 45 45 45 45 45 44 44 44 43
7 8 9 10 11 13 15 17 19 21 23 26 28 30 32 34 36 37 39 41 43 45 46 46 47 47 47 47 47 46 46 46 46 46 46 46 45 44 44 44 44 43 43 42
10 11 12 13 14 16 17 19 21 23 25 27 29 32 34 36 38 39 41 42 44 46 48 48 49 49 49 48 48 47 46 46 45 45 44 45 45 45 44 43 43 42 42 42
12 13 15 16 18 19 20 22 24 26 28 30 32 34 36 38 39 41 42 43 45 46 47 49 49 49 49 49 49 48 48 47 46 45 44 43 43 43 43 43 42 42 42 41

GEFSCGP_500_meanwind_084.txt.gz
Wind_Speed
9 10 9 9 9 8 9 12 12 16 20 24 27 29 30 33 37 40 40 43 47 47 45 43 42 42 40 36 36 40 45 47 48 49 50 49 48 48 49 48 47 44 43 42
7 8 7 7 6 7 8 9 11 13 17 20 22 24 28 31 34 37 39 40 44 45 44 41 40 41 39 36 34 35 38 41 43 45 46 46 46 47 47 48 47 44 43 43
5 5 5 5 5 6 6 8 10 12 15 18 18 19 23 27 31 33 36 38 40 42 42 39 38 40 39 36 35 34 35 35 39 41 42 45 45 44 43 44 43 42 42 41
4 4 2 1 2 4 5 6 8 10 12 15 16 16 18 23 28 31 33 35 38 40 40 38 36 36 36 36 33 33 34 34 34 38 40 42 43 43 42 41 40 41 40 39
7 6 6 4 3 3 3 5 7 8 10 12 14 14 17 19 22 26 29 32 35 38 39 38 35 35 34 33 31 29 31 32 32 32 34 37 39 41 41 41 41 41 42 42
7 8 8 8 6 6 6 6 7 8 9 10 12 13 13 16 20 23 25 28 31 33 35 35 34 34 33 33 30 29 29 28 30 32 33 34 35 37 40 41 44 44 45 45
8 9 9 10 10 9 8 8 9 8 10 10 10 10 11 13 16 19 20 23 26 30 32 34 32 31 31 32 32 30 29 29 29 31 32 33 33 34 35 38 39 40 41 43
8 9 9 10 10 10 9 9 9 9 10 10 10 10 10 11 13 15 18 20 23 27 28 30 30 30 30 31 31 29 30 30 30 31 31 33 34 33 33 34 35 37 38 38
10 10 10 10 10 10 10 11 11 11 11 10 10 9 9 10 12 13 16 18 21 24 25 26 28 31 31 31 30 29 30 30 30 32 33 34 34 35 35 34 34 36 37 38
10 10 10 10 11 11 11 11 11 11 11 9 9 9 9 10 10 11 13 15 19 21 22 23 26 28 31 33 31 31 31 31 32 32 33 34 35 34 35 35 35 36 37 38
11 11 11 11 10 10 11 11 11 9 10 10 9 8 9 10 10 11 13 15 17 19 21 23 25 26 29 32 33 32 32 33 33 34 34 34 36 36 36 36 36 37 37 37
10 10 10 10 9 10 10 10 9 10 10 10 9 8 9 9 10 11 12 15 17 19 21 23 25 26 28 30 32 34 35 35 35 36 36 36 37 38 38 37 37 38 38 38
10 10 10 9 8 8 8 8 8 8 8 8 8 8 8 9 9 10 12 14 17 19 21 24 26 28 29 31 32 34 35 37 37 37 38 39 39 41 41 41 41 41 41 41
10 9 8 8 8 8 8 7 6 6 6 6 6 7 9 9 10 11 12 14 17 19 22 24 26 28 30 32 34 35 37 39 40 40 41 41 43 44 44 44 44 44 44 44
9 8 8 7 6 6 6 5 5 5 5 5 5 6 9 10 11 13 14 16 18 20 22 25 27 29 31 33 35 36 38 40 41 42 43 44 45 46 46 46 46 46 46 46
6 6 6 6 5 5 4 3 3 3 3 4 4 6 7 10 12 14 16 17 20 22 24 26 28 30 32 35 36 38 40 42 43 44 45 46 47 48 48 48 48 48 48 48
4 4 3 3 3 2 1 1 1 2 3 4 5 7 8 10 12 15 17 19 22 24 26 28 31 33 35 37 39 41 43 44 46 47 48 49 49 49 49 49 49 49 49 49
3 2 1 0 1 1 1 2 3 3 4 6 8 10 11 13 15 17 19 22 24 27 29 31 34 36 38 40 42 44 46 47 48 49 50 51 52 51 51 51 52 51 51 51
3 2 2 2 2 2 3 4 4 5 6 8 10 12 13 15 17 19 22 24 26 29 32 34 36 39 41 43 44 46 48 49 51 51 52 52 52 52 52 52 52 52 52 51
3 3 2 2 3 3 4 5 6 7 8 10 12 14 16 17 19 21 24 27 29 32 35 37 40 42 43 45 46 48 49 50 51 51 52 52 52 52 52 52 52 51 51 50
5 4 4 3 3 4 5 7 8 9 10 12 14 16 19 21 23 26 28 30 33 35 37 40 41 43 45 47 48 50 51 53 53 52 52 52 52 51 51 51 51 50 50 50
6 5 5 5 5 5 7 9 10 11 13 15 17 19 21 23 26 28 31 33 36 38 40 42 44 46 47 49 50 52 53 54 54 54 53 53 52 51 51 50 50 50 49 49
6 6 6 6 6 8 9 10 12 14 16 18 20 22 24 26 29 31 34 36 38 40 42 44 46 48 50 51 53 54 55 56 56 55 55 54 53 53 52 51 50 49 49 48
5 6 7 8 9 10 12 13 15 17 19 21 23 25 27 29 32 34 36 38 40 42 44 46 48 50 52 54 55 56 57 57 57 57 56 55 55 54 53 52 51 49 48 48
7 8 9 10 12 13 15 17 19 21 22 25 27 29 31 33 35 37 39 41 43 45 46 48 50 51 52 54 55 55 56 55 55 55 54 54 54 53 52 51 50 49 48 48
9 10 12 13 15 16 18 20 22 24 26 28 30 33 35 37 38 40 42 44 45 47 48 49 51 51 52 53 54 53 53 53 53 52 52 51 51 51 51 51 50 49 48 48

GEFSCGP_500_meanwind_090.txt.gz
Wind_Speed
18 16 15 15 15 13 12 11 11 11 12 13 14 15 17 19 23 27 30 33 34 34 38 40 42 44 45 45 44 44 46 46 48 48 47 49 50 50 51 53 53 53 53 51
13 12 12 11 9 9 8 9 9 8 8 9 10 10 12 15 18 22 24 28 31 33 35 38 40 42 42 42 42 41 42 44 47 47 46 47 49 49 49 51 53 53 51 50
8 7 6 5 5 5 4 4 4 5 5 5 4 4 5 9 13 17 19 23 26 28 29 33 37 39 40 41 40 39 41 43 43 42 42 45 47 48 49 49 51 52 52 52
3 3 2 1 0 1 0 1 1 2 1 1 1 2 1 3 7 11 14 17 22 23 24 28 33 34 35 35 35 36 37 38 38 39 40 42 44 47 48 49 50 51 51 52
1 1 3 3 4 3 4 3 4 4 4 4 4 4 4 2 4 8 9 11 15 18 21 23 27 29 30 31 32 33 35 35 35 35 36 38 42 43 46 48 48 48 47 48
4 4 5 6 7 7 7 7 7 7 7 6 6 5 6 4 5 6 7 9 12 14 16 17 23 26 24 26 28 29 30 33 33 33 31 33 36 39 42 43 43 45 45 45
7 7 7 7 8 8 8 8 9 8 8 8 7 6 6 5 6 6 6 7 9 11 12 14 18 21 21 22 23 23 26 28 28 27 28 29 30 32 36 39 40 41 42 43
9 9 8 9 9 9 8 7 8 7 8 7 7 7 6 5 5 6 7 7 7 8 9 11 13 17 19 20 21 21 23 25 26 26 28 29 29 31 34 37 39 40 41 42
9 9 10 10 9 8 7 8 8 8 8 8 7 6 6 6 7 8 7 6 5 6 7 8 9 12 16 18 18 18 19 22 23 25 27 29 29 30 33 36 38 38 38 39
9 10 11 10 9 8 8 7 8 8 6 7 6 6 6 8 8 8 6 6 6 6 5 6 8 11 13 15 16 17 19 21 21 22 23 26 27 29 31 34 38 39 40 40
10 11 11 11 10 9 9 8 8 9 8 7 6 6 6 7 7 7 6 5 4 5 5 5 6 10 12 15 17 19 20 21 22 23 23 24 25 27 29 32 34 37 38 39
10 11 11 11 10 9 9 9 8 7 8 8 7 5 5 5 5 4 3 2 3 4 5 6 7 10 12 14 17 20 21 23 24 24 25 26 26 26 29 31 33 34 35 36
11 11 10 10 10 9 9 9 8 7 7 6 6 6 5 5 4 2 2 3 4 5 6 7 9 11 13 14 17 20 22 24 25 26 27 28 29 30 31 33 35 35 36 37
10 9 9 9 9 9 8 7 7 7 6 5 5 5 4 3 2 1 2 3 5 7 8 10 11 13 15 16 18 21 24 26 28 29 30 32 33 34 35 36 37 38 39 40
9 8 8 8 8 8 7 6 5 5 4 3 2 2 1 1 1 2 3 4 6 8 9 11 13 14 16 18 20 23 26 28 30 31 33 35 36 37 38 39 40 40 41 42
7 6 6 6 5 5 5 5 4 4 3 2 2 1 1 2 4 5 6 7 8 10 11 13 15 17 19 21 23 25 28 31 33 35 36 38 39 40 41 41 42 43 44 44
5 5 4 4 4 3 3 3 3 3 2 2 3 3 4 5 6 8 9 10 11 12 14 16 18 20 23 25 27 30 33 35 37 39 40 42 44 45 46 46 46 46 47 47
4 4 4 4 3 2 2 2 2 3 3 4 5 6 7 8 9 10 11 13 14 16 18 20 23 25 27 30 32 34 36 38 40 43 44 46 47 48 49 49 50 50 51 50
4 3 3 3 3 3 2 2 3 4 5 6 7 8 9 10 11 13 15 17 19 21 23 25 27 29 32 34 36 38 40 42 44 46 47 49 50 51 52 52 53 53 53 54
4 4 3 3 3 3 4 4 4 5 6 7 9 10 11 13 15 17 19 21 23 25 27 29 31 34 36 38 40 42 44 46 47 49 50 51 53 53 54 55 56 56 56 56
4 4 4 4 4 5 6 6 7 7 9 10 11 13 15 17 19 21 23 25 27 29 31 34 36 38 40 42 44 46 48 49 51 53 54 55 55 56 57 58 58 58 58 58
4 4 5 5 5 6 7 8 9 10 11 13 14 16 18 20 22 24 26 29 31 33 35 37 40 42 44 46 47 49 51 53 55 56 57 58 58 59 59 59 59 59 59 59
5 5 6 6 6 7 8 9 10 12 14 15 17 19 21 23 25 27 29 32 34 36 38 41 43 45 47 50 52 53 55 56 57 58 59 59 59 59 59 59 59 58 58 57
5 6 7 7 8 9 10 11 13 14 16 18 20 22 24 26 29 31 33 35 37 39 41 43 45 48 50 52 54 55 56 58 59 59 59 60 60 59 59 58 57 56 55 55
6 7 8 9 10 11 12 14 15 17 19 21 23 25 27 29 32 34 35 37 39 41 43 46 48 50 51 53 54 56 58 59 60 60 60 60 60 59 58 57 56 55 54 53
8 9 10 11 12 13 15 16 18 20 21 24 26 28 30 32 34 36 38 40 41 44 46 48 50 51 52 54 55 57 58 58 58 58 58 58 58 58 57 56 55 54 53 52

GEFSCGP_500_meanwind_096.txt.gz
Wind_Speed
18 19 19 18 18 17 16 15 15 15 17 17 18 19 18 19 20 22 24 28 30 33 36 40 43 46 49 50 51 51 51 50 49 47 46 46 48 49 50 50 52 52 54 55
13 13 13 12 12 11 11 11 11 11 13 13 12 12 12 13 14 15 17 21 24 28 31 34 37 40 42 45 48 49 50 49 47 46 46 45 47 47 50 50 52 52 52 53
9 8 8 7 6 5 6 6 6 7 7 7 7 5 5 5 6 8 10 14 18 22 26 30 34 36 38 39 42 44 46 46 46 45 45 46 46 46 48 49 50 52 51 51
7 6 6 5 4 4 3 4 4 4 3 3 3 2 1 2 2 3 5 8 12 15 18 22 27 32 33 34 36 39 42 44 44 44 44 45 44 45 45 47 48 50 50 51
8 6 5 4 4 3 2 1 1 1 1 2 3 3 3 2 2 2 2 3 6 8 10 13 18 23 27 29 32 35 38 40 42 42 41 40 40 42 44 45 46 47 48 50
7 6 6 5 4 4 4 4 5 7 7 7 6 6 7 4 3 3 3 4 5 5 5 8 12 16 19 23 27 30 32 35 37 38 38 38 38 39 41 42 44 45 47 49
8 7 7 7 7 7 7 7 7 8 8 8 9 9 8 7 7 7 6 6 6 7 7 6 7 11 13 18 21 24 26 29 31 32 33 34 36 37 37 38 38 39 41 42
9 9 9 8 8 8 9 8 8 8 9 9 9 9 8 9 9 9 9 8 8 8 7 7 6 8 10 13 15 18 18 22 27 29 29 29 31 33 33 35 36 38 39 41
11 11 9 9 9 9 9 9 9 9 9 9 10 9 9 8 8 8 9 9 7 7 7 7 8 8 8 9 10 12 13 17 20 24 25 25 27 29 31 34 35 37 37 38
11 11 10 10 10 10 10 9 9 9 9 8 9 9 8 7 7 8 9 9 7 7 8 8 9 8 7 7 8 9 11 13 16 19 22 23 25 27 29 30 32 34 36 37
11 11 11 11 11 11 10 9 9 10 10 9 9 10 9 9 9 9 9 8 8 7 7 9 9 8 6 5 7 8 9 11 12 15 19 21 24 26 28 28 29 32 35 38
12 12 11 12 11 11 10 9 9 9 9 9 9 10 9 10 9 9 9 8 8 6 6 6 5 5 4 3 3 6 8 11 12 14 17 21 23 25 27 28 29 30 32 34
11 11 10 11 10 9 9 9 9 9 8 8 8 8 7 7 7 7 7 7 6 4 3 1 1 1 3 3 4 6 7 9 11 12 14 18 21 24 26 27 29 30 31 34
9 9 9 10 9 8 8 8 8 8 7 7 7 7 6 6 5 5 5 4 3 2 1 2 2 3 3 4 5 7 8 9 12 14 16 19 21 24 26 28 30 32 33 35
9 8 8 8 7 7 7 6 6 6 5 4 4 4 4 4 3 3 3 3 3 3 3 3 4 5 5 6 7 9 11 13 15 17 20 22 24 26 29 31 33 35 37 39
8 7 6 6 5 5 5 5 4 4 4 3 3 3 3 3 3 3 3 4 4 4 4 5 6 7 8 10 12 14 16 18 20 22 24 26 28 31 33 35 37 39 41 43
5 5 4 4 4 4 3 3 3 2 2 2 2 3 3 4 4 4 5 5 6 7 8 9 10 12 13 15 17 19 21 23 25 27 29 31 34 36 38 40 42 43 45 46
4 3 2 2 2 2 3 2 2 1 0 1 2 2 3 4 5 6 7 8 10 11 12 13 15 17 19 21 23 24 26 28 31 33 35 37 39 40 43 45 46 47 48 49
3 3 2 2 2 2 1 1 1 1 1 2 3 3 4 6 7 8 10 11 12 14 16 18 20 22 24 26 27 29 31 34 36 38 40 42 43 45 47 49 50 51 52 53
2 2 1 1 1 1 0 1 1 2 2 3 3 5 6 8 9 10 12 14 16 18 20 22 24 26 28 30 32 34 36 38 41 42 44 46 47 49 50 52 53 54 55 56
1 1 1 1 1 1 2 2 3 4 5 6 7 8 9 11 12 14 16 17 20 22 24 26 28 30 32 33 35 37 38 41 43 45 48 50 51 53 54 55 56 57 58 59
3 2 3 3 4 5 5 5 6 7 8 9 10 11 13 14 16 18 20 22 24 26 27 29 31 33 34 36 38 40 42 44 46 49 51 53 55 56 58 59 60 60 61 61
5 5 5 6 6 7 7 8 9 10 10 12 13 14 16 17 19 21 23 25 27 29 31 32 34 36 38 40 41 43 46 49 51 53 54 56 58 58 59 61 62 62 63 63
7 7 7 8 8 9 10 11 11 12 13 14 16 17 18 20 21 23 25 27 29 32 34 35 37 39 41 43 45 48 50 53 54 55 57 58 59 60 60 60 61 61 61 61
9 9 9 10 11 12 12 13 14 15 16 17 18 19 21 22 24 26 28 30 32 35 36 38 39 41 43 46 49 52 54 55 56 57 58 58 58 58 58 58 58 58 58 58
11 12 12 12 13 14 15 16 16 17 18 19 21 22 24 25 27 29 31 33 35 37 38 40 42 44 47 50 52 55 56 57 57 57 56 55 55 55 55 55 55 55 54 54

GEFSCGP_500_meanwind_102.txt.gz
Wind_Speed
20 21 21 22 23 23 23 23 24 24 25 26 25 25 25 26 27 27 29 31 33 36 37 40 42 45 48 50 52 54 55 56 58 59 59 59 57 57 56 54 53 52 52 52
16 18 18 18 18 19 19 19 19 20 20 20 21 21 21 21 22 22 23 24 26 28 31 34 36 38 41 44 47 50 52 53 55 57 57 57 57 56 56 55 55 54 53 53
12 12 13 14 14 14 14 15 15 15 14 15 15 15 16 17 17 18 19 19 20 21 23 26 29 31 33 36 40 44 46 48 50 53 55 55 54 53 52 52 52 53 54 53
10 9 9 9 9 8 9 10 10 10 10 11 12 12 12 13 14 15 16 16 16 17 18 21 23 26 28 29 32 34 38 42 45 48 51 53 53 51 49 49 49 50 51 52
7 7 7 7 6 6 6 6 7 8 8 9 9 9 9 10 10 10 11 12 12 12 13 15 18 21 23 25 28 29 32 35 38 41 44 47 48 49 49 48 47 48 50 51
7 7 6 6 5 4 4 4 5 5 5 6 6 6 6 6 6 7 9 9 9 9 10 10 11 15 18 21 24 26 29 31 33 34 38 42 44 45 47 47 47 47 49 50
6 6 6 5 4 3 2 2 2 2 3 2 2 3 3 5 6 6 6 6 5 5 5 5 6 8 11 15 18 21 24 27 28 30 33 36 38 39 41 43 44 46 47 48
6 6 5 4 3 1 1 1 0 0 0 1 2 2 3 5 5 5 5 6 5 3 2 2 2 3 6 9 12 15 18 21 23 26 28 30 32 35 38 40 41 43 44 46
6 6 5 3 2 2 1 1 1 1 2 3 3 3 4 4 5 5 5 5 6 5 4 3 2 1 2 5 7 9 11 14 18 20 23 25 27 30 33 37 38 39 41 42
7 6 6 5 4 4 3 3 3 3 4 4 5 5 5 4 5 5 5 5 5 5 4 4 3 2 2 2 4 5 7 8 11 15 18 21 23 25 28 31 33 35 36 37
7 7 6 6 5 5 5 4 5 5 5 5 6 5 6 5 6 6 6 6 7 6 5 4 3 2 1 2 2 3 5 7 9 12 15 19 21 23 26 28 31 33 34 34
8 7 6 6 6 5 5 5 5 5 5 5 6 6 6 6 6 6 7 7 8 7 6 5 4 3 1 0 1 3 4 6 8 11 14 17 19 22 25 27 29 30 32 34
8 7 6 6 6 6 6 5 5 4 4 4 4 5 5 5 6 6 7 7 7 7 7 6 5 3 2 2 3 4 5 7 9 11 14 17 18 21 24 26 28 29 31 34
7 6 5 5 4 4 4 3 2 2 3 3 4 5 5 6 6 7 7 7 7 7 8 7 6 5 5 5 5 6 7 8 10 11 14 16 19 21 24 27 29 31 33 35
5 4 4 3 2 2 3 3 2 3 3 4 5 6 6 6 6 7 7 7 8 8 8 8 8 8 8 9 9 10 11 12 14 15 16 19 21 24 26 28 31 33 36 38
2 2 1 1 2 3 4 4 4 4 5 6 7 7 7 8 8 8 8 9 9 10 10 10 10 11 11 12 13 13 15 16 18 19 21 22 24 26 29 31 33 36 38 40
2 2 2 3 3 4 5 5 6 6 7 8 8 8 8 9 9 9 9 10 11 12 12 13 14 14 14 15 17 18 19 21 23 25 26 27 29 31 33 35 37 39 41 43
4 4 4 4 5 6 5 6 6 7 7 8 8 9 9 10 10 11 12 12 13 14 15 16 17 17 18 19 20 21 22 24 26 28 30 31 33 35 37 39 41 42 44 46
5 5 5 5 6 6 7 7 8 8 9 9 10 10 11 12 12 13 14 15 16 17 18 18 19 20 20 21 23 25 27 28 30 31 33 35 36 38 40 41 43 45 46 47
6 7 7 7 8 8 8 8 9 9 10 11 11 12 13 14 14 15 16 17 18 19 20 21 22 23 24 25 27 29 31 33 34 35 37 39 40 42 43 44 45 47 49 50
9 10 10 10 11 10 10 11 11 12 13 13 14 15 16 16 17 18 19 20 21 22 23 24 25 26 28 29 31 33 35 36 38 39 41 43 44 46 47 48 50 51 53 54
11 12 12 12 12 13 13 13 14 14 15 16 17 17 18 19 20 21 22 23 24 25 26 27 28 30 32 33 35 36 38 40 42 43 45 47 49 50 51 52 53 55 56 57
13 13 14 14 14 15 15 16 17 17 18 19 20 21 21 22 22 23 24 25 27 28 29 31 32 34 36 37 38 40 41 44 46 48 50 51 52 54 54 55 56 56 56 57
15 16 16 16 17 18 18 19 19 20 20 21 22 23 24 24 25 26 27 28 30 31 33 34 35 37 38 40 42 44 46 48 50 51 52 54 54 55 55 56 56 56 56 56
17 17 17 17 18 19 20 21 21 22 22 23 23 25 26 27 28 29 30 31 32 34 35 37 38 40 41 43 45 47 49 51 52 53 54 55 55 55 54 55 55 55 55 55
18 19 19 19 19 20 20 22 23 24 24 25 26 27 28 30 31 32 32 34 35 36 38 39 41 43 44 46 47 49 51 52 53 54 54 54 54 53 54 54 53 54 54 53

GEFSCGP_500_meanwind_108.txt.gz
Wind_Speed
20 21 21 21 22 22 24 25 26 27 27 28 28 29 31 31 32 33 33 34 35 36 36 38 40 42 43 46 47 49 50 52 54 55 56 56 58 59 60 61 61 61 60 59
15 16 17 18 19 20 21 22 22 23 23 24 25 26 26 27 28 29 29 30 31 32 33 34 35 37 39 41 43 45 47 49 51 52 53 54 54 56 57 58 59 61 61 60
13 13 14 15 15 16 17 18 18 19 19 19 20 21 21 22 23 24 25 26 27 28 29 30 31 33 34 36 37 40 42 44 47 49 51 52 52 52 54 55 56 58 59 59
10 11 12 12 12 12 12 12 14 15 15 15 15 16 17 18 19 20 21 23 24 25 26 27 28 29 29 29 31 33 35 38 41 44 46 47 48 49 50 51 51 53 56 57
8 9 9 9 9 9 9 9 9 11 11 12 13 14 14 14 15 16 17 18 18 20 21 22 22 23 24 25 25 26 27 30 33 37 40 42 43 45 47 48 48 49 51 52
7 7 7 6 6 6 6 7 8 9 9 10 11 12 12 12 12 12 13 14 15 15 15 17 18 19 19 21 21 22 22 24 27 30 34 38 40 41 43 44 45 46 48 49
7 6 5 5 4 4 4 5 6 7 7 8 8 9 9 10 10 11 12 12 12 12 12 13 13 15 16 18 19 19 20 21 23 26 29 33 35 37 38 40 42 43 45 46
7 6 5 4 3 2 3 3 4 4 4 4 5 6 7 8 8 9 9 9 10 10 11 11 11 11 11 12 13 14 15 17 19 22 24 27 30 31 32 35 38 40 41 43
6 5 4 3 2 2 2 2 2 2 2 2 3 3 4 5 6 7 8 9 9 10 10 10 10 10 9 9 10 11 11 13 15 18 20 22 25 27 28 30 33 35 36 37
6 5 4 4 3 3 2 2 1 0 0 1 2 3 4 6 7 7 8 10 10 10 11 10 10 9 8 8 8 8 9 10 12 14 16 19 21 23 25 27 29 31 33 34
7 6 6 5 4 4 3 3 2 2 2 2 3 5 6 7 7 8 9 10 10 11 11 10 10 9 9 8 9 8 8 9 11 12 14 16 18 21 23 25 27 29 31 33
8 7 7 6 5 5 4 3 3 2 2 3 4 5 6 7 8 9 10 10 10 11 12 11 10 10 10 10 9 8 8 8 9 11 12 14 17 20 23 25 27 29 32 34
8 7 6 6 5 4 3 3 3 3 3 4 5 6 7 8 9 10 10 10 11 12 13 13 12 11 10 10 10 9 9 9 10 12 13 14 16 18 21 23 26 28 31 33
6 5 5 5 4 3 3 4 4 4 5 6 7 7 8 9 11 11 11 11 12 13 13 13 12 11 11 11 11 11 11 11 12 14 15 16 18 20 22 24 26 28 31 33
5 4 4 3 3 3 4 4 5 5 6 7 7 8 10 11 12 12 12 12 13 14 14 13 13 13 13 13 13 13 13 14 15 16 17 19 20 22 24 25 28 30 32 34
4 4 4 4 5 5 5 5 5 6 7 8 9 10 11 12 12 13 13 13 14 14 15 15 15 15 15 15 16 16 16 17 17 18 19 20 22 23 25 26 29 31 33 35
6 5 4 4 6 6 6 7 7 8 9 10 10 11 11 12 13 14 14 15 15 16 17 17 17 17 18 19 19 21 21 21 22 22 22 24 25 26 27 29 30 32 34 37
7 6 5 5 6 7 7 8 9 9 10 11 12 12 13 14 15 16 16 16 17 18 18 19 20 20 21 22 23 23 24 24 25 26 27 28 29 30 31 32 34 36 37 39
8 7 7 7 8 8 9 10 10 11 11 13 13 14 15 16 16 17 17 18 19 20 21 22 22 23 24 25 26 26 26 27 28 29 30 32 33 34 35 36 38 39 41 43
8 9 10 10 11 11 11 12 13 13 13 15 15 16 17 17 18 18 19 20 21 22 23 24 25 25 26 27 27 28 29 30 31 32 33 35 36 37 39 40 42 44 45 47
10 11 11 12 12 12 13 14 14 15 16 16 17 17 18 18 19 20 21 22 23 24 25 26 26 27 28 28 29 30 32 33 34 35 36 37 39 41 43 44 46 47 49 50
13 13 13 14 14 14 15 15 16 16 16 17 18 18 19 20 21 22 23 25 26 27 28 29 29 30 31 31 32 34 35 36 37 38 39 40 42 44 46 47 48 50 51 51
16 16 15 16 16 17 17 17 18 18 18 18 19 19 21 22 24 25 26 27 28 30 31 32 32 33 34 35 36 37 38 39 40 41 42 44 45 46 48 49 50 51 52 52
17 18 18 17 18 18 18 19 19 20 20 20 21 22 23 24 26 27 29 30 31 32 33 34 34 35 36 36 37 38 39 40 41 42 44 45 46 48 49 50 51 51 52 52
20 21 20 20 20 20 20 21 21 21 22 23 23 24 25 27 28 29 31 32 32 33 34 35 36 36 36 37 38 39 40 41 43 44 45 46 47 48 49 50 50 51 52 52
21 22 22 21 22 22 22 23 23 23 24 25 25 26 27 29 30 32 32 33 34 34 35 36 36 37 37 38 39 40 42 43 44 45 45 47 48 49 49 50 50 51 51 51

GEFSCGP_500_meanwind_114.txt.gz
Wind_Speed
18 20 21 22 23 25 26 27 28 28 29 30 30 31 32 33 34 35 35 36 37 38 38 38 39 39 40 41 41 42 43 44 45 46 48 49 50 51 52 54 55 55 55 56
13 16 16 17 19 20 22 23 24 26 27 27 28 28 29 29 30 31 32 33 34 34 35 36 36 37 37 37 38 40 41 42 43 44 46 47 48 49 51 52 54 53 53 54
11 12 12 13 15 16 18 19 20 22 24 25 26 25 25 26 27 28 29 30 31 32 32 33 33 34 34 35 35 36 38 39 39 41 42 43 45 47 49 50 51 52 53 52
8 9 10 11 12 12 14 15 17 19 20 21 21 22 22 23 24 25 26 27 28 29 29 29 29 30 31 32 33 34 34 35 36 37 38 39 40 42 44 47 48 49 50 50
6 7 8 9 9 10 11 12 13 15 16 17 18 19 19 20 20 21 22 23 24 25 26 26 27 28 29 30 31 31 32 32 32 33 34 35 36 38 39 41 45 46 48 48
4 5 6 7 7 7 8 9 10 12 13 14 15 16 16 17 17 17 18 19 20 22 23 24 25 26 27 28 28 28 29 29 29 29 30 31 32 33 35 37 40 43 44 46
3 3 4 4 5 5 6 7 8 9 10 11 11 12 13 13 13 14 15 16 18 19 20 21 22 23 23 23 23 24 25 25 26 27 27 27 28 28 30 31 33 37 40 42
5 4 3 3 3 3 4 5 5 6 7 8 9 10 11 11 12 12 13 15 16 17 18 19 20 20 20 20 21 21 21 21 22 23 24 24 25 26 27 29 31 33 36 39
6 4 3 2 1 2 2 3 4 5 6 6 7 8 9 9 10 11 13 14 15 17 17 17 17 18 19 19 20 20 21 21 21 21 22 23 23 24 25 26 28 30 32 34
5 4 3 2 1 0 1 2 3 4 6 7 7 8 9 9 11 12 13 14 15 16 16 16 17 17 18 18 19 19 19 20 20 21 21 22 22 23 23 24 25 27 29 30
5 4 4 3 2 1 1 2 3 5 7 9 9 9 11 11 12 13 14 14 15 15 15 16 16 16 17 17 18 18 19 19 19 19 20 21 22 23 23 24 25 25 26 28
5 4 3 3 2 2 3 4 5 7 8 10 11 10 12 12 13 13 13 14 15 15 15 16 17 17 17 17 18 18 18 18 18 18 18 19 20 22 23 24 25 26 27 28
5 4 4 3 3 4 5 6 7 8 9 10 11 12 13 13 13 13 14 14 15 16 16 16 17 17 17 18 18 18 18 19 19 19 20 20 21 22 23 24 25 26 27 28
5 5 5 5 5 5 6 7 8 9 11 11 11 12 13 14 13 13 14 15 15 16 17 17 18 18 18 18 19 20 20 21 21 21 22 22 22 23 23 25 26 27 27 29
6 6 6 6 7 7 7 8 9 10 11 12 11 13 13 14 14 14 14 15 15 16 17 18 18 19 19 20 20 21 22 22 22 23 23 23 24 25 25 26 27 28 29 30
7 7 7 8 8 8 8 9 10 10 11 12 12 12 14 14 15 16 16 17 17 17 18 18 19 20 21 22 23 23 24 24 24 25 25 26 26 27 27 28 28 30 31 32
9 9 8 8 10 9 9 10 11 12 13 13 13 13 15 16 17 17 18 18 18 19 19 20 21 22 23 24 24 25 25 26 26 26 27 27 27 28 29 29 30 32 33 35
10 11 11 10 11 10 11 12 13 13 14 15 16 17 18 18 18 18 19 19 20 20 21 22 23 24 25 26 26 27 28 29 29 29 29 29 29 30 30 31 32 33 35 36
12 13 13 13 12 11 12 14 15 15 16 17 17 18 18 18 19 19 20 21 21 22 23 24 25 26 26 27 28 29 30 31 32 31 31 31 31 32 32 33 34 35 37 38
14 15 15 15 15 15 15 16 16 17 17 18 18 19 19 20 20 20 21 22 23 24 25 26 27 28 29 29 30 31 32 33 33 33 33 34 34 34 34 35 36 37 37 38
17 17 17 18 18 17 18 19 19 19 19 19 19 19 20 21 22 22 23 24 24 25 26 28 29 30 30 31 32 33 33 34 34 34 35 35 36 37 37 38 38 38 39 39
19 20 20 20 21 21 21 21 21 21 20 20 21 22 22 23 23 24 24 25 26 27 28 29 30 31 32 33 33 34 35 35 36 36 37 37 38 38 39 39 40 40 40 41
22 22 23 23 23 24 24 23 23 24 23 23 24 24 24 25 25 25 26 26 27 28 29 31 32 33 34 34 35 36 37 37 38 38 39 39 40 40 41 41 42 42 42 42
25 26 26 25 24 26 26 26 26 27 26 26 26 27 27 27 27 27 28 29 29 30 32 33 34 35 35 36 37 38 39 39 40 41 41 41 42 42 43 43 43 42 42 43
28 28 28 27 27 28 27 28 28 29 29 28 29 29 29 29 29 30 30 31 32 33 34 35 36 36 37 38 39 39 40 41 42 42 42 43 44 44 44 44 43 43 43 44
28 30 31 29 29 30 28 29 30 31 31 31 31 31 31 32 32 32 33 33 34 35 36 37 37 38 39 40 40 41 41 42 42 43 44 45 45 45 44 43 43 44 45 45

GEFSCGP_500_meanwind_120.txt.gz
Wind_Speed
18 19 19 20 22 23 23 24 26 27 28 28 30 30 31 32 32 32 33 33 34 34 34 35 35 36 37 37 37 37 37 37 38 39 39 41 42 43 44 46 48 49 50 51
15 16 16 17 19 19 20 21 23 24 26 27 28 28 28 29 30 31 32 32 33 33 33 34 35 35 36 36 36 36 36 37 37 38 39 40 41 41 43 45 46 47 48 49
11 13 14 15 16 16 16 18 19 21 22 23 24 25 25 26 27 29 30 31 32 32 33 33 33 33 34 34 35 35 35 36 37 38 39 39 40 40 41 42 45 45 46 47
9 9 10 11 12 14 14 15 17 18 19 20 22 22 22 23 24 25 26 27 28 29 30 31 31 32 32 33 33 34 34 35 36 36 37 37 37 37 38 39 40 42 43 44
7 7 7 8 9 10 11 12 13 14 15 16 17 19 19 20 20 21 22 23 24 25 26 27 28 29 30 30 31 31 32 32 33 33 33 34 34 34 34 34 36 38 40 41
5 5 6 7 7 8 9 10 11 12 13 13 14 15 15 16 16 17 18 20 21 22 23 23 24 26 27 27 28 28 29 30 31 31 31 31 32 32 32 33 33 34 35 37
4 4 4 5 6 6 7 7 8 9 9 10 11 12 12 13 14 15 16 17 18 19 19 21 22 23 24 25 26 27 28 28 29 30 30 30 31 31 31 32 31 32 33 35
3 3 3 3 4 4 4 5 6 7 7 8 9 10 11 12 13 14 15 16 17 17 18 19 21 22 23 23 24 25 26 26 27 28 28 28 29 29 30 31 30 31 33 33
3 3 3 2 2 2 2 2 3 5 6 7 9 9 10 12 13 14 15 16 16 17 17 18 19 20 21 22 23 24 25 25 26 26 27 28 28 29 30 30 31 31 32 32
5 4 3 2 2 1 0 2 3 5 7 8 8 9 11 12 13 14 15 16 16 17 18 19 20 20 21 22 23 24 24 24 24 25 26 27 28 29 29 30 30 31 31 32
6 4 3 2 1 1 2 3 4 5 6 8 9 9 11 12 12 13 14 15 16 17 17 19 20 20 20 21 21 22 22 22 23 24 25 26 27 28 28 29 29 30 31 32
6 5 4 3 2 2 3 4 6 7 7 8 9 9 11 12 13 14 14 15 16 16 17 18 18 19 20 20 21 21 22 23 24 25 26 26 27 28 28 29 30 31 32 32
5 5 4 3 4 4 4 6 7 8 8 9 9 9 11 13 14 14 15 15 15 15 16 16 17 18 19 20 20 21 22 23 24 25 26 26 27 27 28 29 30 31 31 31
5 5 5 5 6 6 6 8 9 9 10 10 10 10 12 14 14 14 15 15 15 15 15 17 18 18 19 20 21 22 23 23 24 24 25 25 26 27 27 29 30 31 32 32
6 6 7 7 8 7 8 9 10 10 11 11 11 11 12 13 13 14 15 15 15 16 16 17 18 18 19 20 21 22 23 24 24 24 25 26 27 28 29 30 31 32 33 33
8 8 8 9 9 9 9 10 10 11 12 12 12 12 13 13 14 14 15 15 16 17 18 18 19 19 20 21 22 23 24 24 24 25 26 27 28 29 30 31 32 33 33 34
10 10 10 10 11 11 11 11 11 12 13 14 14 14 15 15 16 16 16 16 17 18 19 19 20 20 21 22 23 24 24 25 25 27 28 28 29 31 32 33 33 34 34 35
12 13 13 13 13 13 13 14 14 14 15 16 16 17 17 17 17 18 19 19 20 20 21 21 22 22 23 23 24 24 25 25 27 28 29 30 32 32 33 33 34 35 36 36
15 16 16 15 15 15 16 17 18 18 18 19 19 19 19 19 19 19 20 21 22 22 23 23 24 24 24 25 26 26 27 27 28 29 30 31 33 33 34 35 35 36 37 37
19 19 19 19 20 19 19 20 21 21 21 21 22 21 21 21 21 22 23 23 24 24 25 25 26 26 26 27 28 28 29 29 30 31 32 33 33 34 34 35 36 37 37 38
22 22 22 22 22 22 23 23 24 24 24 24 24 24 23 24 24 24 25 25 26 26 27 28 28 29 29 29 29 29 30 31 32 34 35 35 35 35 36 36 37 37 38 38
25 25 25 25 25 25 26 26 27 27 27 27 26 26 26 26 26 26 26 27 27 28 29 29 30 30 31 31 31 31 32 33 34 35 36 37 37 37 37 38 38 39 39 40
27 27 28 28 27 27 28 28 29 29 28 28 28 28 28 28 28 28 28 29 30 31 31 32 32 32 32 33 33 34 34 35 36 37 38 38 38 38 39 39 40 40 41 41
29 30 31 30 29 30 31 30 30 29 29 29 29 30 30 30 30 30 31 31 32 32 33 33 33 34 34 34 35 36 37 37 38 39 40 40 40 40 40 40 41 41 42 42
32 34 34 33 32 33 32 33 33 32 32 32 32 31 31 32 32 32 33 33 33 33 34 34 35 35 35 35 36 37 38 39 39 40 40 41 40 41 41 41 41 42 43 43
33 36 37 36 35 36 34 35 35 35 35 35 35 34 34 34 33 34 34 34 34 34 35 35 36 36 36 36 37 38 39 39 40 40 41 41 41 41 41 41 42 43 43 43

GEFSCGP_500_meanwind_126.txt.gz
Wind_Speed
18 18 19 20 19 20 21 21 23 24 26 27 29 30 30 31 31 31 32 32 33 33 34 34 35 35 36 37 37 37 36 36 36 37 37 38 38 39 40 40 40 41 42 42
16 17 17 17 17 18 19 19 21 23 24 25 26 28 28 29 30 31 31 32 33 33 34 35 35 36 36 36 36 36 36 36 37 37 38 38 38 38 39 40 40 40 41 42
13 14 14 15 16 16 17 18 19 21 22 24 25 26 26 27 29 30 31 32 33 33 34 35 35 35 34 35 35 36 36 36 37 37 37 37 37 38 39 40 40 41 41 41
10 11 12 12 13 14 14 16 17 19 20 21 23 24 25 26 28 29 30 30 31 32 33 33 34 34 34 35 35 35 35 35 35 35 35 36 36 37 37 38 39 39 40 40
7 8 8 9 10 11 12 13 14 16 18 19 20 23 23 25 25 26 27 28 29 30 31 31 32 33 33 33 33 33 33 33 33 34 35 35 35 36 36 37 37 38 39 40
5 6 7 7 8 9 11 12 13 14 16 17 18 19 19 20 21 23 24 25 26 27 29 30 30 31 31 31 31 32 32 33 33 33 33 34 35 36 36 37 37 38 39 39
4 4 5 6 7 8 9 10 12 13 14 15 15 16 17 18 19 21 22 23 24 25 26 27 28 29 30 31 31 31 32 32 33 33 34 34 35 36 36 37 37 37 38 38
3 3 4 5 6 8 9 9 10 12 13 14 15 16 16 17 18 19 20 21 23 24 25 26 27 28 29 29 30 30 32 32 33 34 34 35 35 35 36 36 37 37 37 37
1 2 3 4 5 6 8 9 10 12 13 13 14 15 16 17 18 18 19 20 21 23 24 26 27 28 28 29 30 30 31 32 33 33 34 34 34 35 35 35 35 36 36 37
1 0 1 3 4 5 6 8 9 11 12 12 12 14 15 16 16 17 19 20 21 22 24 25 26 27 28 28 29 30 31 32 32 33 33 33 33 34 34 34 35 35 35 36
3 2 2 2 3 5 6 8 9 10 12 13 12 12 15 16 17 18 19 20 21 23 24 25 25 26 27 28 29 30 31 31 31 32 32 32 33 33 33 34 34 34 34 35
4 4 3 4 5 5 6 8 9 11 12 12 13 12 15 17 18 19 20 21 22 23 24 24 25 26 27 28 29 30 30 30 31 31 32 32 32 32 33 33 33 34 34 35
6 5 5 6 7 8 9 10 11 12 13 13 13 13 16 16 17 18 20 21 22 23 24 25 25 26 27 27 28 28 29 30 31 31 31 32 32 33 33 33 34 35 35 36
8 8 9 9 10 11 11 12 13 14 14 14 14 15 17 19 18 19 20 21 22 23 24 24 24 25 26 27 27 28 28 29 30 31 31 32 32 33 34 34 35 35 35 35
11 11 12 12 13 13 13 13 15 15 16 16 16 17 19 20 20 20 21 21 22 23 23 23 24 25 26 26 26 27 28 29 30 30 30 31 32 33 33 34 35 35 36 36
14 14 14 14 15 15 14 15 16 17 18 18 18 19 21 20 21 21 22 22 23 24 24 24 25 26 26 27 27 28 29 29 29 30 31 32 33 33 33 33 34 35 36 37
16 17 17 16 17 16 16 17 19 19 20 21 21 21 22 22 22 22 23 24 24 25 26 26 27 27 28 28 29 29 29 30 30 31 32 32 32 32 33 34 35 36 37 38
19 19 19 19 20 20 19 20 21 22 23 24 24 24 24 24 24 25 26 26 26 26 27 28 28 29 29 30 30 31 31 31 32 32 32 32 32 33 34 35 36 36 37 39
22 22 23 23 23 23 24 24 25 26 26 27 27 27 27 27 27 28 29 29 29 30 30 30 30 31 32 32 33 33 33 34 33 33 33 34 34 35 36 36 37 38 39 40
25 26 27 27 28 27 28 29 29 29 29 30 30 30 30 31 31 31 31 32 32 33 33 33 33 33 34 34 34 34 34 35 35 35 35 35 36 36 37 38 39 40 40 41
28 29 30 31 31 30 31 32 32 32 32 32 33 33 34 34 34 34 34 34 34 35 35 35 35 35 35 36 36 36 35 35 36 36 37 37 37 37 38 38 39 40 40 41
31 32 32 33 33 33 34 35 35 35 34 35 35 35 36 36 35 36 36 36 36 36 37 37 37 37 37 37 37 37 36 37 37 38 38 38 38 38 39 39 39 39 40 40
34 35 36 36 35 36 37 37 37 38 37 37 37 37 38 38 37 37 37 38 38 39 39 38 38 38 38 38 38 38 38 38 38 39 39 39 39 39 39 40 40 41 41 41
37 38 40 39 38 38 39 39 40 40 40 40 39 39 40 40 40 40 40 40 40 40 39 39 39 38 38 39 39 39 39 39 39 39 39 39 39 40 40 41 41 42 41 41
41 42 43 43 41 42 41 42 42 43 43 42 42 42 42 42 42 42 42 41 41 41 40 40 39 38 39 39 39 40 40 41 40 40 40 40 40 40 41 41 42 42 42 42
42 44 45 45 44 45 44 44 44 44 43 44 44 44 43 43 43 43 43 42 42 42 42 41 41 40 40 40 40 41 41 41 41 41 41 41 41 42 42 42 42 43 42 42

GEFSCGP_500_meanwind_132.txt.gz
Wind_Speed
14 14 15 16 17 18 18 20 21 21 22 24 24 25 25 26 27 28 29 30 30 30 30 30 30 30 30 31 32 32 32 32 33 33 34 35 35 35 35 35 35 35 35 36
12 12 13 14 15 15 16 17 19 20 19 21 22 24 24 24 25 27 28 29 30 30 29 30 31 31 32 32 32 32 33 33 33 34 34 34 34 35 35 35 35 36 36 37
11 11 12 12 13 14 14 15 16 18 19 20 21 22 22 23 24 26 28 28 29 29 29 30 30 31 32 32 33 33 34 34 34 34 34 35 35 35 35 36 36 36 36 37
10 10 10 10 11 11 12 13 14 16 17 17 19 20 21 21 23 24 26 28 28 30 30 31 31 32 32 32 33 34 33 33 33 33 34 34 34 34 35 35 36 35 36 36
9 8 9 9 9 10 10 11 12 14 15 16 17 19 20 21 22 23 24 26 27 29 30 31 31 32 32 32 32 32 32 32 33 33 33 34 34 35 35 35 36 36 37 37
6 6 6 7 7 8 9 10 11 12 14 16 17 18 20 20 21 22 24 25 26 27 28 29 29 29 29 30 31 31 32 33 33 33 34 34 35 35 36 36 36 37 37 37
5 4 4 5 6 7 8 9 10 11 13 14 16 17 19 20 20 21 22 23 25 25 26 27 28 28 28 29 30 31 32 32 33 34 34 35 36 36 37 37 37 37 38 38
2 3 3 4 6 7 8 9 11 12 13 13 15 17 18 19 19 19 20 22 23 24 25 26 27 28 29 30 30 31 32 33 34 34 35 36 37 37 37 37 38 39 39 39
1 2 3 4 5 7 8 9 10 12 13 14 15 17 18 19 20 20 20 21 22 23 24 25 26 27 28 29 30 31 32 33 33 34 35 36 36 37 37 38 39 40 40 40
1 3 4 5 6 6 8 9 10 11 12 12 13 15 17 17 18 19 20 21 22 23 24 26 27 27 28 29 30 31 32 33 34 34 35 36 36 37 38 38 39 40 41 41
2 3 4 4 5 5 7 8 9 10 11 11 12 13 16 17 18 19 19 20 21 22 23 25 26 27 28 29 30 31 31 32 33 34 35 36 37 37 38 39 40 41 41 41
3 3 4 5 6 6 7 8 10 10 11 12 12 13 16 17 18 18 19 20 21 22 23 24 25 26 28 29 30 31 31 32 33 33 34 35 36 37 38 39 40 40 40 40
5 5 6 7 8 8 9 10 11 11 12 12 13 14 17 18 18 18 19 20 21 22 23 24 26 27 28 29 30 31 32 33 33 34 35 35 36 37 38 39 39 39 39 39
7 7 8 9 9 10 10 11 12 13 13 14 14 15 18 19 18 19 19 20 21 23 24 25 27 28 29 30 31 32 33 33 34 35 35 36 36 37 37 38 38 38 39 39
9 9 10 10 11 12 12 13 15 15 16 16 15 17 19 21 21 22 22 23 23 24 26 27 28 29 30 31 32 33 33 34 34 34 35 35 36 36 37 37 38 38 38 39
12 12 13 14 15 15 15 16 17 18 18 19 19 20 22 23 24 24 25 26 26 27 28 28 29 30 31 32 32 33 34 34 34 35 35 36 36 37 37 37 38 38 39 39
15 15 16 16 17 17 17 18 20 21 21 22 23 23 25 26 26 27 27 28 29 30 30 31 32 32 33 33 33 34 35 35 35 36 36 36 37 37 37 37 38 38 38 39
18 19 19 18 19 20 21 22 23 24 25 26 26 27 27 28 28 29 30 31 31 32 33 34 34 34 35 35 35 36 36 37 37 37 37 37 37 37 38 38 38 38 38 39
21 22 23 23 23 23 23 25 26 27 27 28 29 29 29 30 30 31 33 34 34 35 36 36 36 37 37 37 37 37 37 37 37 38 38 38 38 37 38 38 38 38 38 38
24 24 25 26 27 26 26 27 28 29 30 31 31 32 32 33 33 33 35 36 37 38 38 38 38 38 38 39 38 38 38 38 38 38 38 39 39 39 39 39 39 38 39 39
26 27 28 28 29 29 30 31 32 32 33 34 34 35 35 36 36 36 37 38 39 39 40 40 40 40 39 39 39 39 39 39 39 39 39 39 40 40 39 39 39 39 39 39
29 30 31 32 33 33 34 34 35 35 36 37 37 37 38 38 39 39 40 40 41 41 41 41 41 41 41 41 40 40 40 41 41 41 41 41 41 40 40 39 39 39 39 39
33 34 35 36 35 36 37 38 38 39 39 39 40 40 41 41 41 41 41 41 41 41 41 41 41 41 41 42 42 42 42 43 43 43 42 41 41 41 40 40 40 40 40 40
36 37 39 38 38 39 40 41 41 42 42 42 42 43 43 43 43 43 43 43 43 42 42 42 42 42 42 43 43 43 43 43 43 42 41 41 41 41 41 41 40 40 40 40
39 41 42 42 42 43 42 43 44 45 45 45 45 45 45 44 44 44 44 44 44 43 43 43 43 43 43 43 43 43 43 42 41 41 40 41 41 41 41 41 41 41 41 41
41 43 44 45 45 46 46 46 46 47 47 46 46 46 46 46 46 46 45 45 45 44 44 44 44 43 43 43 43 43 43 42 41 41 40 40 41 41 41 41 41 41 41 41

GEFSCGP_500_meanwind_138.txt.gz
Wind_Speed
12 12 13 14 14 14 16 17 18 19 20 21 21 21 21 23 23 24 25 25 25 26 27 28 30 30 30 31 32 32 32 32 33 33 33 33 33 32 33 33 33 33 33 33
11 11 11 12 12 13 13 15 16 17 19 19 20 20 21 22 22 22 24 25 26 27 28 28 29 30 31 31 32 33 33 33 33 33 33 33 33 33 33 33 33 33 33 33
10 9 10 11 11 12 12 13 13 14 16 17 18 19 20 21 22 22 24 25 26 27 28 28 29 29 30 31 32 33 34 34 34 34 34 34 33 33 34 34 34 33 33 33
8 8 9 9 10 10 11 11 12 13 14 16 17 18 19 21 22 22 24 25 26 27 28 28 29 29 30 31 32 33 33 33 34 34 34 34 33 33 33 33 33 33 33 34
6 7 7 8 8 9 10 10 11 12 14 15 16 18 17 19 20 21 23 24 25 27 27 28 29 30 31 32 32 33 33 33 34 34 34 34 34 34 34 34 35 35 36 36
5 5 5 6 6 7 8 10 11 12 13 14 15 17 17 18 19 20 22 23 25 26 27 28 29 29 30 31 32 33 34 34 34 35 35 35 36 36 36 36 36 37 38 38
4 3 4 5 5 6 7 8 10 12 13 14 15 16 17 18 19 20 21 23 24 25 27 27 28 29 30 31 32 32 33 33 34 35 36 36 36 37 38 38 39 40 40 40
1 1 2 3 4 6 7 8 10 12 13 13 15 16 16 18 20 20 21 23 23 24 26 28 28 29 29 30 31 32 32 33 35 36 36 37 38 39 39 40 41 41 41 42
1 2 2 3 5 6 8 9 11 12 13 14 15 16 17 18 20 20 21 22 23 24 26 27 28 29 29 30 30 31 33 34 36 36 37 38 39 40 41 41 42 42 43 43
3 4 4 5 6 7 9 10 11 13 15 15 16 17 17 18 19 19 20 20 21 22 24 25 26 28 29 30 31 32 34 34 35 37 38 39 40 41 42 43 43 44 44 45
6 7 7 7 8 9 10 11 12 14 15 16 17 17 18 18 18 18 18 19 20 22 23 25 26 27 29 31 32 34 35 36 37 38 38 39 40 41 42 43 44 44 45 45
9 9 9 10 10 11 11 12 13 14 15 16 16 16 16 18 18 19 19 20 21 22 23 25 27 28 29 30 31 33 34 35 36 37 38 39 40 41 42 43 44 44 44 45
10 11 11 11 11 12 13 14 15 16 16 16 17 16 17 18 19 20 20 21 22 24 25 27 28 29 30 31 32 33 34 36 37 38 39 40 41 42 43 43 43 44 44 44
12 12 13 13 13 14 14 15 17 17 17 17 17 18 19 21 21 21 22 23 25 26 27 29 30 31 32 33 34 35 36 38 39 40 41 42 42 43 43 43 44 44 44 45
14 14 15 15 16 16 16 17 18 19 19 20 19 21 22 24 24 24 25 27 28 29 30 31 32 33 34 35 36 37 38 39 40 40 41 42 43 43 44 44 44 44 44 44
17 17 17 18 19 18 18 19 20 21 22 23 23 23 25 26 26 27 28 30 31 32 33 33 35 36 37 38 38 39 40 40 41 41 42 42 43 44 44 44 44 44 44 44
20 21 21 21 22 22 21 21 23 23 24 25 25 25 27 28 29 30 31 33 34 35 35 36 37 38 38 40 41 41 42 43 43 43 43 43 44 44 44 44 44 44 44 43
23 24 24 24 24 24 23 24 25 26 26 27 28 29 29 30 31 33 34 35 36 37 38 39 40 40 41 42 42 42 43 43 43 44 44 44 44 45 45 45 44 44 44 43
26 27 27 28 29 28 27 27 27 28 29 29 30 32 33 34 35 36 36 37 38 38 39 40 41 42 43 43 44 44 45 45 45 45 45 46 46 46 45 45 45 45 44 44
29 30 30 31 31 31 30 30 31 32 32 33 34 35 36 37 37 37 38 39 39 40 41 42 43 44 44 45 46 46 46 46 46 46 46 46 46 46 45 45 45 45 44 44
31 32 32 32 33 33 33 34 35 35 36 36 37 38 39 39 40 39 40 40 41 42 43 43 44 45 46 46 47 47 47 47 47 47 47 47 47 46 46 45 45 45 44 44
33 34 34 34 35 35 36 37 37 38 39 39 40 40 41 41 41 42 42 42 43 44 44 45 46 46 47 48 48 48 48 48 48 48 47 47 47 46 45 44 44 44 44 43
35 36 36 37 37 37 38 39 39 40 41 41 42 42 43 43 43 43 44 44 45 46 47 47 47 48 48 48 49 49 48 48 48 47 47 47 46 45 45 44 44 43 43 42
37 38 38 38 38 39 40 41 41 42 43 43 43 44 45 45 45 45 45 46 46 48 48 49 49 49 49 49 49 49 49 48 48 47 46 46 45 44 43 43 43 43 42 41
40 40 41 41 41 42 42 43 44 45 45 45 46 46 46 46 46 47 48 48 49 50 50 50 50 50 50 49 49 49 48 48 47 46 45 45 44 43 43 42 42 42 42 41
41 42 44 44 43 45 44 45 45 46 46 47 47 47 47 48 49 49 50 51 51 51 51 51 51 50 49 49 48 47 47 47 46 45 44 44 43 43 42 42 41 41 41 41

GEFSCGP_500_meanwind_144.txt.gz
Wind_Speed
13 14 15 15 15 16 16 17 18 19 19 20 20 20 21 22 22 23 23 25 25 25 26 26 27 27 28 29 29 31 31 31 31 32 32 32 32 33 34 35 34 34 34 34
12 12 13 14 14 14 14 15 16 17 17 18 18 18 19 20 21 22 23 23 24 25 26 26 26 27 28 29 30 31 32 32 32 32 32 32 33 33 33 34 34 33 33 34
11 12 12 12 12 12 12 13 14 15 16 17 17 18 18 19 21 22 22 23 24 24 25 27 27 28 29 30 31 31 32 32 32 32 33 33 34 34 34 33 33 33 33 32
11 11 11 11 11 11 12 12 12 13 13 15 16 17 18 20 20 21 22 23 23 24 24 26 27 28 29 30 31 31 32 33 33 33 34 34 34 33 33 33 33 33 33 34
9 9 10 10 10 10 10 10 10 10 12 13 14 15 16 18 20 21 22 23 24 25 25 26 27 27 28 29 30 30 32 33 33 34 34 34 33 33 33 33 33 34 35 35
8 8 8 8 8 9 9 9 9 10 11 12 12 14 14 15 18 19 21 22 23 23 24 25 26 26 27 28 29 30 30 31 32 32 32 33 33 32 33 34 35 35 36 37
6 7 7 7 7 7 8 9 9 10 11 11 11 13 13 14 16 18 19 21 22 22 23 24 25 26 27 28 30 31 32 32 32 32 33 33 33 34 35 36 37 37 38 39
4 5 5 6 6 7 8 9 10 11 11 11 12 13 13 14 15 17 18 19 20 22 23 24 25 27 28 29 30 31 32 32 32 33 34 35 35 36 37 38 39 39 40 42
3 4 4 5 6 7 8 9 10 11 12 12 13 13 13 14 15 17 18 19 20 21 22 23 24 25 27 28 29 29 30 30 31 32 34 35 37 37 38 40 41 42 43 44
3 4 4 5 7 7 8 9 11 11 12 13 13 14 14 16 17 17 18 19 20 20 21 21 23 24 26 27 28 29 31 32 32 33 34 35 37 38 39 40 41 43 44 45
4 5 6 7 8 9 9 11 12 13 14 14 15 14 15 16 17 17 18 19 19 19 21 22 24 25 26 27 28 29 31 32 33 34 35 36 37 39 40 41 42 44 45 45
6 7 8 9 10 10 11 12 13 14 15 16 16 15 16 17 18 18 19 19 20 21 22 23 24 25 26 27 29 30 32 33 35 36 37 38 39 41 42 43 44 45 46 46
9 10 11 11 12 13 13 14 15 16 17 17 17 17 18 19 19 19 20 20 21 22 22 23 24 26 27 28 30 31 33 35 37 38 39 40 41 43 43 44 46 46 47 47
12 12 13 14 15 15 14 15 16 17 18 18 17 18 19 20 20 20 20 21 22 23 23 24 26 27 29 30 32 33 35 36 37 39 41 42 43 43 44 46 47 48 48 48
15 15 15 15 15 16 16 17 18 18 19 20 19 20 21 21 21 21 22 23 24 26 26 27 28 30 31 33 34 36 37 38 39 41 42 43 44 45 46 47 48 48 49 49
16 17 17 16 17 18 18 19 20 21 21 21 21 21 23 23 24 24 25 26 27 28 30 31 32 33 34 36 37 39 40 40 41 42 43 44 45 47 48 49 49 50 50 50
18 19 19 19 20 20 19 20 22 22 23 24 24 24 25 25 26 27 28 29 30 31 32 33 35 36 37 38 39 40 41 42 43 44 44 46 47 48 49 50 50 50 51 51
21 21 22 22 22 22 22 22 23 24 25 26 26 26 27 27 28 29 30 31 33 33 34 35 37 38 39 40 41 42 42 43 44 45 46 47 48 49 49 50 50 50 50 51
23 24 25 25 25 24 24 25 25 26 26 27 28 28 29 30 31 32 33 34 35 36 37 38 39 40 41 42 42 43 44 45 46 47 48 49 50 50 50 50 51 51 51 51
26 26 27 27 28 27 27 27 28 29 29 29 30 31 32 33 33 34 35 35 36 38 39 40 41 42 43 44 44 45 46 47 48 49 50 51 51 52 52 52 52 51 51 51
29 29 30 30 31 30 30 30 31 31 32 32 33 33 34 34 36 37 37 38 39 40 41 42 43 44 45 46 47 48 48 49 50 51 51 52 53 53 53 53 52 51 50 50
31 32 32 32 33 32 32 33 33 34 35 36 36 36 37 37 38 39 40 41 42 42 43 44 45 46 47 48 49 50 50 51 51 52 53 53 53 53 53 52 51 51 50 49
33 33 34 34 34 34 35 35 36 37 38 38 38 38 39 40 40 41 41 42 43 44 45 47 47 48 49 49 50 51 51 52 53 53 53 53 53 53 52 51 50 50 49 48
35 35 36 36 35 36 38 39 39 40 41 41 41 41 41 41 42 43 43 44 45 46 47 48 49 50 50 51 51 52 52 53 53 53 53 53 52 52 51 50 49 48 47 47
36 37 38 38 38 39 40 41 41 42 42 42 43 43 43 43 44 44 45 46 47 47 49 50 50 51 51 52 52 52 52 52 53 52 52 51 51 50 49 48 48 47 46 46
37 39 40 41 41 42 42 43 44 44 44 44 44 44 45 45 46 46 47 48 49 49 50 51 51 51 51 51 51 51 51 52 52 51 51 50 50 50 49 48 47 46 45 44

GEFSCGP_500_meanwind_150.txt.gz
Wind_Speed
9 10 11 13 14 15 16 18 18 19 19 20 21 22 22 23 23 24 25 26 27 29 30 30 30 30 29 29 29 30 31 31 31 31 32 32 32 32 33 32 33 33 34 35
8 9 10 12 13 13 14 15 15 17 18 18 19 20 21 21 22 24 25 25 26 27 28 30 31 31 31 30 30 31 31 32 33 33 33 32 33 34 34 34 35 35 35 35
6 8 9 10 12 12 12 12 12 13 15 17 17 18 19 20 21 22 24 25 26 27 28 29 29 31 32 32 32 32 33 33 34 34 34 34 35 35 35 36 36 35 35 34
6 8 8 9 10 10 10 11 12 13 14 15 16 17 18 18 20 21 22 24 25 26 28 29 29 30 32 33 33 33 33 33 33 34 34 35 36 36 36 36 36 35 35 35
6 7 8 8 8 9 9 10 11 12 13 14 15 16 17 18 19 21 22 24 24 26 27 28 30 30 32 32 33 34 34 34 34 34 35 35 36 36 36 37 35 35 36 36
4 5 6 7 8 8 8 9 11 12 13 14 14 16 17 17 18 19 20 22 24 25 26 27 29 30 31 31 32 32 33 33 34 34 34 35 36 36 36 35 34 34 35 35
3 4 5 7 8 8 9 9 10 12 13 13 14 15 16 17 18 19 20 22 23 24 26 27 28 29 30 30 31 31 32 33 33 33 34 34 34 34 34 34 34 35 35 36
3 4 5 6 7 8 9 10 11 12 13 14 15 16 16 17 18 18 19 21 23 24 25 26 27 28 29 30 31 32 33 33 33 33 33 33 34 34 34 34 36 37 38 39
5 5 6 7 7 8 9 10 11 13 14 15 16 16 17 17 18 19 20 21 23 24 25 26 27 28 29 30 31 32 32 32 32 33 33 34 35 35 36 37 38 39 40 41
6 7 7 8 9 10 10 11 13 14 15 16 16 16 17 18 19 20 21 23 24 24 25 27 28 28 29 29 29 30 31 32 32 33 34 35 36 37 38 39 40 41 42 42
7 8 9 10 10 11 12 13 14 16 17 18 18 17 18 19 20 21 22 23 23 24 25 26 27 28 29 30 30 31 31 32 33 34 35 36 38 38 39 40 41 42 42 43
9 10 10 11 12 13 14 15 16 18 18 19 20 18 19 20 21 22 23 23 23 24 25 26 27 28 29 30 31 31 32 33 34 35 36 37 38 39 40 41 42 43 44 44
12 12 13 13 14 15 15 16 18 19 20 20 20 19 20 21 22 23 24 24 25 26 27 28 28 29 30 31 32 33 33 35 36 37 38 39 40 41 42 43 43 44 45 46
15 15 16 16 17 17 17 18 19 20 21 21 20 20 21 23 24 25 25 26 26 28 29 29 30 31 31 32 33 34 35 36 38 39 40 42 43 44 44 44 45 46 47 48
18 18 18 19 20 20 20 20 21 22 22 23 21 22 22 24 25 26 27 27 28 29 30 30 31 32 32 33 34 36 37 38 39 41 42 43 45 46 46 46 47 48 49 51
21 21 21 21 22 23 22 22 22 23 23 24 24 23 24 26 27 27 28 28 28 29 30 31 32 32 33 34 36 37 38 40 41 42 43 44 45 46 47 47 49 50 51 52
24 24 24 24 23 24 23 22 23 23 24 25 25 25 27 27 28 28 30 30 31 31 32 33 34 35 36 37 38 40 41 42 43 44 45 46 47 48 48 49 51 51 52 53
27 27 28 27 27 27 25 25 25 26 26 27 28 28 28 29 29 30 31 32 32 33 34 35 36 37 38 39 40 42 43 44 45 45 46 47 48 49 50 51 52 53 54 55
29 29 30 30 30 29 28 28 28 29 29 29 30 30 30 31 31 32 33 33 34 35 36 37 39 40 41 42 43 44 45 46 47 47 48 49 50 51 52 54 55 55 56 56
32 32 33 33 33 32 31 31 31 32 32 31 32 32 33 33 33 33 34 35 37 38 39 40 41 42 43 44 45 46 47 48 48 49 50 51 53 54 55 56 56 57 57 57
34 34 35 35 36 35 34 34 34 34 34 34 34 34 35 35 36 36 37 38 39 40 41 42 43 44 46 47 47 48 49 49 50 51 52 53 54 55 56 57 57 58 58 57
37 37 37 37 38 37 36 36 36 36 37 36 36 36 37 37 38 39 40 41 42 43 44 45 46 47 48 49 49 50 51 51 52 53 54 55 56 56 57 57 57 58 58 58
39 39 39 39 39 39 39 38 38 38 38 38 38 39 39 40 41 42 43 44 45 46 46 47 48 49 49 50 51 52 53 53 54 55 56 56 57 57 58 58 58 58 58 58
41 41 41 41 40 40 41 41 40 40 40 40 41 42 42 43 44 45 46 47 47 48 49 50 50 51 51 52 53 54 55 55 56 56 56 57 57 58 58 58 58 58 58 58
42 42 43 43 42 43 44 44 43 43 43 43 44 44 45 46 47 48 48 49 50 50 51 51 52 52 53 54 55 55 56 56 56 56 56 57 57 58 57 57 57 57 57 57
42 43 44 44 44 46 45 45 45 46 46 46 47 47 47 48 49 49 50 51 51 52 52 53 53 53 54 54 55 55 56 56 56 56 56 57 57 57 56 56 56 56 56 55

GEFSCGP_500_meanwind_156.txt.gz
Wind_Speed
6 8 10 11 12 12 13 14 15 17 19 19 20 21 22 23 24 23 24 26 26 27 27 27 27 27 29 30 30 30 30 31 32 32 31 32 32 32 31 31 32 33 33 33
5 6 8 10 10 11 11 12 14 15 16 18 18 19 20 22 22 22 22 24 26 28 27 27 28 28 28 29 29 31 32 32 33 33 33 33 34 34 33 33 33 33 34 34
3 4 6 8 8 9 10 11 13 13 14 16 17 18 19 20 21 21 21 23 24 27 27 27 27 27 28 28 29 29 31 31 33 34 34 35 35 35 34 35 34 34 34 34
2 3 4 6 7 8 9 11 12 12 13 15 16 16 17 18 19 20 20 21 23 25 26 27 27 27 28 29 30 31 31 32 32 33 35 36 37 37 36 36 35 36 35 35
1 2 3 5 5 6 8 9 10 11 12 13 14 16 16 17 18 19 19 21 22 24 25 26 27 28 29 29 30 31 32 32 33 34 35 35 36 36 36 35 36 35 36 35
2 3 3 4 5 5 7 8 10 11 12 13 13 14 14 14 16 17 18 20 21 22 23 25 26 27 29 30 31 32 33 34 34 34 34 34 34 35 36 36 36 35 35 35
2 3 4 4 5 6 7 8 9 10 12 12 12 13 14 14 15 16 17 19 20 21 22 24 25 27 28 29 30 32 34 34 35 34 34 34 35 36 36 36 36 36 36 36
3 4 4 4 5 5 6 7 9 10 11 11 12 13 13 13 15 17 18 19 20 22 23 25 26 28 29 30 31 33 34 34 34 34 34 35 35 36 36 37 37 37 37 38
4 5 5 5 5 6 7 7 9 10 10 11 12 12 13 14 15 17 19 20 20 22 24 25 26 28 29 30 31 32 34 34 34 35 35 36 36 37 37 37 37 37 38 39
6 6 6 7 7 7 8 9 10 11 11 12 12 12 13 15 17 18 19 21 22 23 24 26 27 28 29 30 31 33 34 35 35 36 37 37 37 38 39 39 39 40 41 42
8 8 8 8 9 9 9 10 12 13 13 14 14 14 15 17 18 19 20 21 22 23 24 26 27 28 29 30 31 32 34 35 36 37 38 38 38 39 40 41 41 42 43 44
10 10 10 10 10 11 11 12 13 14 15 15 16 15 16 18 19 21 22 22 23 24 25 26 27 28 29 30 31 33 34 35 36 37 38 39 40 40 41 41 43 44 45 46
12 12 13 13 13 13 14 14 16 17 17 17 18 17 18 20 21 22 23 24 25 26 27 28 28 29 29 30 32 33 34 35 36 37 38 39 40 40 41 42 43 44 46 47
15 14 14 15 16 16 17 17 18 19 20 20 19 19 20 22 24 24 25 25 26 27 28 29 29 30 31 32 33 34 35 36 36 37 38 39 40 41 42 43 44 45 46 47
18 18 18 18 18 19 19 20 21 21 22 22 21 21 21 24 25 25 26 26 27 27 28 29 30 31 32 32 33 34 35 36 36 37 38 39 40 42 43 45 46 47 48 49
22 22 21 21 22 22 22 22 23 23 24 24 24 23 24 26 26 27 27 27 28 28 29 30 31 32 32 33 34 35 36 37 37 38 40 41 42 43 45 47 48 48 49 51
24 24 25 25 25 26 25 24 26 26 26 27 27 27 27 28 28 28 29 29 29 30 30 31 32 33 33 34 35 37 38 39 39 40 41 43 44 45 47 48 49 50 51 52
27 27 28 28 28 29 27 27 28 28 28 29 29 29 30 30 30 30 30 31 31 31 32 33 33 34 35 35 37 38 39 40 41 42 43 45 46 48 49 50 51 52 53 54
30 30 31 31 31 31 30 29 30 30 30 30 31 31 32 31 31 31 31 32 32 33 34 34 35 36 36 37 38 39 40 42 43 44 45 46 47 49 49 50 52 53 54 55
33 33 34 34 35 34 32 32 32 33 33 32 32 33 33 32 32 33 33 34 34 35 35 36 37 37 38 39 40 41 42 43 45 46 47 48 49 50 51 52 53 54 55 55
35 36 36 36 37 37 35 34 34 35 35 34 34 34 34 34 34 34 35 35 36 37 37 38 39 40 41 42 42 43 44 46 47 48 49 50 50 51 52 53 54 55 56 57
38 38 38 37 38 38 37 37 37 37 37 36 36 36 36 36 36 36 36 37 38 39 40 41 42 42 43 44 45 46 47 48 49 49 50 50 51 52 53 54 55 56 57 58
40 40 39 39 39 39 39 39 39 39 39 39 38 39 39 39 39 39 40 40 41 42 42 43 44 45 46 47 48 48 49 49 50 50 50 51 52 53 54 55 56 56 57 57
42 41 41 41 39 40 41 41 41 41 41 41 41 41 41 41 41 42 42 43 43 44 45 46 47 48 48 49 49 49 50 50 50 50 51 52 53 54 55 55 55 56 56 57
43 43 42 42 41 42 42 43 43 43 43 43 43 43 43 43 43 43 44 44 45 46 47 48 48 48 49 49 49 49 50 50 51 52 52 53 54 54 54 54 55 55 56 56
43 43 44 43 43 44 44 44 45 45 45 45 45 45 45 45 45 45 45 45 46 46 47 47 47 48 48 48 49 49 50 51 52 52 53 53 53 53 54 54 54 54 55 55

GEFSCGP_500_meanwind_162.txt.gz
Wind_Speed
9 10 10 11 11 12 12 12 13 15 17 18 19 20 22 24 24 26 28 28 29 29 30 31 31 31 31 32 32 32 33 33 33 32 32 32 33 34 33 33 33 33 34 35
9 10 10 10 10 11 12 11 12 14 15 16 17 18 20 21 21 23 25 27 26 27 29 29 30 30 31 31 31 31 31 32 33 34 33 33 34 35 35 36 36 35 35 35
7 8 9 9 10 10 12 12 12 12 14 15 15 16 17 19 21 22 23 25 26 26 27 28 29 29 30 31 31 31 32 31 33 34 34 34 34 35 35 35 35 36 37 36
6 7 8 9 9 9 10 11 12 12 13 14 15 15 14 17 19 21 22 23 25 26 25 27 28 29 29 30 31 31 32 33 33 34 35 35 35 36 36 37 37 37 37 37
7 7 7 8 9 9 10 10 11 11 12 13 14 15 14 15 18 19 20 23 24 25 25 26 27 28 29 30 31 32 32 33 34 35 36 36 35 36 36 37 37 37 37 36
8 8 8 8 8 10 10 10 10 11 12 13 12 13 14 14 15 17 18 20 21 23 24 24 26 27 28 29 30 32 33 33 34 35 36 37 37 37 37 38 38 38 38 38
8 8 8 8 8 9 10 11 11 11 12 13 12 13 13 14 15 16 17 18 19 20 22 24 26 27 27 29 29 30 32 33 34 35 36 36 37 38 38 39 39 40 40 40
9 9 9 9 9 9 10 10 11 12 13 13 13 14 14 13 14 15 16 17 18 19 21 23 25 26 27 28 30 31 32 33 34 35 36 37 37 38 38 39 39 40 40 41
10 10 10 10 10 10 10 11 11 13 13 13 14 14 15 14 14 15 16 17 19 20 21 23 24 26 27 29 31 33 34 34 35 36 37 37 38 38 39 39 40 40 40 40
11 11 11 11 11 11 11 12 12 13 14 15 15 15 16 16 16 17 17 18 20 21 21 23 25 26 27 29 31 33 35 35 36 37 38 39 39 40 40 40 40 41 41 41
12 12 12 13 13 13 13 14 14 15 16 16 16 15 16 16 17 18 19 20 21 22 23 24 25 27 28 29 31 33 35 36 37 37 38 39 40 41 41 42 42 42 43 43
14 14 14 14 14 15 15 16 16 17 17 17 18 17 17 18 19 20 21 22 22 24 25 26 27 29 30 31 32 33 34 36 37 38 39 40 41 41 42 42 43 44 44 45
17 17 16 16 16 16 17 18 18 19 19 19 20 20 20 21 22 22 23 24 24 26 27 28 30 30 31 32 33 34 34 36 37 38 38 39 40 41 42 43 44 44 45 46
19 19 19 19 19 19 19 19 21 22 22 22 22 22 23 24 25 25 25 26 27 28 29 29 30 31 32 33 34 35 36 37 37 38 39 39 40 41 42 43 44 45 46 47
22 22 21 21 21 21 21 22 23 24 24 25 24 24 25 27 27 27 28 28 29 30 30 31 31 32 33 34 34 35 36 37 38 38 39 40 41 42 42 44 45 46 47 48
26 26 25 24 25 25 25 24 25 26 26 27 27 27 27 29 29 30 30 31 31 31 32 33 33 34 34 35 35 36 37 38 38 39 40 41 42 43 44 45 46 47 48 48
29 29 29 28 28 29 28 26 27 28 27 28 29 28 30 31 31 32 32 33 33 34 34 34 35 35 35 36 36 37 38 39 39 40 42 42 44 44 45 46 47 47 48 49
32 32 32 32 31 32 30 30 30 30 30 31 31 31 32 33 33 34 34 35 35 35 36 36 36 37 37 37 38 39 39 40 41 42 43 43 45 46 46 47 48 48 49 49
33 33 34 34 34 34 32 32 32 32 32 32 33 33 34 35 35 35 36 36 36 36 37 37 38 38 38 39 40 40 41 42 42 43 44 45 46 47 48 48 49 49 50 51
35 35 36 36 37 37 35 34 34 35 35 34 35 35 35 36 36 36 37 37 37 37 37 38 39 39 40 41 41 42 43 44 44 45 46 46 47 48 49 49 50 51 52 52
38 39 39 39 39 39 38 37 37 37 37 37 37 37 37 37 37 37 38 38 38 38 39 40 40 41 42 43 43 44 45 45 46 47 47 48 49 49 50 50 51 52 53 53
41 41 41 41 41 40 39 39 39 39 39 39 39 39 39 39 39 39 40 40 40 41 41 41 42 43 44 44 45 45 46 47 48 48 48 49 49 50 50 51 52 53 54 54
42 42 43 43 43 42 41 41 41 41 42 41 41 41 41 41 41 42 42 42 42 42 43 43 44 44 44 45 46 46 47 48 48 48 48 49 50 50 51 52 52 53 55 56
44 44 44 44 43 43 43 43 43 43 43 43 43 43 43 43 43 43 43 43 44 44 44 45 45 45 45 45 46 46 47 47 48 48 49 49 50 51 51 52 53 54 55 57
45 46 46 46 45 45 45 45 44 45 45 46 45 45 45 45 45 45 45 45 45 45 45 46 46 46 46 46 46 46 46 47 47 48 49 50 50 51 52 53 54 55 56 57
45 46 47 47 47 48 47 47 47 47 47 47 47 46 46 46 46 46 46 46 46 46 45 45 45 45 45 45 45 45 46 47 48 48 49 50 51 51 52 53 53 53 54 55

GEFSCGP_500_meanwind_168.txt.gz
Wind_Speed
10 10 10 11 11 11 12 12 13 14 16 18 20 20 21 23 23 23 23 24 27 29 29 29 32 34 34 34 35 36 36 34 33 32 32 31 32 33 33 32 33 33 33 33
9 9 9 10 11 11 12 13 12 13 15 16 17 19 20 21 21 21 22 22 25 28 29 28 30 33 33 33 33 34 34 34 33 33 31 33 33 33 33 33 33 33 33 34
9 8 8 9 9 11 12 13 12 13 13 14 15 17 19 19 20 20 21 22 23 24 26 28 29 31 32 32 32 32 33 34 33 34 34 34 34 34 34 34 34 35 34 34
9 9 9 9 9 10 11 12 13 13 13 13 14 16 16 17 18 19 20 21 22 23 25 26 28 30 30 30 31 32 32 32 33 33 34 34 34 34 33 33 34 35 35 36
10 10 10 9 9 10 11 12 11 11 12 13 14 15 15 16 18 19 20 21 21 22 23 24 25 26 28 29 30 31 32 33 34 34 34 35 35 35 34 35 36 37 37 38
10 10 10 9 9 10 10 11 11 11 12 13 13 15 14 15 15 17 19 20 20 20 21 22 24 25 26 27 28 29 31 33 34 35 35 34 34 35 36 36 36 37 38 38
10 10 10 9 9 9 10 10 10 11 12 13 13 14 14 14 14 15 17 18 19 21 21 23 24 25 26 26 27 28 30 32 34 35 35 34 34 36 36 37 38 39 39 39
10 10 10 10 10 10 11 11 12 12 13 13 13 14 14 14 14 14 15 17 18 18 19 20 22 24 26 26 27 28 30 32 33 34 35 36 36 37 38 39 39 40 40 40
11 11 10 10 10 11 11 12 13 14 14 14 14 14 14 14 14 14 16 17 18 19 19 20 20 22 24 25 27 29 30 31 33 34 35 37 38 38 39 40 41 41 42 43
12 12 12 11 12 12 12 13 13 14 15 15 15 15 14 14 14 15 16 17 18 19 20 22 22 22 23 25 27 28 29 31 32 34 36 37 39 40 41 41 42 42 43 44
13 13 13 13 13 13 13 13 14 15 16 16 16 15 15 15 15 15 15 16 18 19 20 22 23 24 24 25 26 28 30 31 33 35 37 39 40 41 42 43 44 44 44 45
14 14 14 14 14 14 14 15 16 17 17 17 17 16 15 16 16 16 16 17 18 20 21 22 24 25 26 27 28 29 31 32 34 35 36 38 39 40 42 43 44 44 45 46
16 16 16 16 16 16 16 17 18 18 19 19 19 18 17 17 17 17 18 19 20 21 22 23 24 26 27 28 30 31 33 34 36 37 37 38 39 40 41 42 43 44 45 45
18 18 18 18 19 19 19 20 20 21 21 21 21 20 18 19 20 20 21 21 22 23 24 25 27 28 29 30 31 33 34 35 36 37 38 39 40 41 41 42 43 44 45 45
21 21 21 20 21 21 21 22 22 23 23 24 23 22 21 22 23 23 23 24 24 26 27 28 29 30 31 32 33 34 35 36 37 38 39 40 41 41 42 43 44 44 45 46
24 23 23 22 22 23 23 23 24 25 25 25 25 24 24 25 25 26 26 26 27 28 29 30 31 32 33 34 35 35 36 36 38 39 40 41 41 42 43 44 44 45 46 47
26 26 26 25 25 26 25 24 25 26 26 26 26 25 26 27 28 28 28 29 30 30 31 32 33 33 34 35 36 36 37 38 39 40 41 42 43 43 44 45 45 46 47 47
28 28 28 29 28 28 27 27 27 28 28 29 29 29 29 29 30 30 31 31 32 32 33 34 34 35 36 37 37 38 39 40 41 41 42 43 44 44 45 45 46 47 47 47
29 30 30 31 31 30 29 29 30 30 30 30 30 30 31 31 32 32 32 33 33 34 35 35 36 36 37 39 40 40 40 41 42 42 43 44 44 45 46 46 46 47 47 48
32 32 33 33 33 33 32 32 31 32 32 31 32 32 33 33 33 33 34 34 34 34 35 36 37 37 38 39 40 41 41 42 42 43 44 44 45 45 46 46 47 47 47 48
35 35 36 36 36 35 34 34 34 34 34 34 34 34 35 35 35 35 36 36 36 36 36 37 38 38 39 40 41 41 42 43 44 44 44 45 45 46 46 46 47 47 47 48
37 38 38 38 38 37 36 36 36 36 36 36 36 36 36 36 37 37 37 37 38 38 38 39 39 40 40 41 42 42 43 44 45 45 45 45 46 46 46 47 47 47 48 49
40 41 41 41 40 40 39 39 39 40 40 40 39 39 39 39 39 39 39 39 40 41 41 41 42 42 42 43 43 44 44 44 45 45 45 46 46 46 46 47 47 48 48 49
42 43 43 42 41 41 41 42 42 43 43 42 42 42 42 42 42 42 42 42 43 43 43 43 43 43 43 43 44 44 44 45 45 45 45 45 45 46 46 46 47 48 48 49
44 44 44 44 43 43 43 43 44 45 45 45 45 45 45 45 45 45 45 45 44 44 44 44 44 44 44 44 44 44 44 44 45 45 44 44 45 45 46 47 47 48 49 50
43 43 44 44 44 45 45 44 45 46 46 47 47 47 47 47 47 47 46 46 46 45 45 45 45 45 45 45 45 45 45 45 45 45 45 45 45 46 47 48 48 49 49 50

GEFSCGP_500_meanwind_174.txt.gz
Wind_Speed
12 12 13 13 13 14 15 16 17 17 17 18 19 20 21 23 24 25 25 26 27 28 29 29 30 31 30 32 33 35 36 36 36 36 34 34 36 36 34 35 34 35 35 35
12 12 13 13 13 13 14 15 16 15 16 17 17 18 19 21 23 24 24 24 24 26 27 28 30 31 30 30 32 34 35 38 38 38 36 35 36 36 35 34 35 35 35 35
13 12 13 13 12 13 14 14 15 15 15 17 17 17 19 20 21 22 23 23 23 24 25 25 27 29 30 29 31 33 34 36 38 38 36 34 35 37 37 35 35 36 36 37
13 13 13 13 12 13 13 14 14 15 15 16 17 18 17 18 19 20 21 22 22 23 24 24 25 26 28 30 31 31 33 35 36 36 35 34 35 36 37 36 35 37 36 36
14 13 12 12 12 13 13 14 14 14 15 16 17 18 16 17 18 18 19 20 21 21 23 25 25 25 26 29 30 31 33 35 36 35 35 34 34 35 36 37 35 36 37 36
14 13 13 12 13 13 13 14 15 15 16 16 16 17 17 16 16 18 18 19 20 20 22 24 25 25 26 27 28 29 32 34 35 34 34 35 35 36 36 37 36 36 37 38
14 14 13 13 13 14 14 15 15 16 16 16 16 17 17 15 16 17 18 19 20 21 22 24 26 26 26 27 28 29 30 32 34 35 35 35 36 37 37 38 38 38 37 38
14 14 14 14 14 14 14 15 16 16 17 16 15 16 16 15 16 17 18 19 21 21 23 24 25 26 27 27 27 28 30 31 33 34 35 35 35 36 37 38 39 40 41 41
15 15 15 15 15 15 15 14 15 16 17 17 16 16 16 16 17 17 19 20 21 23 23 24 25 26 27 29 29 29 30 31 32 34 34 34 35 36 37 38 39 40 42 42
17 17 17 16 15 15 15 15 16 16 17 17 17 17 16 16 17 18 19 20 21 23 24 24 25 26 27 28 29 29 30 31 32 33 34 35 36 37 37 39 40 41 42 42
18 18 17 17 16 16 16 16 16 17 18 18 19 18 17 17 18 18 18 19 21 23 24 25 26 27 27 27 29 29 29 30 32 33 35 36 37 38 39 40 41 41 42 43
20 20 18 18 18 18 17 18 18 18 19 20 20 19 18 18 18 18 18 19 21 23 24 26 27 27 29 29 30 30 31 32 33 34 35 36 37 39 40 41 41 42 42 43
22 22 21 20 20 20 19 19 19 20 20 21 22 20 19 19 19 19 19 20 22 23 24 26 27 28 30 31 32 33 34 34 34 35 37 37 38 39 40 41 42 42 43 44
25 24 23 23 23 22 21 21 21 22 22 22 22 21 21 21 22 22 22 22 23 25 26 27 28 30 31 32 33 34 35 35 36 37 38 39 39 40 41 42 43 43 44 45
27 26 25 25 25 24 24 23 23 23 23 24 23 23 23 24 24 24 24 24 25 26 27 28 29 30 32 33 34 34 36 37 38 38 39 39 40 41 42 43 44 44 45 46
29 29 28 27 27 27 26 26 26 25 25 25 25 24 25 26 26 26 27 27 28 29 29 30 31 32 32 33 34 35 36 37 39 39 40 41 41 42 43 44 44 45 45 46
32 32 31 30 30 30 29 28 28 28 28 28 28 26 27 27 28 28 29 29 30 30 31 32 32 33 34 34 35 36 37 38 39 40 41 42 43 43 44 45 45 46 47 48
33 32 33 33 32 32 31 30 30 30 30 30 30 29 29 29 30 30 31 31 31 31 31 33 33 34 35 36 36 37 38 39 40 41 42 43 43 44 45 46 46 47 48 49
35 34 35 34 34 34 32 32 32 32 32 32 32 31 31 32 32 32 32 32 32 33 33 34 35 36 37 37 38 39 39 40 41 42 42 43 44 45 46 46 47 48 48 49
37 37 37 37 37 37 35 34 34 35 35 34 34 34 35 35 34 34 33 34 34 34 35 35 36 37 38 39 40 40 40 41 42 43 44 44 45 46 47 47 48 48 49 49
39 39 38 38 39 39 38 37 36 36 36 36 36 37 37 37 37 36 36 36 36 36 37 37 38 39 39 39 40 41 41 42 44 45 45 45 46 46 47 48 48 49 49 50
40 40 40 39 39 39 38 38 38 38 38 38 39 39 39 39 39 39 39 39 39 39 39 40 40 41 42 41 42 42 42 44 45 45 45 46 46 47 47 48 49 50 51 51
42 41 41 40 40 40 39 40 40 40 41 41 42 42 41 41 41 41 41 41 41 42 42 43 43 43 43 43 44 44 44 45 45 45 46 46 46 47 47 48 48 49 50 51
43 42 42 42 41 40 40 41 42 42 43 43 43 43 43 44 44 44 44 43 43 44 45 46 46 46 46 46 46 46 46 47 47 47 47 48 48 48 48 48 49 49 50 50
44 44 44 44 43 44 43 43 43 44 44 44 44 45 45 46 46 45 45 45 46 46 46 47 47 48 48 48 48 47 47 48 48 48 48 48 48 49 49 49 49 49 49 49
44 44 45 45 44 45 45 45 46 46 46 46 47 46 47 47 47 47 47 47 47 47 48 48 48 48 48 48 48 48 48 48 48 48 48 48 48 48 48 48 48 48 48 49

GEFSCGP_500_meanwind_180.txt.gz
Wind_Speed
15 15 15 15 16 16 16 15 16 16 17 18 18 18 19 20 20 21 23 23 24 25 26 27 28 30 32 32 32 32 33 34 35 36 37 37 38 37 39 38 38 38 39 37
16 16 15 15 16 15 15 15 15 15 15 16 16 17 17 17 18 19 21 21 23 23 25 26 27 28 28 31 31 31 32 32 34 36 37 37 38 38 38 38 37 37 38 37
16 16 15 16 16 15 15 15 15 16 15 14 15 15 15 15 17 18 19 20 20 21 22 23 24 26 27 29 30 30 30 32 33 35 36 37 37 38 38 38 37 37 38 38
17 16 15 15 16 16 15 15 15 15 16 14 15 15 14 15 16 16 17 19 19 19 20 21 22 24 26 27 28 29 30 31 33 34 35 36 36 37 38 38 38 37 38 38
17 16 15 15 16 15 15 15 15 15 15 15 15 15 14 15 15 15 16 17 18 19 20 21 21 22 24 25 26 28 30 30 31 33 34 35 36 37 38 38 38 38 38 40
17 17 16 16 15 15 15 15 16 16 16 15 14 14 15 15 14 14 15 17 18 19 21 21 21 22 23 24 26 27 29 29 30 31 33 34 36 36 37 38 38 38 38 39
18 18 18 17 16 16 16 16 16 16 16 16 15 15 14 14 14 14 15 16 17 18 20 21 22 22 23 24 25 27 28 29 29 30 32 32 34 35 37 37 37 36 36 37
20 19 19 19 18 18 17 17 17 17 17 17 16 16 14 14 14 14 15 16 17 19 20 21 22 22 23 25 25 26 26 28 29 30 31 32 33 35 35 35 36 37 37 38
21 21 20 20 20 19 18 18 18 18 18 18 16 16 15 15 14 14 15 16 17 18 20 21 22 23 24 24 25 25 26 28 29 29 30 32 33 34 35 36 37 38 39 39
22 22 21 21 21 20 20 19 18 18 19 19 18 17 16 14 14 15 16 16 17 18 20 21 22 24 25 26 26 26 26 28 29 30 30 31 33 35 35 36 38 39 40 41
23 23 23 23 22 22 21 20 19 19 20 20 20 18 18 16 15 15 17 18 18 19 20 22 23 24 25 27 27 27 29 29 29 30 31 32 33 35 36 36 38 39 40 40
24 24 24 24 23 23 23 22 21 21 20 20 20 20 19 18 17 17 17 18 18 19 20 22 23 24 25 26 27 28 28 30 31 32 32 32 33 35 37 38 38 39 40 41
25 26 26 26 25 24 24 24 23 23 22 20 20 20 21 20 19 19 19 19 20 21 21 22 22 24 25 26 27 29 30 30 31 32 33 35 36 37 38 38 39 40 41 42
28 28 28 28 27 27 26 25 24 24 24 23 21 21 21 22 21 21 21 22 22 22 23 23 24 24 25 27 29 30 31 32 32 33 35 36 37 38 38 39 40 41 42 42
31 30 30 29 28 29 28 27 26 26 25 25 24 24 23 23 23 23 23 23 23 24 24 25 25 26 26 27 29 31 32 32 33 34 35 36 38 39 40 41 42 42 42 43
32 32 32 31 30 30 30 29 28 27 27 27 27 27 26 26 26 26 26 26 26 25 25 26 27 27 28 28 29 31 32 33 34 35 36 37 38 39 41 41 42 43 44 44
33 34 34 33 32 32 31 30 29 28 28 29 29 28 28 28 28 28 28 28 27 28 28 28 28 29 29 29 30 31 33 34 35 36 38 38 39 40 40 41 42 43 44 45
36 36 36 36 35 34 32 30 30 30 29 30 30 30 30 30 30 30 30 30 30 30 30 30 30 30 30 31 32 33 33 34 35 37 38 39 40 40 40 41 42 43 44 45
37 37 37 37 36 35 33 32 31 31 30 30 30 30 30 30 30 30 31 31 31 31 31 31 31 31 31 32 33 34 34 35 36 37 37 38 39 40 40 40 41 42 44 45
38 38 38 38 38 37 35 33 32 32 32 31 30 30 30 30 30 30 31 31 31 32 32 32 33 33 34 34 35 35 36 36 37 38 38 39 39 40 40 41 43 43 45 46
38 38 38 38 38 37 36 35 34 34 34 32 32 32 32 32 32 32 32 32 32 32 33 33 34 34 35 35 36 36 37 37 38 39 39 40 40 41 42 43 44 45 46 47
39 39 39 39 39 38 37 36 36 36 35 35 34 34 34 34 34 34 34 34 34 34 35 35 36 36 37 37 37 38 38 39 39 40 41 41 42 42 43 43 44 45 46 47
39 39 39 39 38 38 38 38 38 38 38 37 36 36 36 36 36 36 36 36 36 37 37 37 38 39 39 39 39 39 40 40 41 42 42 43 43 43 44 44 45 45 46 47
40 39 39 39 38 37 37 38 38 39 39 39 38 38 37 38 37 38 38 38 38 38 39 39 39 40 40 41 41 41 42 42 42 43 43 44 44 45 45 45 45 46 46 47
41 40 40 39 38 38 38 38 38 38 39 39 39 39 39 40 40 40 40 40 40 41 41 41 41 41 41 42 42 42 43 43 43 43 43 44 44 45 45 45 45 45 46 47
41 40 40 39 38 39 39 39 39 39 39 39 40 40 40 41 41 41 42 42 42 43 42 42 43 43 42 42 42 43 43 43 43 43 44 44 44 44 44 45 45 45 46 47

GEFSCGP_500_meanwind_186.txt.gz
Wind_Speed
20 20 20 20 20 20 20 20 19 19 19 20 20 19 19 19 21 21 22 23 24 25 26 26 27 28 28 29 31 31 31 33 34 35 35 34 36 37 37 38 39 39 40 40
21 20 20 20 21 20 20 20 19 19 19 20 20 19 20 20 19 20 21 22 22 23 25 25 27 28 28 28 29 29 29 30 33 35 36 35 34 36 37 38 38 39 40 41
21 21 20 20 20 20 20 20 20 20 20 20 20 19 20 20 19 19 20 21 22 23 24 25 26 27 27 27 27 28 28 29 31 33 34 34 35 35 36 36 37 38 39 40
22 21 21 20 20 21 20 20 20 20 20 20 20 21 19 20 20 20 20 20 21 22 22 23 24 25 26 27 28 28 27 27 29 30 31 32 32 33 35 36 37 37 38 38
23 21 21 20 20 21 21 21 21 21 20 20 20 21 19 20 20 20 20 20 21 21 21 22 23 24 25 26 26 27 27 27 28 29 30 30 30 31 33 34 36 36 37 38
24 22 22 21 21 21 21 20 21 21 21 20 20 21 20 20 20 20 20 20 21 22 21 21 22 23 25 26 26 26 26 26 27 27 28 29 30 30 31 32 34 35 35 36
25 23 23 22 21 21 21 21 21 22 21 20 21 22 21 21 21 20 20 21 21 22 22 21 22 23 24 25 25 25 26 27 27 27 28 29 30 30 32 33 34 35 36 36
27 25 24 23 22 22 21 22 22 23 23 22 22 23 22 21 22 22 21 21 21 21 22 22 22 23 24 26 27 27 27 27 28 28 29 30 30 31 31 32 32 34 35 36
28 27 25 24 23 22 22 22 22 23 23 23 23 23 22 22 22 22 22 21 21 22 22 23 23 23 24 25 27 27 27 27 28 29 30 30 31 32 32 32 32 33 35 36
29 29 27 26 25 24 24 23 23 24 25 26 24 23 23 23 23 23 23 22 21 22 23 23 24 24 25 26 27 28 29 28 29 29 29 30 31 33 33 34 34 34 35 36
30 30 29 28 27 25 25 25 25 25 26 27 26 25 24 23 23 22 22 22 22 23 23 24 25 25 26 26 27 29 30 30 30 29 29 30 31 32 33 34 35 36 36 37
32 32 31 30 29 28 27 27 26 27 27 27 28 26 25 24 23 23 23 23 23 24 24 24 25 26 27 28 28 28 30 30 31 31 32 31 31 31 32 33 34 34 36 37
34 34 33 33 32 31 30 29 28 29 29 28 28 27 26 25 24 24 24 24 24 24 25 25 26 27 27 28 29 29 30 30 31 32 33 33 33 34 34 35 35 36 37 37
36 35 35 35 34 34 32 31 30 31 30 30 29 29 27 26 25 25 25 25 25 25 25 25 26 27 27 28 29 30 30 31 31 32 33 34 35 36 37 37 38 39 39 39
37 38 37 36 36 35 35 33 33 32 31 32 30 29 28 28 27 26 26 26 25 25 25 26 26 27 28 28 29 29 29 30 31 32 33 34 35 36 37 38 39 40 41 42
39 39 39 38 37 37 37 35 35 34 33 33 32 30 29 30 30 29 28 27 26 26 26 26 26 26 27 27 28 29 29 30 31 32 33 35 36 38 39 40 41 41 42 43
40 41 41 40 39 39 39 36 35 35 34 34 33 30 30 30 30 30 29 28 27 27 26 26 26 26 26 27 28 29 30 31 31 32 33 34 35 37 39 40 41 42 42 43
40 40 41 41 40 41 38 37 36 36 35 34 34 32 31 30 29 29 29 29 28 28 28 28 27 27 27 28 28 29 30 31 32 33 34 35 36 36 38 39 40 40 41 42
40 40 41 41 42 42 39 38 37 37 36 35 34 32 31 31 30 30 29 29 29 29 30 29 29 29 29 29 29 30 30 30 31 33 34 35 36 37 38 39 40 40 41 41
40 40 41 41 42 41 40 38 38 38 38 36 35 34 33 32 32 31 31 31 31 31 31 31 31 31 31 32 32 32 32 33 33 34 35 35 36 37 38 39 39 40 40 41
39 40 40 41 41 42 40 39 39 38 38 37 36 36 36 35 34 32 32 33 33 33 33 33 33 33 33 34 34 34 34 35 35 36 36 37 38 38 39 39 40 41 41 42
39 40 40 40 41 41 40 39 39 39 38 38 37 36 36 36 35 34 34 34 34 34 35 35 35 36 36 36 36 36 36 37 38 38 39 39 40 40 40 41 41 41 42 42
38 38 39 39 39 39 39 39 39 39 39 38 38 37 36 36 36 35 35 36 36 36 37 37 37 38 38 38 37 38 38 39 40 40 40 40 41 41 41 42 42 43 43 43
37 38 38 38 38 38 38 38 38 39 39 38 38 38 38 38 38 38 38 38 38 38 38 39 38 38 39 39 39 39 40 40 41 41 41 41 42 42 42 43 43 43 43 43
37 38 38 39 39 39 39 39 39 39 39 38 39 39 39 39 39 40 39 39 39 39 39 39 39 39 39 40 41 41 41 41 41 42 42 42 42 42 43 42 42 43 43 43
38 39 40 40 40 40 39 39 39 39 39 38 39 39 39 40 40 40 39 39 39 39 39 40 40 40 40 41 41 41 42 42 42 42 42 42 42 42 42 42 42 43 43 44

GEFSCGP_500_meanwind_192.txt.gz
Wind_Speed
22 23 22 22 21 21 20 20 20 20 20 20 19 18 18 19 19 20 21 21 22 23 23 24 25 26 27 26 26 27 27 29 31 34 34 33 33 34 35 35 36 37 37 37
23 23 23 22 22 21 21 21 20 20 20 20 19 18 18 19 20 20 21 21 21 22 23 24 24 25 27 27 26 28 29 29 30 32 33 34 33 33 34 35 35 36 37 37
24 24 23 23 22 22 22 22 21 20 20 20 19 17 17 19 20 21 21 21 21 21 22 23 24 25 26 26 27 27 28 29 30 31 32 33 33 32 33 35 35 35 36 36
24 24 24 23 23 22 22 21 21 21 21 20 19 18 15 17 19 20 21 21 21 22 22 22 23 24 25 26 27 28 29 30 30 30 30 32 32 32 33 35 36 36 35 36
25 25 24 24 23 22 22 22 22 22 22 21 19 19 17 18 18 20 21 22 21 22 22 22 23 24 24 25 27 28 28 30 30 30 30 31 31 32 32 34 35 36 36 35
26 26 25 24 23 22 22 22 23 22 21 20 19 20 19 18 18 20 21 22 23 23 22 23 22 23 24 25 26 27 27 29 29 29 30 31 32 32 32 33 34 34 34 35
27 26 26 25 24 23 23 23 23 24 22 20 20 20 20 19 19 20 20 21 22 23 24 23 23 23 23 24 25 25 26 28 29 29 29 30 31 31 32 32 33 34 35 35
29 28 27 26 26 25 24 24 24 24 24 23 21 22 20 20 19 19 20 21 22 23 24 24 24 24 23 24 26 25 26 27 28 29 29 31 31 30 32 32 33 34 36 36
31 29 28 28 27 26 26 25 24 25 25 25 23 23 22 21 20 20 20 21 22 23 24 23 24 24 24 24 25 26 27 27 28 29 30 30 31 30 31 32 33 35 37 38
32 31 29 29 28 27 27 26 26 26 26 26 25 24 23 22 22 22 22 22 22 22 23 23 24 24 25 25 25 25 26 27 27 28 29 30 30 31 31 34 35 35 37 39
33 33 31 30 30 29 28 27 27 28 28 28 28 25 24 23 23 23 23 23 22 22 23 23 24 24 25 25 26 26 27 27 28 28 29 30 31 32 33 33 35 36 37 39
34 34 33 32 31 30 30 29 29 29 29 29 29 27 25 25 24 24 24 24 23 23 23 24 24 25 25 26 27 28 28 28 29 30 30 30 31 32 34 35 36 36 37 37
36 36 35 34 32 32 31 30 30 31 31 31 30 28 26 26 26 26 25 25 24 24 24 25 25 25 26 26 27 28 29 29 29 30 30 31 33 33 33 34 35 35 36 38
38 37 36 35 34 34 33 31 32 32 33 32 31 29 28 27 27 27 27 26 25 25 25 25 26 26 25 26 27 28 29 30 30 31 31 31 32 33 33 33 34 34 36 37
38 38 37 36 35 35 34 32 32 33 32 33 31 31 29 29 29 29 29 28 27 27 27 26 26 26 26 26 27 28 29 30 31 31 32 32 33 33 33 34 34 35 36 37
37 38 37 37 35 36 35 33 33 33 33 33 33 31 30 31 31 30 30 29 29 28 28 28 27 27 27 27 27 27 28 29 30 31 32 33 34 34 35 35 35 36 37 38
38 38 38 38 37 38 37 34 35 35 35 34 34 32 31 32 31 31 30 30 29 29 28 28 28 28 28 28 28 28 28 28 29 30 31 31 32 33 34 36 37 38 39 40
38 38 40 39 39 39 35 34 35 35 35 35 34 33 32 32 31 31 31 30 30 29 29 29 28 28 28 28 29 29 29 29 29 30 30 31 32 33 34 36 37 38 38 39
37 38 39 39 40 39 36 35 34 34 34 34 35 34 33 33 33 32 32 31 30 30 29 29 30 29 29 29 30 30 31 31 31 31 31 32 33 33 34 35 36 37 38 39
36 36 37 37 37 37 36 36 36 36 35 35 35 35 34 34 34 33 32 32 31 31 31 31 31 31 31 31 31 32 32 32 32 32 33 33 34 35 35 36 37 37 38 39
35 36 36 36 36 36 35 35 35 36 35 34 35 35 35 35 35 34 34 33 33 33 32 32 32 32 33 33 33 33 33 33 34 34 34 35 35 35 36 37 37 38 39 39
34 35 35 36 37 36 35 35 35 36 35 35 35 36 36 35 35 34 34 34 33 33 33 33 33 33 33 33 33 34 34 34 34 35 35 35 36 36 37 38 38 39 39 40
33 34 34 36 36 36 35 36 36 37 37 37 36 36 36 36 35 35 35 34 34 34 34 34 34 34 33 33 34 34 34 34 35 36 36 37 37 38 38 39 39 39 40 40
33 35 35 34 35 35 36 36 36 37 38 37 36 36 36 36 35 35 35 34 34 35 35 35 35 34 34 34 34 35 35 35 36 37 38 38 39 40 40 40 40 41 41 41
33 35 35 35 34 34 35 36 37 37 37 37 37 37 36 36 36 35 35 35 35 35 35 35 35 35 35 35 36 36 36 37 37 38 39 40 40 41 42 41 41 41 42 42
33 34 34 34 34 34 34 34 35 35 35 36 36 36 36 36 35 36 36 36 36 36 36 36 36 36 36 36 37 37 37 38 38 39 39 40 40 41 41 41 41 41 41 42

GEFSCGP_500_meanwind_198.txt.gz
Wind_Speed
27 27 26 27 27 28 28 28 27 26 26 26 26 25 25 25 24 24 24 24 24 25 26 25 26 27 27 27 27 28 29 30 30 32 32 33 34 35 36 37 38 37 36 36
28 28 28 28 28 28 28 28 27 26 27 27 26 25 25 24 23 23 23 22 23 24 25 25 25 26 26 26 27 28 28 30 30 30 32 33 35 35 35 36 38 37 37 36
29 28 28 28 28 28 28 28 28 27 27 27 27 25 24 23 23 23 23 23 23 23 24 24 24 25 25 26 26 27 28 29 30 30 31 32 33 34 34 35 36 36 36 36
30 29 29 29 29 29 28 28 29 28 28 27 27 27 23 23 23 23 23 24 24 24 24 24 25 25 25 26 26 27 28 30 30 31 31 32 32 33 33 33 35 36 36 36
31 30 30 30 29 30 29 29 29 29 29 28 27 28 24 23 23 23 24 24 25 25 25 25 26 26 26 26 27 27 28 30 30 30 31 31 31 31 32 32 33 34 36 37
31 31 30 30 30 30 30 30 30 30 29 29 27 27 26 23 23 23 24 25 25 26 25 25 26 27 27 27 27 27 27 29 30 30 30 31 31 31 31 32 34 34 35 36
33 32 32 32 32 32 31 31 31 31 30 29 28 28 26 24 24 24 24 24 25 26 26 26 27 28 28 28 28 27 27 28 28 29 29 31 31 32 32 33 33 33 34 36
36 34 34 33 33 33 32 32 31 32 32 30 29 28 25 24 24 24 23 24 25 26 27 28 28 28 29 28 29 29 28 28 28 28 29 30 31 32 33 33 33 34 35 36
37 37 35 34 33 33 33 32 32 32 33 32 30 28 26 24 24 24 24 24 26 26 27 28 28 28 29 30 30 29 29 28 28 28 29 30 31 33 33 33 34 35 36 36
39 40 37 36 35 34 34 33 32 33 33 33 32 28 27 25 24 25 25 25 26 27 27 28 28 28 28 29 29 29 29 29 29 30 30 31 31 33 34 35 36 36 37 37
40 41 40 38 36 35 34 33 33 34 34 34 34 29 27 26 26 26 26 26 27 27 27 27 28 28 28 28 28 28 29 29 29 30 31 31 32 33 35 36 36 37 37 38
40 41 41 39 37 36 36 35 34 35 35 35 35 31 28 29 28 28 27 28 28 28 28 28 28 29 28 28 28 28 28 29 30 31 31 32 32 33 34 35 36 36 37 38
40 41 41 39 38 37 36 36 35 36 36 36 35 32 30 30 30 29 29 28 28 29 29 29 29 29 29 29 29 29 28 29 30 31 32 32 33 34 34 34 35 36 37 38
41 41 40 38 37 36 36 35 35 36 37 37 35 33 31 32 31 31 30 29 29 29 30 30 29 29 29 29 29 29 30 30 30 30 31 32 33 34 35 35 36 36 37 38
41 41 40 38 37 37 36 35 34 36 37 38 36 35 33 33 34 33 33 31 31 31 31 31 30 30 30 30 30 30 30 31 32 31 31 32 32 32 34 35 35 35 36 37
40 40 40 40 39 38 37 36 35 36 36 37 37 36 35 35 34 34 33 32 32 32 32 32 31 31 31 31 31 31 31 32 32 32 33 33 33 33 34 34 35 35 36 37
39 39 39 39 39 40 39 37 36 36 35 35 36 35 36 36 35 34 34 34 33 32 32 32 32 32 31 32 32 32 32 33 33 34 34 33 34 34 34 35 36 36 37 37
37 37 38 38 38 39 37 36 36 36 36 36 35 35 36 36 35 35 35 35 34 34 33 33 33 33 33 32 33 33 33 34 34 34 34 34 34 34 34 34 35 36 37 37
35 36 37 37 37 37 35 35 35 35 36 36 36 36 36 36 36 35 35 35 35 35 35 35 35 35 34 33 33 34 33 33 33 34 34 34 34 34 33 34 34 35 36 37
34 33 34 35 36 36 34 34 34 36 37 37 37 37 37 37 37 36 36 36 36 36 36 36 37 36 36 35 34 35 35 34 34 34 34 34 35 34 34 34 36 36 37 38
32 32 32 32 34 34 34 34 35 36 37 37 37 37 37 37 38 37 38 38 38 37 37 37 37 37 37 37 36 35 35 35 35 35 35 35 36 36 36 36 37 38 38 39
31 32 32 32 33 33 33 34 35 36 37 37 37 38 38 38 38 38 39 39 39 39 38 38 38 37 37 37 37 37 36 36 36 36 36 36 36 37 37 37 38 39 39 40
31 31 32 33 33 33 34 34 35 37 37 36 37 37 38 39 39 40 40 40 40 40 39 39 38 38 38 37 37 37 36 36 36 36 36 37 37 37 38 38 39 40 40 41
31 31 32 32 33 34 34 35 35 36 37 37 37 37 37 38 39 39 39 40 40 40 40 39 39 38 38 37 37 36 36 36 36 36 37 37 38 38 39 40 41 42 42 42
30 31 32 33 33 34 34 35 35 35 36 36 37 37 37 37 37 37 36 37 37 38 38 38 38 38 38 37 37 36 36 36 36 37 38 38 38 39 40 40 41 41 42 43
30 31 32 32 33 33 33 34 34 34 34 35 35 35 35 35 35 35 35 35 36 36 36 36 37 37 37 36 36 36 36 36 37 37 37 38 38 39 39 39 39 40 41 40

GEFSCGP_500_meanwind_204.txt.gz
Wind_Speed
27 27 27 26 27 27 27 27 27 27 27 27 27 26 25 26 27 26 26 26 25 25 25 27 27 28 27 27 28 29 30 30 30 31 32 32 33 34 34 35 36 37 38 39
28 28 27 28 28 28 28 27 27 27 27 27 27 27 26 26 26 26 26 25 25 23 23 25 26 27 27 27 27 28 29 30 31 31 32 33 33 33 33 35 36 37 38 38
30 30 29 29 29 29 28 28 28 28 28 28 29 27 25 25 26 26 26 25 24 24 22 22 23 25 25 25 26 27 29 30 30 31 32 33 33 34 34 35 36 37 38 39
32 31 31 31 30 30 29 29 30 29 29 29 29 29 26 26 25 26 25 25 25 24 23 22 23 24 24 25 26 28 28 29 29 29 30 31 33 35 35 35 36 36 38 39
33 32 31 31 31 31 31 31 31 31 31 31 29 30 28 27 26 26 26 25 25 25 24 24 24 23 24 25 26 28 29 29 29 30 31 32 32 34 35 35 36 37 37 38
34 33 33 32 32 32 33 33 33 32 32 32 29 30 30 28 27 26 25 25 25 25 25 25 24 24 24 24 26 27 28 29 29 31 31 32 32 33 33 34 34 36 37 37
35 34 35 34 34 34 34 34 35 35 34 33 31 31 31 29 27 26 25 25 24 25 25 25 25 25 25 25 25 26 28 29 30 31 31 32 32 32 32 32 33 35 36 36
36 36 35 36 35 35 35 35 35 36 35 34 33 32 31 29 28 26 25 25 25 25 25 25 25 26 26 26 25 26 27 28 29 30 31 32 32 33 33 32 33 34 35 36
37 38 37 37 37 37 37 36 35 36 36 36 34 33 31 29 28 27 26 25 25 25 25 25 25 26 27 27 26 26 27 28 29 30 30 31 31 32 33 33 34 34 35 35
38 38 37 37 37 36 36 35 35 35 36 36 35 33 31 29 28 27 26 25 26 26 26 26 26 26 27 28 28 27 27 28 30 30 31 31 31 33 34 34 35 36 37 38
38 38 38 38 37 36 35 35 35 35 37 37 36 34 32 30 29 28 27 26 26 26 27 27 27 27 28 29 28 27 27 28 30 31 32 32 32 33 34 35 36 37 37 38
38 39 39 38 37 37 36 35 34 35 36 36 36 35 32 30 30 29 29 27 27 27 27 28 27 27 28 28 28 28 28 28 29 31 33 34 33 33 34 35 36 37 36 37
38 38 39 38 37 36 35 35 35 35 36 36 35 34 32 31 31 30 30 29 29 28 29 29 29 29 28 29 28 29 28 28 29 30 31 33 33 32 33 34 35 36 36 37
37 37 37 36 35 35 35 34 34 35 36 37 35 33 32 32 32 31 30 31 30 29 29 29 29 29 29 29 29 29 29 29 28 29 30 32 32 32 32 33 35 35 35 36
36 35 35 35 34 34 34 34 34 35 36 36 34 33 33 33 32 32 31 31 32 31 31 31 31 31 30 30 30 30 30 29 30 30 30 32 33 33 33 34 34 35 35 35
35 36 36 35 35 35 35 34 34 35 35 35 34 33 33 33 33 32 32 32 33 33 33 33 33 32 32 32 31 31 31 31 31 31 32 32 33 33 34 34 34 35 35 35
34 34 35 35 35 36 36 33 33 33 34 34 33 33 33 33 33 33 33 33 34 34 34 34 34 34 34 33 33 33 33 32 33 33 33 34 34 34 33 33 34 35 35 35
33 32 33 34 33 34 33 32 32 32 32 32 32 32 33 33 33 33 33 33 33 34 34 35 35 35 35 35 34 34 34 34 34 35 35 36 36 36 35 35 35 34 35 36
31 31 31 31 32 32 32 30 30 31 32 32 32 33 33 33 33 33 33 33 33 34 34 34 34 35 35 35 35 35 35 36 36 36 36 36 36 36 36 36 36 36 36 37
30 30 30 30 31 31 31 30 30 31 31 31 32 32 32 32 33 33 33 33 33 34 34 35 35 35 35 35 36 36 36 37 37 37 36 37 36 36 36 36 37 37 37 37
30 29 30 30 31 31 30 29 29 30 30 30 31 31 31 31 33 33 34 34 35 35 35 35 35 35 35 35 36 36 36 36 36 36 37 37 37 37 37 37 37 38 38 38
29 29 29 30 30 30 29 29 29 29 29 30 31 31 31 31 32 33 34 34 35 36 36 36 35 36 36 36 36 36 36 36 36 36 36 36 36 36 37 37 38 39 39 39
29 29 29 29 30 30 30 29 29 29 29 30 30 31 32 32 33 33 34 35 36 36 37 37 37 37 37 36 36 36 36 36 35 34 34 35 35 36 36 36 36 37 38 38
29 29 29 29 29 29 29 29 29 29 29 30 30 30 31 32 33 34 34 35 36 36 37 37 37 36 36 35 35 35 35 35 35 34 34 34 34 34 35 35 35 36 37 38
27 28 28 28 28 28 28 28 27 28 28 29 29 30 30 31 31 32 33 34 35 35 36 36 36 35 35 34 34 35 35 35 35 35 35 34 34 33 34 34 35 36 37 38
27 27 27 27 27 27 27 27 27 27 27 28 28 28 29 28 28 28 29 30 31 31 32 33 33 33 33 34 34 35 35 35 35 35 34 34 33 33 34 34 35 36 37 38

GEFSCGP_500_meanwind_210.txt.gz
Wind_Speed
32 33 32 32 33 33 33 34 33 33 33 33 32 31 30 30 29 29 29 29 29 28 28 28 27 27 28 28 29 29 30 31 32 32 32 34 34 35 36 36 36 36 36 36
34 34 33 33 33 34 34 35 35 35 34 35 34 33 32 31 30 30 30 29 29 29 28 28 27 27 27 28 29 30 30 30 30 31 32 33 34 34 35 36 35 36 36 37
36 34 34 35 35 35 35 36 35 36 36 36 36 35 33 32 32 31 31 31 30 29 28 28 28 28 28 28 29 29 29 29 30 31 32 32 33 33 34 35 35 35 36 37
36 35 35 36 36 36 36 36 36 37 37 37 36 38 33 33 32 32 32 32 31 31 30 29 28 28 28 29 29 28 28 29 29 30 31 32 33 34 34 34 34 35 35 36
36 36 36 36 35 36 36 36 37 38 39 39 38 39 36 34 33 33 33 32 32 31 31 30 29 28 28 29 29 28 29 28 28 29 31 31 32 32 33 33 34 34 34 34
37 36 36 36 36 35 36 37 38 38 39 40 37 38 37 35 34 34 34 33 32 32 31 31 30 29 28 28 29 29 29 29 29 30 31 31 32 32 32 34 34 34 35 35
38 37 36 36 36 35 36 36 37 38 39 39 36 37 36 35 35 34 34 34 33 33 33 32 31 29 28 28 28 29 29 30 30 30 31 32 33 32 32 33 35 35 36 35
40 39 37 37 37 36 36 35 36 38 38 38 36 36 34 34 34 33 33 33 33 33 33 32 31 30 29 29 28 29 29 29 30 30 30 31 32 32 32 33 34 35 36 36
40 40 39 37 37 37 36 35 36 37 38 38 37 35 34 34 34 34 33 33 33 32 31 31 31 31 30 30 30 30 29 30 30 30 30 30 31 31 31 32 34 34 36 36
39 40 38 37 37 36 36 35 35 36 36 37 37 35 35 35 34 34 34 34 33 32 31 31 31 31 31 31 30 30 30 30 30 29 30 30 30 32 32 32 33 33 33 35
38 39 38 37 36 35 34 34 35 36 36 36 36 34 34 33 34 34 34 33 32 31 31 31 31 31 31 30 30 29 30 30 30 29 30 30 30 31 32 32 33 33 34 35
37 38 39 38 36 34 34 33 33 35 35 36 37 35 34 34 33 33 33 33 33 32 32 31 31 31 31 31 30 30 30 30 29 29 30 30 31 31 32 33 33 34 35 36
35 37 37 36 35 34 34 34 34 35 35 35 35 34 33 34 34 34 33 33 33 33 33 32 32 32 31 31 31 31 31 31 30 30 30 31 31 31 32 32 33 34 35 36
34 35 35 34 32 32 33 33 34 35 36 36 35 33 32 33 34 33 33 33 33 33 33 33 33 32 32 32 32 31 31 31 31 30 30 31 31 32 32 33 34 35 36 36
34 35 34 33 33 32 33 33 33 35 35 36 35 34 33 33 33 32 33 33 33 33 33 33 33 33 32 32 32 31 31 31 31 31 31 32 32 33 34 34 34 35 35 36
35 35 34 33 33 33 33 33 33 34 35 36 36 36 35 34 34 34 34 34 33 33 33 33 33 33 33 33 32 32 31 31 32 32 32 33 33 33 34 34 34 35 35 35
36 36 36 35 34 35 36 34 34 34 34 35 36 35 34 34 34 34 34 34 34 34 34 34 33 33 34 34 33 33 33 33 33 34 34 35 35 34 34 34 35 35 36 36
33 34 35 34 34 35 35 34 34 34 34 34 35 34 34 33 33 34 33 33 34 34 34 33 34 34 34 34 34 34 34 34 34 34 35 35 36 36 35 35 36 36 36 36
30 30 31 31 31 32 33 33 33 33 34 34 34 33 33 33 33 34 34 34 34 34 34 33 34 35 35 35 35 35 35 35 35 36 36 36 36 36 36 36 36 37 37 38
28 28 29 30 30 31 31 31 31 32 32 32 32 32 32 32 33 33 33 33 34 34 34 34 34 34 35 35 36 36 36 36 36 37 37 38 37 37 37 38 38 38 39 39
28 28 27 28 29 30 30 29 29 30 31 30 31 31 31 31 32 32 33 33 33 34 34 34 35 35 35 35 36 36 36 37 37 37 37 37 37 37 38 38 38 38 39 39
27 27 28 28 29 29 29 29 30 30 31 30 30 30 31 32 32 33 34 34 34 34 34 35 35 35 35 35 36 36 37 37 37 37 37 36 37 37 37 37 37 37 37 38
27 27 27 27 28 29 30 30 29 30 31 31 31 30 31 31 32 34 34 34 34 34 35 35 35 36 36 36 37 37 38 37 37 36 36 36 37 37 37 37 37 37 37 37
28 28 27 27 27 28 30 30 31 31 31 31 32 31 31 31 31 32 33 33 34 34 35 36 37 37 37 37 37 38 38 37 37 37 37 37 36 36 37 37 38 38 38 38
27 28 28 28 28 29 30 30 30 30 31 31 31 30 31 31 32 32 33 32 33 33 34 35 36 36 36 36 37 36 36 36 36 36 37 37 37 36 36 36 36 36 36 37
29 29 29 29 29 29 29 29 29 29 29 29 30 30 30 30 30 30 30 30 30 31 32 32 33 34 34 34 34 35 35 35 35 35 35 36 35 35 35 35 35 35 36 35

GEFSCGP_500_meanwind_216.txt.gz
Wind_Speed
33 33 33 33 34 34 35 35 34 33 35 36 35 34 34 33 33 32 32 32 32 32 31 31 31 30 30 29 29 30 30 30 30 30 31 31 32 32 33 34 36 36 37 38
34 34 34 35 35 36 36 36 35 35 35 37 36 35 34 34 34 33 33 33 32 32 32 32 32 32 31 31 30 29 30 30 30 30 31 31 31 32 34 34 36 36 36 36
36 35 35 36 37 37 37 37 37 37 36 37 38 37 35 35 35 35 34 34 33 32 32 33 33 33 33 32 31 30 30 30 30 30 31 31 31 32 33 34 35 35 36 37
37 36 37 37 38 38 38 37 37 37 37 37 37 38 35 34 35 35 35 34 33 33 32 32 32 33 33 32 32 31 31 31 31 31 31 31 31 32 33 33 34 35 36 37
36 36 36 37 36 36 36 35 36 36 37 37 36 37 35 34 34 34 35 35 34 34 33 33 32 32 33 33 33 32 32 32 32 32 32 32 32 32 33 33 34 35 37 38
36 36 36 35 35 34 35 34 35 35 36 37 34 36 35 34 33 32 33 34 34 34 33 33 33 33 33 33 33 33 33 33 32 33 33 32 32 33 34 34 35 36 36 37
36 35 35 35 34 34 33 33 34 34 36 37 35 36 35 33 32 32 32 33 33 33 33 33 33 33 34 33 33 33 33 33 33 33 33 33 33 33 33 34 34 35 36 36
36 35 35 34 34 33 32 33 34 35 36 36 35 36 34 32 32 31 32 33 33 33 33 34 34 33 34 34 34 34 34 33 33 33 34 34 33 33 34 34 34 33 34 36
36 36 35 34 33 32 32 32 32 33 35 35 34 34 33 31 31 30 30 31 32 32 32 33 34 34 33 33 34 34 34 33 33 33 33 34 33 33 34 34 34 34 34 34
36 36 34 34 33 32 32 31 31 31 33 34 33 32 31 30 29 28 29 30 30 32 32 33 33 33 33 33 33 33 34 34 34 33 33 33 33 33 34 34 34 34 34 35
36 36 35 34 33 32 31 31 32 32 31 32 32 31 29 29 28 28 28 29 30 30 31 32 32 32 33 33 33 33 33 34 33 33 33 33 33 34 34 34 33 33 34 35
35 36 35 34 33 32 32 32 31 32 31 31 31 31 28 27 28 28 28 29 30 30 31 32 33 33 33 33 33 34 34 33 33 33 33 34 34 34 34 33 33 33 33 34
33 33 33 33 32 32 32 32 32 32 32 31 31 30 29 28 28 28 28 29 30 30 31 32 34 34 34 34 34 34 34 34 33 33 34 34 34 34 34 34 34 34 34 34
32 33 32 32 31 31 32 32 33 33 35 34 32 31 28 28 28 29 30 30 29 30 32 33 34 34 34 35 35 35 34 34 34 34 34 34 34 34 34 34 34 34 34 34
32 33 32 32 32 32 31 31 32 34 34 35 34 33 31 29 29 29 31 31 30 31 32 32 33 34 35 34 35 34 34 34 34 34 34 34 34 34 34 34 34 35 35 35
32 33 32 32 31 32 32 31 31 32 32 33 33 33 32 33 32 31 32 32 31 31 32 33 33 34 34 34 34 34 34 34 34 35 35 35 35 35 35 35 35 36 36 35
31 32 32 31 31 31 31 30 30 30 30 31 32 32 31 32 33 33 32 32 32 31 31 32 33 34 34 34 34 33 33 34 35 35 35 36 36 36 36 36 36 36 36 36
30 31 31 30 29 30 29 28 28 28 28 28 29 29 30 30 32 33 33 32 31 31 31 32 33 33 34 35 34 34 34 34 35 36 36 37 36 37 37 36 36 36 36 37
27 28 29 29 29 29 28 27 27 28 28 28 29 29 29 29 30 31 31 31 31 31 32 33 34 34 34 35 35 34 34 34 35 36 36 36 37 36 36 36 36 37 37 38
25 25 26 27 27 27 27 26 26 27 28 28 29 29 29 30 30 30 30 30 30 31 32 33 34 34 34 35 35 35 35 34 34 35 35 35 35 35 35 36 36 36 37 38
24 25 26 26 27 27 27 27 27 28 28 28 29 30 30 30 30 30 30 31 32 32 32 33 33 34 34 35 35 36 35 35 35 34 34 35 35 35 35 35 36 36 36 37
24 24 24 24 25 25 25 27 28 28 28 28 28 28 29 29 29 30 30 30 31 32 32 32 33 33 34 35 35 36 36 35 35 35 35 36 35 35 35 35 35 35 35 36
24 24 24 24 24 24 25 26 27 28 29 29 30 30 30 30 29 29 30 30 31 32 32 33 33 34 35 35 36 37 37 36 36 36 36 36 35 35 35 35 35 35 35 36
23 24 24 24 24 24 25 26 26 27 28 29 30 30 30 30 31 31 30 30 30 31 32 32 33 34 35 35 36 37 38 37 36 35 35 35 35 35 35 35 35 36 37 37
23 24 25 25 24 25 26 26 25 26 27 28 29 29 29 30 30 30 31 30 30 31 31 32 32 32 33 34 34 35 36 36 35 35 34 35 35 35 35 35 36 36 36 37
23 23 23 24 24 25 25 26 25 24 25 26 27 27 27 28 28 29 29 30 30 30 30 31 31 31 31 31 31 32 33 34 34 34 34 34 35 35 35 36 36 36 36 36

GEFSCGP_500_meanwind_222.txt.gz
Wind_Speed
34 36 37 37 37 38 39 40 39 39 40 41 40 39 37 37 37 38 38 38 38 38 38 37 37 37 36 36 35 34 33 34 34 34 33 33 33 33 33 33 33 34 34 34
36 37 37 38 39 40 40 41 41 41 42 42 41 40 38 37 37 38 38 38 39 38 38 37 38 38 37 37 36 35 34 34 34 34 34 34 34 34 34 33 33 33 34 35
38 38 38 39 40 41 42 42 41 42 42 43 43 41 38 37 37 37 38 39 39 38 38 37 38 38 38 38 37 36 35 35 35 35 35 35 35 34 35 34 33 34 34 35
38 39 39 40 41 42 42 41 41 42 43 42 42 42 38 38 37 37 37 38 37 38 38 38 38 38 39 38 38 37 37 36 36 35 35 35 34 34 35 35 35 35 35 35
39 39 40 41 41 41 41 40 41 41 41 42 41 42 41 39 38 37 37 37 36 36 37 37 37 38 39 38 38 38 37 37 37 36 36 35 35 35 35 35 35 36 37 37
39 40 41 41 40 40 40 40 40 40 40 41 39 41 41 38 37 37 37 36 36 36 36 37 37 38 39 39 39 38 38 38 38 37 37 36 36 35 35 35 35 36 36 37
39 39 40 40 40 40 40 39 39 39 40 40 39 40 39 37 36 36 35 35 35 36 36 36 37 38 39 39 39 39 38 38 38 38 38 38 37 36 36 36 36 36 36 36
40 39 39 39 39 39 38 38 38 38 39 38 38 38 37 37 36 35 34 34 34 35 35 36 36 37 38 38 38 39 38 38 38 39 39 38 38 37 37 37 36 36 36 36
40 40 38 38 38 37 37 36 36 36 37 38 38 37 36 35 35 34 32 32 33 34 34 35 35 36 37 38 38 39 39 39 39 39 40 39 39 39 38 37 37 37 37 37
40 40 38 36 36 36 36 35 34 35 35 37 37 35 35 33 32 32 32 32 33 34 34 34 35 36 37 37 38 38 39 39 39 40 40 40 39 39 38 38 38 38 38 38
39 39 38 37 35 34 33 34 34 35 36 36 37 35 34 33 32 32 31 31 31 32 33 33 34 35 35 35 36 38 38 39 39 40 40 40 39 39 39 39 39 38 37 37
36 37 38 37 35 34 33 32 33 34 34 35 36 35 33 33 32 32 32 31 31 31 32 33 34 34 35 35 36 37 38 38 39 40 40 40 40 39 39 40 39 39 38 38
35 36 36 36 35 35 35 33 32 33 34 34 34 33 32 33 33 33 33 33 32 32 32 33 33 34 34 35 36 37 38 38 39 40 40 40 40 40 39 39 39 39 39 38
35 36 36 35 34 35 35 34 34 34 34 35 35 33 31 31 32 33 33 33 33 32 32 32 33 34 35 36 37 37 38 38 39 40 40 40 40 40 40 39 39 39 39 39
35 36 35 34 33 33 33 33 33 33 33 34 34 34 33 32 32 32 32 31 32 32 32 33 33 33 34 35 36 36 37 37 38 39 39 40 40 40 40 39 39 39 39 39
34 34 33 32 31 32 32 31 32 32 31 33 33 32 31 32 32 32 32 32 32 33 33 33 33 34 34 34 35 35 36 36 37 38 38 39 39 39 39 39 38 38 39 39
33 33 33 32 30 31 31 29 31 32 31 31 31 30 30 30 30 30 31 31 31 31 32 32 33 33 33 34 34 34 34 34 36 37 37 38 38 39 39 39 39 38 39 39
32 32 31 31 31 31 30 29 29 30 30 30 30 30 31 31 31 31 31 31 32 32 32 32 32 33 32 33 34 33 33 34 35 36 36 36 37 37 37 37 38 38 38 38
30 29 30 30 30 30 29 29 29 29 29 29 29 29 30 30 30 30 30 30 31 31 32 32 33 33 33 33 34 34 34 35 35 35 35 35 36 36 37 37 37 37 37 38
29 28 28 28 27 27 28 29 30 30 30 30 30 30 30 30 30 30 30 30 30 31 31 32 32 33 33 34 35 35 35 35 35 35 36 35 36 36 37 37 38 38 38 39
27 27 26 26 25 25 26 27 28 30 31 30 31 30 30 30 31 30 30 30 30 31 32 32 32 33 34 35 35 36 36 36 36 36 36 36 36 36 37 38 38 39 39 39
26 26 25 25 25 25 25 25 26 27 28 29 29 29 29 29 29 29 29 29 30 31 32 32 33 33 34 35 35 36 37 37 37 37 37 37 37 37 38 39 39 39 39 39
26 25 25 25 25 25 25 25 25 26 27 28 29 30 29 29 29 29 29 29 30 30 31 32 33 33 33 34 34 35 36 37 37 38 38 38 38 38 38 39 39 38 38 38
25 25 25 26 25 25 25 25 26 26 26 27 29 29 29 28 27 28 29 29 29 30 30 31 31 31 32 32 33 34 35 35 36 37 37 38 38 38 37 38 38 37 37 37
24 24 24 25 24 24 24 25 25 25 24 25 26 27 28 27 27 26 26 28 29 29 30 30 30 30 30 30 31 32 33 33 33 34 35 36 36 36 36 36 37 37 36 36
24 23 24 23 24 24 24 24 24 24 24 24 24 25 26 26 26 27 27 27 28 29 29 29 29 29 29 29 30 30 31 31 31 31 32 33 33 34 34 35 35 35 35 35

GEFSCGP_500_meanwind_228.txt.gz
Wind_Speed
33 34 34 35 35 36 38 38 38 39 39 40 40 40 39 39 39 38 37 37 37 37 37 38 38 39 40 39 39 39 39 39 38 38 38 38 37 38 38 37 37 37 37 37
35 35 35 36 36 37 38 38 39 39 40 40 40 40 39 38 38 38 38 38 37 37 37 37 38 38 39 40 40 40 40 40 39 39 38 38 38 38 38 38 37 37 37 37
36 36 36 37 37 38 38 39 39 39 39 40 40 40 38 38 38 38 38 38 37 37 37 38 38 38 39 40 40 40 40 40 40 40 40 39 39 38 38 38 38 37 37 37
37 37 37 38 37 38 39 39 39 39 39 39 38 39 38 37 37 37 37 37 37 37 38 38 38 38 38 39 39 40 40 40 40 40 41 40 40 39 39 38 38 37 38 37
38 37 38 38 37 37 39 39 39 39 39 39 38 39 39 38 37 37 37 37 37 37 37 37 37 38 39 39 40 40 40 40 41 41 41 41 41 41 40 40 39 38 38 37
38 38 38 38 37 37 38 39 39 39 39 39 38 39 39 38 37 37 37 37 37 37 37 37 37 38 39 40 40 40 40 40 41 41 42 42 42 41 41 41 40 40 39 38
38 37 38 37 37 37 37 38 38 39 39 39 38 38 39 37 37 36 36 36 37 37 37 37 37 38 38 39 40 40 40 41 41 41 42 42 42 42 42 41 41 41 40 39
39 38 37 37 37 36 36 36 35 36 37 38 38 39 38 37 37 36 36 37 37 37 36 36 37 37 37 38 39 40 40 40 41 42 42 42 42 42 42 42 42 42 41 40
39 38 36 37 37 36 35 34 34 35 37 37 37 37 38 37 37 36 36 36 36 36 36 36 37 37 37 38 38 38 39 40 40 41 42 42 42 42 43 43 43 43 42 41
38 37 36 35 35 34 34 33 33 34 35 36 36 35 35 34 35 35 36 35 35 35 36 36 36 36 37 38 38 38 39 39 40 40 41 42 42 42 43 43 43 43 42 42
36 36 35 34 33 32 31 31 32 33 34 35 35 35 34 33 34 34 33 33 33 33 34 35 35 36 36 37 37 38 38 38 39 40 40 41 41 42 42 43 43 43 43 42
35 35 34 33 32 32 31 30 30 31 32 33 34 35 34 33 34 34 34 34 33 33 34 34 35 35 35 35 36 37 38 38 38 38 39 40 41 41 41 42 43 43 42 42
34 33 33 32 32 31 31 30 30 31 32 32 33 33 33 34 34 34 34 34 34 33 32 33 34 35 35 35 35 36 37 37 37 38 38 39 39 40 40 41 42 42 42 42
33 33 31 31 30 30 30 29 30 31 31 32 32 32 31 32 33 33 34 34 34 34 33 33 33 34 34 35 35 35 35 36 37 38 39 38 39 39 40 40 41 42 42 42
32 32 31 30 29 30 29 29 29 30 30 31 31 31 32 31 31 32 32 32 32 33 33 33 33 33 33 34 35 35 35 36 37 38 39 39 39 39 39 39 39 40 41 41
31 31 30 29 29 29 29 28 27 28 29 30 30 30 30 31 31 32 31 31 31 31 31 32 33 33 32 33 34 35 36 36 36 36 37 38 38 38 38 39 39 40 40 41
30 29 30 29 28 28 28 26 26 26 27 27 28 29 29 30 30 31 31 31 30 30 31 31 31 31 32 33 33 34 34 35 36 36 36 37 37 38 38 38 38 39 39 40
29 28 29 28 27 27 26 25 26 25 26 27 27 27 28 28 28 29 29 29 29 29 30 31 31 31 31 32 32 33 34 36 36 37 37 37 38 38 38 38 38 38 39 39
28 28 28 27 26 25 23 24 25 25 25 26 26 28 28 28 28 28 28 28 28 29 29 29 30 30 30 31 32 33 34 35 35 36 37 37 36 36 36 37 37 38 38 38
26 26 25 25 24 23 22 22 23 24 25 25 25 26 27 27 28 27 28 28 28 29 30 30 30 29 30 30 31 32 32 33 34 34 35 35 35 35 36 36 36 37 37 38
27 25 24 23 23 22 21 21 22 23 23 23 24 24 25 25 26 27 27 28 28 28 29 30 30 29 30 30 30 30 31 32 33 33 34 34 35 36 36 36 36 36 36 37
26 26 25 24 23 22 21 21 22 22 23 23 23 24 24 25 25 26 27 28 28 28 28 29 29 30 30 30 30 30 31 31 32 32 33 34 35 35 36 36 36 36 36 37
25 24 24 24 23 22 22 22 22 22 23 24 24 24 24 24 24 24 24 25 26 27 27 28 29 30 30 30 31 31 31 31 31 32 32 33 34 34 34 35 35 35 36 36
24 24 24 23 22 22 22 22 22 23 23 24 24 24 24 24 24 24 23 23 23 24 25 26 27 28 29 29 30 30 30 30 30 30 31 31 31 32 32 33 34 34 35 35
24 24 23 22 22 22 22 23 23 24 24 24 24 24 23 23 23 23 23 23 23 23 23 24 25 25 26 27 28 29 29 29 29 29 30 30 31 31 31 32 33 34 35 35
23 22 21 21 21 22 22 22 22 22 22 22 22 23 23 23 23 23 22 23 23 23 24 24 24 25 26 27 28 28 28 29 29 29 30 30 31 31 32 32 33 33 34 34

GEFSCGP_500_meanwind_234.txt.gz
Wind_Speed
33 34 35 35 36 37 38 38 38 37 37 38 39 39 39 39 39 39 40 40 40 40 39 39 40 40 40 40 40 40 40 40 41 41 41 41 41 40 39 38 38 38 38 38
34 35 35 35 36 37 38 38 38 37 38 38 39 40 40 39 39 39 39 40 40 39 39 40 40 41 41 41 41 41 41 40 40 41 41 42 41 41 40 40 40 39 39 38
35 35 36 37 37 38 38 38 38 39 39 39 41 41 40 39 39 39 39 39 40 40 40 40 40 41 41 42 42 42 42 41 41 41 42 42 42 41 41 40 40 40 40 39
36 37 38 39 39 39 38 38 40 40 40 40 40 42 41 40 40 39 40 40 40 40 41 41 41 41 41 41 42 42 42 42 41 41 42 43 42 41 40 41 41 41 41 41
37 38 38 39 39 39 39 39 40 40 41 42 41 43 42 41 41 40 40 41 40 40 41 40 40 41 41 41 42 42 42 43 43 43 43 42 42 42 41 42 42 42 41 41
38 38 38 39 39 39 40 40 40 40 42 43 41 42 42 39 40 40 41 42 42 41 41 40 40 41 41 41 41 42 42 43 44 43 43 42 42 42 42 43 43 43 42 41
39 38 38 38 39 39 39 39 39 40 40 41 39 40 41 39 40 41 41 42 42 42 42 42 41 41 41 41 41 42 41 42 43 43 43 43 43 43 44 44 43 43 43 42
40 39 39 39 39 39 38 37 37 38 39 40 38 39 39 39 41 41 42 42 42 42 43 43 42 42 41 41 41 42 42 42 42 43 43 43 44 45 45 45 44 44 44 43
40 39 39 39 38 37 36 35 35 37 38 39 38 37 37 37 38 39 40 41 41 41 41 40 40 41 40 40 41 42 42 42 42 43 44 43 44 44 45 45 45 44 44 44
39 39 38 38 36 34 34 34 33 34 36 37 38 37 37 37 37 38 39 39 39 40 39 39 40 40 40 40 40 41 41 42 42 42 43 43 43 43 44 44 45 45 44 44
38 38 37 36 34 33 33 33 32 33 34 35 36 36 37 38 38 39 39 39 40 40 40 40 40 40 40 40 40 40 40 40 41 41 41 42 42 43 43 43 44 44 44 44
37 37 36 35 34 34 33 31 31 32 33 34 36 37 36 37 38 39 39 39 39 39 40 40 39 39 40 40 40 40 40 40 41 41 41 41 41 42 42 42 43 43 43 43
37 36 36 34 33 33 33 32 32 32 32 33 34 36 36 37 37 37 38 38 39 39 39 39 39 38 38 39 40 40 40 40 40 41 41 41 41 41 41 41 41 41 42 42
36 35 34 34 33 34 34 33 33 33 33 33 33 34 35 36 36 35 36 37 37 37 37 37 37 38 37 37 39 39 39 39 39 40 40 40 40 41 41 41 41 41 42 42
35 34 34 34 34 34 35 33 32 33 33 34 33 34 34 35 34 33 34 35 35 35 35 35 35 36 36 35 36 37 38 38 39 38 39 39 40 41 41 41 42 42 42 42
35 35 34 33 33 34 34 32 31 31 32 33 33 33 33 33 33 33 32 32 33 32 32 32 32 33 34 34 33 34 36 37 38 37 38 39 39 39 40 39 40 41 42 42
34 34 34 33 33 34 33 31 30 30 31 31 31 30 30 30 31 30 31 30 30 29 29 29 30 30 30 31 31 31 32 34 35 36 37 38 38 39 39 38 38 39 40 40
34 34 34 34 33 33 32 30 29 28 28 28 28 28 28 27 27 28 29 29 29 28 28 27 28 29 28 29 30 30 30 31 32 33 34 36 37 38 38 38 38 38 38 39
34 34 34 34 33 32 30 29 28 28 27 27 27 27 27 27 27 27 27 28 28 28 28 28 28 28 28 28 28 29 29 30 31 31 32 34 34 35 36 37 37 37 37 37
32 32 33 33 33 31 29 28 27 28 27 26 26 26 26 26 26 27 27 27 28 28 28 28 28 28 28 28 28 29 30 30 30 31 31 32 33 33 35 36 36 36 37 37
31 31 30 31 31 30 29 28 27 27 27 26 25 25 25 26 26 26 27 28 28 28 29 29 28 28 29 29 28 29 29 30 30 30 30 31 31 32 32 33 34 35 36 36
31 30 30 30 29 29 28 28 27 27 27 26 25 25 26 26 26 26 27 27 28 29 29 29 28 28 28 28 28 28 28 28 29 29 29 30 30 30 31 32 33 34 35 35
30 30 30 30 29 28 28 28 28 28 28 27 27 26 26 26 27 26 26 27 27 27 28 28 28 27 27 27 27 27 27 27 28 28 28 28 29 29 30 30 31 31 32 33
29 29 30 29 29 29 29 28 28 27 27 27 27 27 26 26 26 26 26 26 26 26 26 26 26 26 27 27 27 26 26 27 28 28 28 28 28 29 29 30 30 30 31 32
29 30 30 29 29 29 29 28 27 26 26 27 27 26 26 26 26 26 27 27 26 26 25 25 25 25 25 26 27 27 26 27 27 28 28 28 28 28 29 29 29 29 29 30
29 29 30 29 29 29 28 27 26 26 26 26 25 25 26 26 26 26 26 26 25 24 24 24 24 24 24 24 25 25 26 26 27 27 27 27 27 27 28 29 29 29 29 29